GEFSSE_prec_meanprecacc_006.txt.gz
Total_Precipitation_Accumulation
0.00 0.01 0.02 0.01 0.01 0.00 0.00 0.00 0.01 0.01 0.01 0.00 0.01 0.01 0.00 0.00 0.00 0.01 0.02 0.02 0.02 0.01 0.02 0.02 0.03 0.07 0.08 0.07 0.10 0.15 0.20 0.12 0.08 0.10 0.08 0.11 0.15 0.09 0.03 0.02 0.05 0.13 0.09
0.00 0.01 0.01 0.01 0.01 0.01 0.01 0.01 0.01 0.01 0.02 0.01 0.01 0.00 0.00 0.01 0.01 0.00 0.00 0.01 0.00 0.00 0.01 0.02 0.04 0.05 0.05 0.05 0.07 0.13 0.18 0.19 0.18 0.17 0.08 0.06 0.10 0.06 0.02 0.03 0.07 0.12 0.09
0.00 0.00 0.01 0.01 0.01 0.01 0.01 0.01 0.01 0.03 0.03 0.01 0.01 0.01 0.01 0.00 0.00 0.00 0.00 0.00 0.00 0.00 0.01 0.01 0.04 0.05 0.06 0.08 0.10 0.13 0.15 0.18 0.22 0.21 0.12 0.08 0.04 0.03 0.04 0.05 0.11 0.10 0.07
0.00 0.00 0.01 0.01 0.02 0.04 0.03 0.03 0.03 0.04 0.06 0.04 0.01 0.02 0.00 0.00 0.00 0.01 0.01 0.01 0.00 0.00 0.01 0.01 0.02 0.05 0.07 0.10 0.14 0.15 0.11 0.13 0.16 0.12 0.04 0.02 0.03 0.05 0.10 0.10 0.16 0.10 0.07
0.00 0.00 0.01 0.03 0.04 0.08 0.07 0.06 0.07 0.06 0.07 0.05 0.03 0.03 0.02 0.01 0.01 0.00 0.01 0.02 0.01 0.01 0.01 0.02 0.02 0.04 0.08 0.09 0.10 0.09 0.07 0.12 0.17 0.05 0.00 0.00 0.03 0.08 0.10 0.14 0.15 0.08 0.06
0.00 0.01 0.05 0.06 0.08 0.10 0.10 0.11 0.14 0.10 0.10 0.06 0.04 0.04 0.04 0.03 0.01 0.00 0.02 0.06 0.03 0.00 0.00 0.02 0.03 0.05 0.08 0.12 0.11 0.10 0.13 0.12 0.06 0.01 0.01 0.01 0.04 0.08 0.11 0.15 0.10 0.12 0.07
0.01 0.03 0.05 0.07 0.09 0.14 0.13 0.11 0.15 0.16 0.19 0.10 0.06 0.05 0.04 0.02 0.00 0.00 0.03 0.05 0.06 0.03 0.01 0.01 0.01 0.03 0.05 0.09 0.09 0.10 0.15 0.09 0.05 0.06 0.07 0.06 0.08 0.10 0.12 0.13 0.15 0.20 0.16
0.01 0.02 0.03 0.06 0.10 0.16 0.16 0.16 0.21 0.24 0.24 0.12 0.05 0.07 0.05 0.05 0.02 0.00 0.02 0.02 0.06 0.06 0.03 0.01 0.00 0.00 0.01 0.03 0.06 0.11 0.14 0.14 0.09 0.06 0.07 0.10 0.15 0.16 0.13 0.13 0.17 0.25 0.26
0.01 0.03 0.03 0.04 0.07 0.14 0.21 0.21 0.22 0.24 0.23 0.11 0.04 0.06 0.06 0.05 0.02 0.00 0.01 0.01 0.01 0.02 0.02 0.02 0.01 0.00 0.00 0.00 0.03 0.07 0.12 0.11 0.07 0.03 0.02 0.06 0.13 0.12 0.12 0.13 0.16 0.23 0.27
0.00 0.01 0.02 0.03 0.05 0.11 0.17 0.24 0.27 0.30 0.33 0.15 0.06 0.05 0.05 0.06 0.03 0.00 0.00 0.00 0.01 0.01 0.01 0.01 0.01 0.00 0.00 0.00 0.01 0.03 0.06 0.06 0.03 0.00 0.00 0.03 0.07 0.07 0.07 0.09 0.14 0.14 0.15
0.00 0.00 0.00 0.01 0.02 0.07 0.11 0.16 0.25 0.31 0.37 0.20 0.06 0.03 0.03 0.03 0.04 0.01 0.00 0.00 0.02 0.01 0.00 0.00 0.00 0.00 0.00 0.00 0.00 0.01 0.01 0.00 0.00 0.00 0.00 0.03 0.02 0.02 0.04 0.04 0.04 0.06 0.07
0.00 0.00 0.00 0.00 0.01 0.03 0.05 0.09 0.19 0.22 0.27 0.19 0.05 0.02 0.04 0.02 0.03 0.01 0.00 0.00 0.01 0.01 0.00 0.00 0.00 0.00 0.00 0.00 0.00 0.00 0.00 0.00 0.00 0.00 0.01 0.02 0.01 0.00 0.00 0.00 0.00 0.00 0.00
0.00 0.00 0.00 0.00 0.00 0.01 0.03 0.05 0.10 0.14 0.22 0.22 0.10 0.02 0.04 0.01 0.02 0.00 0.00 0.00 0.00 0.00 0.00 0.00 0.00 0.00 0.00 0.00 0.00 0.00 0.00 0.00 0.00 0.00 0.00 0.01 0.00 0.00 0.00 0.00 0.00 0.00 0.00
0.00 0.00 0.00 0.00 0.00 0.00 0.02 0.06 0.14 0.18 0.23 0.21 0.11 0.01 0.00 0.00 0.01 0.01 0.00 0.00 0.00 0.00 0.00 0.00 0.00 0.00 0.00 0.00 0.00 0.00 0.00 0.00 0.00 0.00 0.01 0.02 0.02 0.01 0.01 0.01 0.00 0.00 0.00
0.00 0.00 0.00 0.00 0.00 0.00 0.01 0.04 0.07 0.08 0.15 0.28 0.23 0.05 0.00 0.00 0.01 0.01 0.00 0.00 0.00 0.00 0.00 0.00 0.00 0.00 0.00 0.00 0.00 0.00 0.00 0.00 0.00 0.00 0.01 0.02 0.02 0.03 0.04 0.03 0.03 0.01 0.00
0.00 0.00 0.00 0.00 0.00 0.00 0.00 0.01 0.02 0.02 0.07 0.12 0.09 0.02 0.00 0.00 0.02 0.02 0.00 0.00 0.00 0.00 0.00 0.00 0.00 0.00 0.00 0.00 0.00 0.00 0.00 0.00 0.00 0.00 0.01 0.02 0.02 0.02 0.03 0.03 0.04 0.02 0.02
0.00 0.00 0.00 0.00 0.00 0.00 0.00 0.00 0.00 0.01 0.03 0.03 0.03 0.01 0.01 0.02 0.05 0.04 0.00 0.00 0.00 0.00 0.00 0.00 0.00 0.00 0.00 0.00 0.00 0.00 0.00 0.00 0.00 0.00 0.00 0.01 0.03 0.02 0.03 0.06 0.07 0.06 0.05
0.00 0.00 0.00 0.00 0.00 0.00 0.00 0.00 0.00 0.00 0.01 0.02 0.04 0.02 0.01 0.03 0.04 0.06 0.02 0.00 0.00 0.00 0.00 0.00 0.00 0.00 0.00 0.00 0.01 0.00 0.00 0.00 0.00 0.00 0.00 0.01 0.03 0.03 0.05 0.06 0.10 0.12 0.10
0.01 0.01 0.00 0.00 0.00 0.00 0.00 0.00 0.00 0.00 0.00 0.01 0.01 0.01 0.01 0.03 0.05 0.09 0.10 0.04 0.00 0.00 0.00 0.00 0.00 0.00 0.00 0.01 0.01 0.01 0.01 0.00 0.00 0.00 0.00 0.00 0.00 0.01 0.03 0.04 0.05 0.08 0.12
0.05 0.03 0.01 0.00 0.00 0.01 0.00 0.00 0.00 0.00 0.00 0.01 0.00 0.02 0.07 0.14 0.17 0.20 0.24 0.18 0.07 0.05 0.06 0.04 0.02 0.01 0.01 0.01 0.00 0.00 0.00 0.00 0.00 0.00 0.00 0.00 0.00 0.00 0.00 0.00 0.01 0.01 0.04
0.12 0.08 0.02 0.00 0.00 0.00 0.00 0.01 0.01 0.01 0.01 0.02 0.03 0.04 0.08 0.15 0.22 0.26 0.33 0.33 0.25 0.21 0.19 0.15 0.11 0.06 0.03 0.01 0.00 0.00 0.00 0.00 0.00 0.00 0.00 0.00 0.00 0.00 0.00 0.00 0.01 0.03 0.06
0.03 0.05 0.06 0.02 0.01 0.00 0.02 0.05 0.08 0.08 0.07 0.08 0.09 0.08 0.08 0.09 0.14 0.18 0.27 0.25 0.18 0.17 0.15 0.10 0.09 0.13 0.10 0.03 0.01 0.02 0.01 0.00 0.00 0.00 0.00 0.00 0.00 0.00 0.00 0.00 0.00 0.01 0.03
0.01 0.01 0.03 0.06 0.05 0.03 0.09 0.20 0.27 0.26 0.22 0.15 0.13 0.16 0.17 0.13 0.09 0.10 0.13 0.13 0.08 0.08 0.11 0.09 0.07 0.08 0.09 0.03 0.01 0.04 0.03 0.03 0.02 0.01 0.00 0.00 0.00 0.00 0.00 0.00 0.00 0.00 0.00
0.00 0.00 0.01 0.03 0.07 0.09 0.20 0.35 0.43 0.43 0.35 0.27 0.22 0.23 0.22 0.14 0.08 0.07 0.07 0.08 0.04 0.02 0.02 0.01 0.01 0.01 0.03 0.02 0.01 0.01 0.02 0.02 0.04 0.05 0.02 0.00 0.00 0.00 0.00 0.00 0.00 0.00 0.00
0.05 0.05 0.05 0.09 0.22 0.36 0.45 0.44 0.45 0.42 0.35 0.28 0.23 0.25 0.23 0.24 0.17 0.10 0.07 0.05 0.02 0.01 0.00 0.00 0.00 0.00 0.00 0.01 0.02 0.01 0.02 0.02 0.01 0.03 0.04 0.02 0.01 0.00 0.00 0.00 0.00 0.00 0.00
0.14 0.15 0.14 0.21 0.31 0.37 0.41 0.47 0.45 0.37 0.35 0.35 0.32 0.28 0.23 0.22 0.18 0.13 0.08 0.03 0.01 0.00 0.00 0.00 0.00 0.00 0.00 0.01 0.03 0.04 0.06 0.08 0.06 0.07 0.06 0.06 0.07 0.03 0.00 0.00 0.00 0.00 0.00

GEFSSE_prec_meanprecacc_012.txt.gz
Total_Precipitation_Accumulation
0.00 0.01 0.02 0.01 0.01 0.01 0.01 0.01 0.01 0.01 0.01 0.01 0.02 0.01 0.01 0.01 0.02 0.02 0.05 0.05 0.04 0.04 0.05 0.05 0.07 0.12 0.16 0.19 0.25 0.29 0.32 0.22 0.18 0.17 0.13 0.14 0.18 0.10 0.04 0.07 0.24 0.32 0.14
0.00 0.01 0.02 0.01 0.01 0.01 0.01 0.01 0.01 0.02 0.03 0.02 0.02 0.01 0.01 0.01 0.01 0.01 0.02 0.02 0.01 0.02 0.04 0.05 0.08 0.10 0.12 0.13 0.20 0.26 0.26 0.24 0.23 0.21 0.12 0.10 0.13 0.07 0.03 0.06 0.18 0.26 0.18
0.00 0.00 0.01 0.01 0.01 0.02 0.01 0.02 0.02 0.04 0.04 0.02 0.01 0.02 0.02 0.01 0.00 0.00 0.00 0.01 0.01 0.01 0.02 0.03 0.07 0.10 0.13 0.16 0.18 0.20 0.20 0.22 0.26 0.25 0.20 0.25 0.11 0.06 0.05 0.05 0.13 0.15 0.15
0.00 0.00 0.01 0.01 0.02 0.04 0.03 0.03 0.04 0.06 0.07 0.04 0.02 0.03 0.02 0.00 0.00 0.01 0.01 0.01 0.01 0.01 0.02 0.02 0.03 0.07 0.12 0.17 0.21 0.20 0.15 0.16 0.19 0.16 0.16 0.24 0.18 0.09 0.11 0.11 0.17 0.12 0.11
0.00 0.00 0.02 0.03 0.05 0.09 0.08 0.07 0.08 0.09 0.09 0.06 0.03 0.04 0.02 0.02 0.01 0.01 0.01 0.02 0.02 0.02 0.02 0.02 0.03 0.05 0.10 0.11 0.13 0.13 0.10 0.14 0.18 0.09 0.07 0.14 0.20 0.14 0.11 0.16 0.17 0.10 0.07
0.00 0.01 0.05 0.06 0.09 0.14 0.14 0.15 0.18 0.16 0.14 0.08 0.05 0.05 0.04 0.03 0.01 0.00 0.02 0.06 0.03 0.01 0.01 0.02 0.04 0.07 0.11 0.13 0.12 0.13 0.16 0.14 0.08 0.08 0.11 0.17 0.25 0.13 0.12 0.16 0.12 0.17 0.11
0.01 0.03 0.05 0.07 0.10 0.18 0.18 0.15 0.24 0.26 0.25 0.14 0.07 0.06 0.05 0.03 0.01 0.00 0.04 0.07 0.06 0.04 0.01 0.01 0.03 0.04 0.07 0.11 0.11 0.13 0.18 0.11 0.14 0.17 0.19 0.24 0.19 0.11 0.12 0.13 0.17 0.29 0.24
0.01 0.02 0.03 0.06 0.11 0.19 0.21 0.24 0.35 0.38 0.32 0.18 0.07 0.08 0.07 0.06 0.02 0.00 0.03 0.04 0.07 0.07 0.03 0.01 0.01 0.00 0.01 0.04 0.07 0.12 0.16 0.18 0.17 0.12 0.13 0.19 0.19 0.17 0.14 0.14 0.18 0.30 0.32
0.01 0.03 0.03 0.04 0.07 0.15 0.24 0.29 0.37 0.42 0.37 0.21 0.08 0.09 0.08 0.06 0.02 0.00 0.01 0.02 0.02 0.02 0.02 0.02 0.01 0.00 0.00 0.00 0.03 0.08 0.13 0.14 0.09 0.04 0.04 0.09 0.14 0.14 0.13 0.14 0.17 0.26 0.33
0.00 0.01 0.02 0.03 0.05 0.12 0.18 0.26 0.33 0.42 0.53 0.31 0.11 0.07 0.06 0.06 0.03 0.01 0.00 0.00 0.01 0.01 0.01 0.01 0.01 0.00 0.00 0.00 0.01 0.04 0.06 0.07 0.04 0.00 0.02 0.06 0.08 0.09 0.09 0.12 0.16 0.16 0.21
0.00 0.00 0.00 0.01 0.03 0.09 0.13 0.16 0.26 0.35 0.47 0.32 0.11 0.05 0.05 0.06 0.06 0.01 0.00 0.00 0.02 0.02 0.00 0.00 0.00 0.00 0.00 0.00 0.00 0.01 0.01 0.01 0.00 0.00 0.01 0.03 0.02 0.03 0.05 0.05 0.05 0.08 0.11
0.00 0.00 0.00 0.00 0.01 0.04 0.08 0.14 0.21 0.23 0.30 0.24 0.13 0.04 0.08 0.19 0.14 0.02 0.00 0.00 0.01 0.01 0.00 0.00 0.00 0.00 0.00 0.00 0.00 0.00 0.00 0.00 0.00 0.00 0.01 0.02 0.01 0.00 0.01 0.01 0.00 0.01 0.01
0.00 0.00 0.00 0.00 0.00 0.02 0.11 0.18 0.22 0.27 0.32 0.39 0.39 0.11 0.07 0.13 0.08 0.01 0.00 0.00 0.01 0.00 0.00 0.00 0.00 0.00 0.00 0.00 0.00 0.00 0.00 0.00 0.00 0.00 0.01 0.01 0.00 0.00 0.00 0.00 0.00 0.00 0.00
0.00 0.00 0.00 0.00 0.00 0.00 0.05 0.16 0.27 0.31 0.39 0.46 0.41 0.13 0.04 0.05 0.03 0.01 0.00 0.00 0.00 0.00 0.00 0.00 0.00 0.00 0.00 0.00 0.00 0.00 0.00 0.00 0.00 0.00 0.01 0.02 0.02 0.01 0.01 0.01 0.01 0.00 0.00
0.00 0.00 0.00 0.00 0.00 0.00 0.02 0.07 0.11 0.11 0.22 0.43 0.43 0.15 0.04 0.02 0.02 0.01 0.00 0.00 0.00 0.00 0.00 0.00 0.00 0.00 0.00 0.00 0.00 0.00 0.00 0.00 0.00 0.00 0.03 0.02 0.02 0.03 0.04 0.04 0.03 0.01 0.00
0.00 0.00 0.00 0.00 0.00 0.00 0.00 0.01 0.03 0.03 0.11 0.15 0.11 0.04 0.02 0.01 0.02 0.03 0.00 0.00 0.00 0.00 0.00 0.00 0.00 0.00 0.00 0.00 0.00 0.00 0.00 0.00 0.00 0.00 0.02 0.04 0.02 0.02 0.03 0.03 0.04 0.03 0.02
0.00 0.00 0.00 0.00 0.00 0.00 0.00 0.00 0.00 0.01 0.04 0.04 0.03 0.01 0.01 0.02 0.05 0.04 0.01 0.00 0.00 0.00 0.00 0.00 0.00 0.00 0.00 0.00 0.00 0.00 0.00 0.00 0.00 0.00 0.00 0.03 0.05 0.02 0.03 0.06 0.07 0.06 0.06
0.01 0.01 0.00 0.00 0.00 0.00 0.00 0.00 0.00 0.00 0.01 0.02 0.04 0.03 0.01 0.03 0.04 0.06 0.03 0.00 0.00 0.00 0.00 0.00 0.00 0.00 0.00 0.00 0.01 0.00 0.00 0.00 0.00 0.00 0.00 0.01 0.04 0.05 0.06 0.07 0.11 0.12 0.12
0.05 0.03 0.02 0.00 0.00 0.00 0.00 0.00 0.00 0.00 0.01 0.01 0.01 0.01 0.01 0.03 0.05 0.10 0.12 0.04 0.00 0.00 0.00 0.00 0.00 0.00 0.00 0.01 0.01 0.01 0.01 0.00 0.00 0.00 0.00 0.00 0.00 0.01 0.05 0.05 0.05 0.08 0.13
0.13 0.08 0.05 0.02 0.01 0.01 0.00 0.00 0.00 0.00 0.01 0.01 0.00 0.02 0.07 0.14 0.17 0.21 0.26 0.19 0.08 0.06 0.06 0.04 0.03 0.02 0.01 0.01 0.00 0.00 0.00 0.00 0.00 0.00 0.00 0.00 0.00 0.00 0.00 0.01 0.03 0.03 0.05
0.15 0.11 0.06 0.03 0.02 0.01 0.01 0.02 0.02 0.02 0.02 0.04 0.04 0.04 0.08 0.16 0.23 0.32 0.41 0.38 0.30 0.24 0.19 0.16 0.15 0.18 0.10 0.02 0.02 0.03 0.01 0.00 0.00 0.00 0.00 0.00 0.00 0.00 0.00 0.00 0.02 0.06 0.09
0.04 0.06 0.07 0.04 0.02 0.02 0.03 0.06 0.09 0.12 0.12 0.14 0.13 0.11 0.10 0.10 0.16 0.22 0.31 0.29 0.21 0.20 0.18 0.14 0.19 0.28 0.20 0.05 0.06 0.12 0.09 0.08 0.03 0.00 0.00 0.00 0.00 0.00 0.00 0.00 0.00 0.02 0.06
0.01 0.02 0.04 0.07 0.07 0.04 0.11 0.25 0.40 0.48 0.47 0.36 0.29 0.32 0.28 0.20 0.14 0.15 0.17 0.18 0.14 0.19 0.19 0.14 0.12 0.16 0.16 0.08 0.05 0.15 0.18 0.18 0.15 0.04 0.00 0.00 0.00 0.00 0.00 0.00 0.00 0.00 0.01
0.01 0.01 0.01 0.04 0.08 0.11 0.25 0.51 0.77 0.90 0.82 0.65 0.55 0.47 0.39 0.27 0.19 0.19 0.17 0.20 0.13 0.09 0.06 0.03 0.02 0.05 0.12 0.10 0.08 0.07 0.07 0.09 0.18 0.17 0.07 0.01 0.01 0.00 0.00 0.00 0.00 0.00 0.00
0.06 0.06 0.06 0.11 0.23 0.38 0.50 0.63 0.83 0.92 0.88 0.79 0.71 0.65 0.53 0.46 0.36 0.29 0.27 0.21 0.11 0.09 0.06 0.03 0.01 0.02 0.05 0.07 0.08 0.06 0.05 0.07 0.06 0.13 0.16 0.11 0.05 0.01 0.00 0.00 0.00 0.00 0.00
0.16 0.18 0.18 0.25 0.34 0.40 0.49 0.61 0.69 0.73 0.80 0.84 0.84 0.80 0.66 0.52 0.41 0.36 0.29 0.18 0.11 0.08 0.08 0.05 0.02 0.01 0.01 0.03 0.05 0.06 0.09 0.11 0.10 0.15 0.17 0.24 0.26 0.10 0.01 0.01 0.00 0.00 0.00

GEFSSE_prec_meanprecacc_018.txt.gz
Total_Precipitation_Accumulation
0.00 0.01 0.02 0.01 0.01 0.01 0.01 0.01 0.01 0.01 0.01 0.01 0.02 0.02 0.02 0.02 0.02 0.03 0.05 0.05 0.05 0.05 0.07 0.07 0.09 0.13 0.17 0.20 0.26 0.32 0.36 0.26 0.23 0.22 0.16 0.17 0.21 0.12 0.07 0.09 0.25 0.33 0.15
0.00 0.01 0.02 0.01 0.01 0.02 0.01 0.01 0.01 0.02 0.03 0.02 0.02 0.02 0.01 0.02 0.02 0.02 0.02 0.02 0.02 0.03 0.05 0.06 0.09 0.11 0.13 0.14 0.22 0.28 0.29 0.26 0.26 0.26 0.18 0.14 0.17 0.11 0.06 0.07 0.19 0.28 0.19
0.00 0.00 0.01 0.02 0.01 0.02 0.02 0.02 0.02 0.05 0.05 0.03 0.02 0.03 0.02 0.01 0.01 0.01 0.01 0.01 0.01 0.02 0.02 0.04 0.07 0.11 0.16 0.18 0.20 0.23 0.22 0.23 0.28 0.30 0.29 0.31 0.15 0.11 0.10 0.08 0.14 0.16 0.16
0.00 0.00 0.01 0.01 0.02 0.04 0.03 0.03 0.04 0.07 0.08 0.05 0.03 0.04 0.02 0.00 0.00 0.01 0.01 0.02 0.01 0.02 0.02 0.02 0.03 0.09 0.16 0.20 0.25 0.23 0.17 0.17 0.20 0.21 0.23 0.33 0.24 0.16 0.17 0.14 0.18 0.12 0.12
0.00 0.00 0.02 0.03 0.05 0.09 0.08 0.08 0.09 0.10 0.09 0.06 0.04 0.04 0.02 0.02 0.01 0.01 0.02 0.03 0.02 0.02 0.02 0.02 0.03 0.07 0.13 0.15 0.16 0.15 0.11 0.15 0.20 0.13 0.14 0.22 0.26 0.19 0.16 0.19 0.19 0.11 0.08
0.00 0.01 0.05 0.06 0.09 0.14 0.14 0.15 0.19 0.16 0.14 0.09 0.06 0.05 0.05 0.04 0.02 0.01 0.02 0.07 0.04 0.01 0.01 0.03 0.04 0.08 0.13 0.16 0.15 0.15 0.17 0.15 0.10 0.12 0.14 0.22 0.30 0.19 0.16 0.17 0.13 0.18 0.12
0.01 0.03 0.05 0.07 0.10 0.18 0.18 0.16 0.25 0.27 0.26 0.15 0.08 0.06 0.05 0.04 0.01 0.01 0.04 0.07 0.07 0.04 0.01 0.01 0.03 0.05 0.08 0.12 0.14 0.15 0.19 0.13 0.16 0.19 0.20 0.26 0.22 0.16 0.15 0.14 0.18 0.30 0.26
0.02 0.02 0.03 0.06 0.11 0.19 0.22 0.25 0.36 0.38 0.32 0.19 0.08 0.09 0.07 0.06 0.02 0.01 0.03 0.04 0.07 0.07 0.03 0.01 0.01 0.01 0.02 0.04 0.08 0.14 0.18 0.22 0.22 0.16 0.13 0.20 0.21 0.20 0.15 0.15 0.19 0.31 0.34
0.01 0.03 0.03 0.04 0.07 0.15 0.24 0.29 0.38 0.43 0.38 0.23 0.09 0.10 0.09 0.06 0.02 0.01 0.02 0.02 0.02 0.02 0.02 0.02 0.01 0.00 0.00 0.01 0.03 0.09 0.15 0.19 0.16 0.08 0.05 0.10 0.18 0.17 0.14 0.14 0.17 0.26 0.34
0.00 0.01 0.02 0.03 0.05 0.12 0.19 0.29 0.35 0.44 0.56 0.35 0.12 0.08 0.06 0.06 0.03 0.01 0.01 0.00 0.01 0.01 0.01 0.01 0.01 0.00 0.00 0.00 0.01 0.04 0.07 0.09 0.09 0.04 0.03 0.08 0.12 0.11 0.10 0.12 0.16 0.16 0.21
0.00 0.00 0.01 0.01 0.03 0.09 0.14 0.18 0.29 0.36 0.50 0.37 0.13 0.05 0.05 0.06 0.06 0.01 0.01 0.00 0.02 0.02 0.00 0.00 0.00 0.00 0.00 0.00 0.00 0.01 0.01 0.02 0.02 0.01 0.01 0.05 0.05 0.04 0.05 0.05 0.06 0.08 0.11
0.00 0.00 0.00 0.00 0.01 0.04 0.08 0.14 0.22 0.24 0.30 0.26 0.14 0.04 0.08 0.20 0.14 0.02 0.01 0.01 0.01 0.01 0.00 0.00 0.00 0.00 0.00 0.00 0.00 0.00 0.00 0.00 0.00 0.01 0.01 0.03 0.01 0.01 0.01 0.01 0.00 0.01 0.01
0.00 0.00 0.00 0.00 0.00 0.03 0.11 0.18 0.23 0.27 0.33 0.40 0.39 0.12 0.08 0.15 0.09 0.01 0.00 0.00 0.01 0.00 0.00 0.00 0.00 0.00 0.00 0.00 0.00 0.00 0.00 0.00 0.00 0.00 0.01 0.01 0.00 0.00 0.00 0.00 0.00 0.00 0.00
0.00 0.00 0.00 0.00 0.00 0.00 0.05 0.16 0.27 0.31 0.39 0.46 0.41 0.14 0.05 0.07 0.04 0.01 0.00 0.00 0.00 0.00 0.00 0.00 0.00 0.00 0.00 0.00 0.00 0.00 0.00 0.00 0.00 0.00 0.01 0.02 0.02 0.01 0.01 0.01 0.01 0.00 0.00
0.00 0.00 0.00 0.00 0.00 0.00 0.02 0.07 0.11 0.11 0.22 0.43 0.43 0.17 0.08 0.05 0.04 0.03 0.00 0.00 0.00 0.00 0.00 0.00 0.00 0.00 0.00 0.00 0.00 0.00 0.00 0.00 0.00 0.00 0.03 0.02 0.02 0.03 0.04 0.04 0.03 0.01 0.00
0.02 0.02 0.01 0.01 0.00 0.00 0.00 0.01 0.03 0.03 0.11 0.15 0.11 0.05 0.05 0.06 0.06 0.05 0.01 0.00 0.00 0.00 0.00 0.00 0.00 0.00 0.00 0.00 0.00 0.00 0.00 0.00 0.00 0.00 0.02 0.04 0.02 0.02 0.03 0.04 0.04 0.03 0.02
0.06 0.06 0.05 0.05 0.03 0.01 0.01 0.00 0.00 0.01 0.04 0.04 0.03 0.01 0.02 0.05 0.08 0.07 0.02 0.00 0.00 0.00 0.00 0.00 0.00 0.00 0.00 0.00 0.00 0.00 0.00 0.00 0.00 0.00 0.00 0.03 0.05 0.02 0.03 0.06 0.07 0.06 0.06
0.11 0.08 0.08 0.07 0.06 0.04 0.04 0.02 0.01 0.00 0.01 0.02 0.04 0.03 0.01 0.04 0.07 0.09 0.04 0.01 0.00 0.00 0.00 0.00 0.00 0.00 0.00 0.00 0.01 0.00 0.00 0.00 0.00 0.00 0.00 0.01 0.04 0.05 0.06 0.07 0.11 0.12 0.12
0.17 0.13 0.12 0.12 0.09 0.08 0.08 0.07 0.04 0.02 0.01 0.01 0.02 0.01 0.01 0.04 0.07 0.11 0.13 0.04 0.01 0.00 0.00 0.00 0.00 0.00 0.00 0.01 0.01 0.01 0.01 0.00 0.00 0.00 0.00 0.00 0.01 0.01 0.05 0.05 0.05 0.08 0.13
0.20 0.18 0.17 0.17 0.15 0.13 0.11 0.12 0.10 0.07 0.05 0.03 0.02 0.03 0.08 0.16 0.20 0.24 0.30 0.21 0.10 0.07 0.06 0.04 0.03 0.02 0.01 0.01 0.00 0.00 0.01 0.00 0.00 0.00 0.00 0.00 0.01 0.00 0.00 0.01 0.03 0.03 0.05
0.17 0.16 0.15 0.18 0.18 0.15 0.12 0.13 0.12 0.10 0.10 0.10 0.09 0.08 0.12 0.19 0.26 0.35 0.45 0.42 0.34 0.26 0.20 0.16 0.16 0.19 0.11 0.02 0.03 0.03 0.02 0.00 0.00 0.00 0.00 0.00 0.00 0.00 0.00 0.00 0.02 0.06 0.09
0.04 0.09 0.12 0.13 0.14 0.11 0.12 0.16 0.20 0.24 0.24 0.28 0.27 0.24 0.21 0.19 0.23 0.29 0.39 0.38 0.30 0.28 0.22 0.17 0.23 0.33 0.25 0.09 0.10 0.15 0.11 0.08 0.03 0.00 0.00 0.00 0.00 0.00 0.00 0.00 0.00 0.02 0.06
0.01 0.02 0.05 0.10 0.12 0.11 0.18 0.36 0.60 0.80 0.84 0.78 0.70 0.68 0.61 0.50 0.36 0.33 0.34 0.35 0.29 0.32 0.30 0.22 0.20 0.26 0.26 0.17 0.11 0.20 0.20 0.18 0.15 0.04 0.01 0.01 0.01 0.00 0.00 0.00 0.01 0.01 0.01
0.01 0.01 0.02 0.05 0.09 0.13 0.29 0.60 0.97 1.26 1.33 1.28 1.30 1.20 1.07 0.89 0.70 0.60 0.50 0.48 0.35 0.28 0.25 0.20 0.17 0.19 0.24 0.22 0.16 0.12 0.12 0.13 0.19 0.17 0.07 0.01 0.01 0.01 0.00 0.00 0.00 0.02 0.02
0.06 0.06 0.06 0.11 0.23 0.39 0.52 0.68 0.95 1.14 1.23 1.33 1.44 1.53 1.55 1.55 1.37 1.13 0.88 0.62 0.43 0.36 0.33 0.31 0.28 0.24 0.23 0.21 0.16 0.10 0.07 0.10 0.08 0.14 0.17 0.11 0.05 0.02 0.01 0.00 0.00 0.00 0.01
0.16 0.18 0.18 0.25 0.34 0.41 0.50 0.63 0.75 0.84 1.00 1.17 1.31 1.44 1.49 1.51 1.41 1.23 1.00 0.69 0.44 0.35 0.36 0.41 0.39 0.34 0.29 0.23 0.15 0.11 0.12 0.11 0.10 0.16 0.17 0.24 0.26 0.10 0.02 0.02 0.01 0.00 0.00

GEFSSE_prec_meanprecacc_024.txt.gz
Total_Precipitation_Accumulation
0.00 0.01 0.04 0.03 0.02 0.02 0.01 0.02 0.02 0.02 0.02 0.02 0.02 0.02 0.02 0.03 0.03 0.04 0.07 0.08 0.08 0.10 0.13 0.12 0.12 0.16 0.19 0.21 0.27 0.34 0.38 0.28 0.23 0.22 0.16 0.17 0.21 0.13 0.08 0.10 0.25 0.33 0.16
0.00 0.01 0.03 0.03 0.02 0.02 0.02 0.02 0.02 0.03 0.03 0.02 0.03 0.02 0.02 0.02 0.02 0.03 0.03 0.03 0.03 0.05 0.08 0.09 0.12 0.14 0.15 0.16 0.24 0.31 0.32 0.29 0.27 0.26 0.19 0.14 0.18 0.11 0.06 0.08 0.19 0.28 0.19
0.00 0.00 0.02 0.03 0.02 0.02 0.02 0.02 0.02 0.05 0.06 0.03 0.03 0.03 0.02 0.01 0.01 0.01 0.01 0.01 0.01 0.03 0.03 0.05 0.10 0.14 0.18 0.21 0.22 0.24 0.24 0.25 0.29 0.30 0.29 0.31 0.15 0.12 0.11 0.09 0.15 0.17 0.18
0.00 0.00 0.01 0.02 0.03 0.05 0.03 0.04 0.05 0.07 0.08 0.05 0.03 0.04 0.02 0.01 0.01 0.02 0.02 0.02 0.01 0.02 0.02 0.03 0.05 0.10 0.17 0.22 0.26 0.23 0.18 0.19 0.22 0.22 0.24 0.34 0.24 0.17 0.19 0.15 0.18 0.13 0.14
0.00 0.00 0.02 0.03 0.06 0.09 0.08 0.08 0.09 0.10 0.10 0.06 0.04 0.04 0.02 0.02 0.01 0.01 0.02 0.03 0.02 0.02 0.02 0.03 0.04 0.08 0.14 0.16 0.17 0.15 0.12 0.16 0.21 0.13 0.14 0.23 0.26 0.21 0.17 0.21 0.20 0.12 0.09
0.00 0.01 0.05 0.06 0.09 0.14 0.15 0.16 0.19 0.16 0.14 0.10 0.06 0.05 0.05 0.04 0.02 0.01 0.03 0.07 0.04 0.01 0.01 0.03 0.05 0.09 0.14 0.17 0.16 0.15 0.17 0.17 0.11 0.12 0.15 0.23 0.31 0.21 0.18 0.20 0.15 0.20 0.13
0.01 0.03 0.05 0.07 0.11 0.19 0.19 0.16 0.25 0.27 0.26 0.15 0.08 0.06 0.05 0.04 0.01 0.01 0.05 0.07 0.07 0.04 0.01 0.01 0.03 0.05 0.08 0.13 0.14 0.16 0.20 0.14 0.17 0.20 0.20 0.26 0.23 0.20 0.19 0.16 0.21 0.33 0.27
0.02 0.02 0.03 0.06 0.11 0.19 0.22 0.25 0.36 0.39 0.33 0.19 0.08 0.09 0.07 0.06 0.02 0.01 0.03 0.04 0.07 0.07 0.03 0.01 0.01 0.01 0.02 0.05 0.09 0.14 0.19 0.23 0.23 0.16 0.14 0.20 0.24 0.24 0.18 0.17 0.21 0.34 0.37
0.01 0.03 0.03 0.04 0.07 0.15 0.25 0.30 0.39 0.44 0.38 0.23 0.09 0.10 0.09 0.06 0.02 0.01 0.02 0.02 0.02 0.02 0.02 0.02 0.01 0.00 0.00 0.01 0.04 0.10 0.16 0.20 0.18 0.09 0.05 0.11 0.20 0.18 0.15 0.16 0.19 0.29 0.37
0.00 0.01 0.02 0.03 0.05 0.13 0.20 0.30 0.36 0.45 0.57 0.35 0.12 0.08 0.07 0.06 0.04 0.01 0.01 0.00 0.01 0.01 0.01 0.01 0.01 0.00 0.00 0.00 0.01 0.04 0.07 0.11 0.10 0.04 0.03 0.08 0.14 0.12 0.11 0.14 0.18 0.18 0.23
0.01 0.00 0.01 0.01 0.03 0.09 0.14 0.18 0.29 0.38 0.51 0.38 0.14 0.06 0.05 0.06 0.06 0.01 0.01 0.00 0.02 0.02 0.00 0.00 0.00 0.00 0.00 0.00 0.00 0.01 0.01 0.02 0.02 0.01 0.01 0.05 0.06 0.05 0.06 0.06 0.06 0.08 0.12
0.01 0.00 0.00 0.00 0.01 0.04 0.08 0.14 0.22 0.25 0.32 0.28 0.15 0.04 0.08 0.20 0.14 0.02 0.01 0.01 0.01 0.01 0.00 0.00 0.00 0.00 0.00 0.00 0.00 0.00 0.00 0.00 0.00 0.01 0.01 0.03 0.02 0.01 0.01 0.01 0.00 0.01 0.02
0.03 0.02 0.01 0.01 0.00 0.03 0.11 0.18 0.23 0.27 0.33 0.41 0.40 0.12 0.08 0.15 0.09 0.01 0.00 0.00 0.01 0.00 0.00 0.00 0.00 0.00 0.00 0.00 0.00 0.00 0.00 0.00 0.00 0.00 0.01 0.01 0.00 0.00 0.00 0.00 0.00 0.00 0.00
0.12 0.08 0.06 0.03 0.02 0.01 0.05 0.16 0.27 0.31 0.39 0.46 0.43 0.16 0.05 0.07 0.04 0.01 0.00 0.00 0.00 0.00 0.00 0.00 0.00 0.00 0.00 0.00 0.00 0.00 0.00 0.00 0.00 0.00 0.01 0.02 0.02 0.01 0.01 0.01 0.01 0.00 0.00
0.19 0.21 0.21 0.15 0.09 0.06 0.05 0.08 0.12 0.12 0.22 0.43 0.44 0.18 0.08 0.05 0.04 0.03 0.00 0.00 0.00 0.00 0.00 0.00 0.00 0.00 0.00 0.00 0.00 0.00 0.00 0.00 0.00 0.00 0.03 0.02 0.02 0.03 0.04 0.04 0.03 0.01 0.00
0.17 0.25 0.30 0.32 0.28 0.20 0.12 0.08 0.07 0.05 0.12 0.15 0.11 0.05 0.06 0.06 0.06 0.06 0.03 0.01 0.00 0.00 0.00 0.00 0.00 0.00 0.00 0.00 0.00 0.00 0.00 0.00 0.00 0.00 0.02 0.04 0.02 0.02 0.03 0.04 0.04 0.04 0.03
0.17 0.22 0.30 0.35 0.36 0.32 0.26 0.23 0.15 0.11 0.09 0.06 0.04 0.02 0.03 0.05 0.09 0.09 0.05 0.03 0.00 0.00 0.00 0.00 0.00 0.00 0.00 0.00 0.00 0.00 0.00 0.00 0.00 0.00 0.00 0.03 0.05 0.02 0.03 0.06 0.08 0.06 0.07
0.21 0.20 0.26 0.29 0.32 0.37 0.40 0.42 0.34 0.23 0.15 0.10 0.08 0.04 0.02 0.04 0.08 0.11 0.08 0.05 0.04 0.02 0.01 0.01 0.00 0.00 0.00 0.00 0.01 0.00 0.00 0.00 0.00 0.00 0.00 0.01 0.04 0.05 0.06 0.07 0.11 0.12 0.12
0.24 0.22 0.22 0.25 0.28 0.34 0.42 0.46 0.42 0.32 0.21 0.15 0.12 0.06 0.05 0.06 0.10 0.15 0.18 0.14 0.11 0.07 0.04 0.02 0.00 0.00 0.00 0.01 0.01 0.01 0.01 0.00 0.00 0.00 0.00 0.00 0.01 0.01 0.05 0.05 0.05 0.08 0.13
0.24 0.24 0.24 0.26 0.26 0.29 0.33 0.39 0.39 0.30 0.23 0.21 0.16 0.15 0.18 0.24 0.27 0.31 0.38 0.34 0.24 0.18 0.15 0.09 0.05 0.03 0.01 0.01 0.00 0.00 0.01 0.00 0.00 0.00 0.00 0.00 0.01 0.00 0.00 0.01 0.03 0.03 0.05
0.18 0.17 0.18 0.23 0.26 0.24 0.23 0.27 0.30 0.26 0.27 0.29 0.31 0.34 0.36 0.37 0.41 0.50 0.61 0.62 0.55 0.43 0.36 0.30 0.23 0.21 0.12 0.02 0.03 0.04 0.02 0.01 0.00 0.00 0.00 0.00 0.00 0.00 0.00 0.00 0.02 0.06 0.09
0.05 0.09 0.13 0.14 0.17 0.16 0.17 0.22 0.30 0.35 0.37 0.45 0.56 0.59 0.57 0.50 0.49 0.54 0.64 0.67 0.60 0.55 0.48 0.39 0.37 0.41 0.28 0.11 0.13 0.18 0.12 0.09 0.03 0.00 0.00 0.00 0.00 0.00 0.00 0.00 0.00 0.02 0.06
0.02 0.02 0.06 0.10 0.13 0.12 0.19 0.38 0.64 0.87 0.93 0.91 0.90 1.00 1.03 0.90 0.73 0.68 0.68 0.71 0.68 0.69 0.63 0.51 0.45 0.45 0.39 0.27 0.20 0.28 0.24 0.19 0.15 0.05 0.01 0.01 0.01 0.00 0.00 0.00 0.01 0.01 0.01
0.01 0.01 0.02 0.05 0.10 0.13 0.29 0.60 0.98 1.29 1.37 1.35 1.45 1.47 1.47 1.35 1.15 1.05 0.96 0.92 0.79 0.71 0.63 0.53 0.45 0.44 0.47 0.42 0.34 0.27 0.23 0.19 0.22 0.18 0.07 0.02 0.01 0.01 0.00 0.00 0.00 0.02 0.02
0.06 0.06 0.07 0.11 0.23 0.39 0.53 0.68 0.95 1.14 1.24 1.36 1.52 1.66 1.75 1.85 1.79 1.65 1.46 1.19 0.97 0.82 0.72 0.65 0.58 0.53 0.51 0.46 0.38 0.28 0.22 0.20 0.14 0.16 0.17 0.11 0.05 0.02 0.01 0.00 0.00 0.00 0.01
0.17 0.19 0.19 0.25 0.34 0.41 0.51 0.64 0.76 0.85 1.01 1.18 1.34 1.49 1.60 1.70 1.69 1.62 1.43 1.14 0.88 0.72 0.67 0.68 0.67 0.63 0.58 0.50 0.38 0.29 0.25 0.21 0.17 0.19 0.19 0.24 0.26 0.10 0.02 0.02 0.01 0.00 0.00

GEFSSE_prec_meanprecacc_030.txt.gz
Total_Precipitation_Accumulation
0.00 0.01 0.05 0.04 0.04 0.03 0.03 0.04 0.06 0.06 0.05 0.04 0.04 0.04 0.04 0.04 0.04 0.05 0.08 0.09 0.09 0.11 0.15 0.15 0.17 0.21 0.22 0.23 0.28 0.36 0.40 0.29 0.25 0.23 0.17 0.18 0.22 0.14 0.09 0.11 0.27 0.36 0.18
0.00 0.01 0.04 0.04 0.03 0.03 0.02 0.03 0.05 0.05 0.05 0.05 0.05 0.04 0.03 0.03 0.03 0.04 0.04 0.04 0.04 0.06 0.11 0.13 0.17 0.20 0.19 0.20 0.27 0.35 0.36 0.32 0.30 0.28 0.20 0.16 0.19 0.13 0.08 0.08 0.20 0.30 0.21
0.00 0.01 0.02 0.03 0.03 0.03 0.02 0.03 0.04 0.07 0.08 0.06 0.05 0.05 0.04 0.03 0.03 0.03 0.03 0.02 0.02 0.04 0.06 0.09 0.14 0.18 0.22 0.26 0.27 0.29 0.29 0.31 0.32 0.32 0.31 0.34 0.17 0.15 0.15 0.12 0.17 0.18 0.19
0.00 0.00 0.01 0.02 0.03 0.05 0.04 0.05 0.05 0.09 0.11 0.09 0.06 0.06 0.04 0.03 0.04 0.05 0.03 0.03 0.02 0.03 0.04 0.06 0.08 0.15 0.22 0.27 0.31 0.28 0.23 0.26 0.27 0.24 0.24 0.35 0.27 0.19 0.23 0.21 0.25 0.16 0.15
0.00 0.00 0.02 0.04 0.06 0.09 0.08 0.09 0.10 0.11 0.12 0.09 0.07 0.06 0.04 0.04 0.03 0.03 0.03 0.04 0.03 0.03 0.04 0.05 0.07 0.12 0.19 0.20 0.21 0.19 0.18 0.25 0.28 0.15 0.16 0.26 0.32 0.24 0.21 0.27 0.27 0.18 0.13
0.00 0.01 0.05 0.06 0.09 0.14 0.15 0.16 0.20 0.18 0.16 0.11 0.08 0.06 0.06 0.05 0.02 0.02 0.04 0.08 0.05 0.02 0.02 0.05 0.08 0.13 0.17 0.20 0.19 0.19 0.24 0.24 0.15 0.15 0.17 0.26 0.37 0.27 0.23 0.26 0.22 0.29 0.19
0.01 0.03 0.05 0.07 0.11 0.19 0.19 0.16 0.26 0.28 0.27 0.17 0.10 0.07 0.06 0.04 0.01 0.02 0.06 0.08 0.07 0.04 0.02 0.02 0.05 0.09 0.12 0.16 0.17 0.20 0.27 0.20 0.20 0.22 0.21 0.27 0.27 0.26 0.24 0.23 0.29 0.42 0.36
0.02 0.02 0.04 0.07 0.12 0.20 0.22 0.25 0.37 0.39 0.33 0.20 0.09 0.10 0.08 0.06 0.02 0.02 0.04 0.05 0.08 0.08 0.03 0.02 0.02 0.03 0.05 0.08 0.11 0.18 0.27 0.29 0.24 0.17 0.14 0.22 0.27 0.28 0.22 0.22 0.28 0.43 0.47
0.01 0.03 0.03 0.05 0.08 0.15 0.25 0.30 0.40 0.46 0.40 0.24 0.10 0.11 0.10 0.07 0.03 0.02 0.02 0.02 0.03 0.03 0.02 0.02 0.01 0.01 0.01 0.02 0.06 0.14 0.23 0.24 0.20 0.10 0.05 0.12 0.23 0.21 0.17 0.19 0.23 0.35 0.45
0.00 0.01 0.02 0.03 0.06 0.13 0.21 0.32 0.40 0.50 0.60 0.39 0.15 0.09 0.08 0.07 0.04 0.02 0.02 0.01 0.01 0.01 0.01 0.01 0.01 0.00 0.00 0.00 0.02 0.08 0.12 0.14 0.15 0.06 0.03 0.09 0.16 0.13 0.11 0.14 0.19 0.20 0.26
0.01 0.01 0.01 0.01 0.04 0.09 0.15 0.20 0.36 0.48 0.61 0.44 0.19 0.08 0.06 0.07 0.08 0.03 0.03 0.01 0.02 0.02 0.00 0.00 0.00 0.00 0.00 0.01 0.02 0.02 0.03 0.05 0.06 0.04 0.02 0.06 0.07 0.05 0.06 0.06 0.06 0.09 0.13
0.06 0.02 0.01 0.01 0.02 0.05 0.09 0.15 0.28 0.36 0.45 0.37 0.24 0.12 0.12 0.23 0.16 0.02 0.02 0.01 0.02 0.01 0.00 0.00 0.00 0.00 0.00 0.00 0.00 0.00 0.01 0.02 0.02 0.02 0.02 0.03 0.02 0.01 0.01 0.01 0.00 0.01 0.02
0.15 0.10 0.05 0.03 0.02 0.05 0.13 0.21 0.28 0.37 0.45 0.52 0.50 0.22 0.17 0.21 0.12 0.01 0.01 0.01 0.01 0.01 0.00 0.00 0.00 0.00 0.00 0.00 0.00 0.00 0.00 0.00 0.01 0.01 0.01 0.01 0.01 0.00 0.00 0.00 0.00 0.00 0.00
0.31 0.27 0.20 0.10 0.07 0.07 0.12 0.21 0.34 0.38 0.47 0.54 0.51 0.25 0.18 0.18 0.10 0.04 0.01 0.01 0.00 0.00 0.00 0.00 0.00 0.00 0.00 0.00 0.00 0.00 0.00 0.00 0.00 0.00 0.01 0.02 0.02 0.01 0.01 0.01 0.01 0.00 0.00
0.44 0.50 0.47 0.31 0.23 0.22 0.20 0.18 0.19 0.18 0.29 0.52 0.53 0.25 0.17 0.15 0.13 0.09 0.02 0.01 0.00 0.00 0.00 0.00 0.00 0.00 0.00 0.00 0.00 0.00 0.00 0.00 0.00 0.00 0.03 0.02 0.02 0.03 0.04 0.04 0.04 0.02 0.00
0.33 0.43 0.51 0.48 0.47 0.44 0.34 0.24 0.19 0.16 0.24 0.29 0.22 0.13 0.14 0.13 0.13 0.14 0.06 0.02 0.01 0.00 0.01 0.00 0.00 0.00 0.00 0.00 0.00 0.00 0.00 0.00 0.00 0.00 0.02 0.04 0.02 0.02 0.03 0.04 0.04 0.04 0.03
0.25 0.31 0.40 0.47 0.52 0.54 0.54 0.50 0.37 0.31 0.28 0.23 0.19 0.14 0.14 0.14 0.16 0.17 0.10 0.05 0.01 0.01 0.00 0.00 0.00 0.00 0.00 0.00 0.00 0.00 0.00 0.00 0.00 0.00 0.00 0.03 0.05 0.02 0.03 0.06 0.08 0.07 0.08
0.24 0.24 0.30 0.35 0.42 0.51 0.59 0.64 0.61 0.54 0.43 0.32 0.24 0.17 0.14 0.15 0.18 0.22 0.15 0.09 0.07 0.03 0.02 0.01 0.00 0.00 0.00 0.00 0.01 0.00 0.00 0.00 0.00 0.00 0.00 0.01 0.04 0.05 0.06 0.07 0.11 0.13 0.13
0.24 0.23 0.24 0.28 0.32 0.39 0.49 0.55 0.55 0.52 0.45 0.40 0.35 0.22 0.17 0.17 0.21 0.28 0.28 0.23 0.20 0.15 0.09 0.05 0.01 0.01 0.01 0.01 0.01 0.01 0.01 0.00 0.00 0.00 0.00 0.00 0.01 0.01 0.05 0.05 0.05 0.08 0.13
0.24 0.24 0.24 0.26 0.27 0.30 0.35 0.42 0.45 0.38 0.35 0.39 0.34 0.30 0.32 0.37 0.39 0.44 0.51 0.49 0.41 0.31 0.25 0.18 0.12 0.07 0.03 0.02 0.00 0.00 0.01 0.00 0.00 0.00 0.00 0.00 0.01 0.00 0.00 0.01 0.03 0.03 0.05
0.18 0.17 0.18 0.24 0.26 0.24 0.23 0.27 0.32 0.30 0.34 0.41 0.47 0.49 0.52 0.54 0.56 0.65 0.76 0.82 0.78 0.60 0.52 0.46 0.37 0.31 0.17 0.04 0.04 0.04 0.02 0.01 0.00 0.00 0.00 0.00 0.00 0.00 0.00 0.00 0.02 0.06 0.09
0.05 0.09 0.13 0.15 0.17 0.16 0.17 0.22 0.30 0.36 0.39 0.49 0.62 0.70 0.70 0.67 0.67 0.68 0.79 0.84 0.81 0.75 0.70 0.60 0.54 0.55 0.39 0.15 0.15 0.22 0.17 0.12 0.04 0.00 0.00 0.00 0.00 0.00 0.00 0.00 0.00 0.02 0.06
0.02 0.03 0.06 0.10 0.13 0.12 0.20 0.38 0.64 0.88 0.94 0.93 0.93 1.05 1.13 1.05 0.93 0.89 0.86 0.91 0.89 0.90 0.83 0.73 0.65 0.65 0.56 0.36 0.25 0.34 0.31 0.25 0.21 0.07 0.01 0.01 0.01 0.00 0.00 0.00 0.01 0.01 0.01
0.02 0.02 0.02 0.06 0.10 0.13 0.30 0.61 0.99 1.30 1.39 1.36 1.47 1.50 1.53 1.44 1.27 1.20 1.15 1.14 1.01 0.90 0.81 0.73 0.65 0.64 0.69 0.61 0.50 0.40 0.33 0.26 0.31 0.25 0.10 0.02 0.02 0.01 0.00 0.00 0.00 0.02 0.02
0.08 0.08 0.08 0.14 0.26 0.42 0.55 0.70 0.98 1.16 1.26 1.38 1.54 1.69 1.79 1.90 1.85 1.74 1.60 1.34 1.11 0.96 0.86 0.83 0.77 0.70 0.67 0.64 0.55 0.46 0.40 0.34 0.24 0.25 0.25 0.15 0.06 0.02 0.01 0.00 0.00 0.00 0.01
0.22 0.23 0.24 0.32 0.40 0.47 0.56 0.68 0.79 0.87 1.04 1.21 1.36 1.52 1.63 1.75 1.75 1.68 1.51 1.23 0.99 0.83 0.78 0.83 0.81 0.76 0.70 0.64 0.54 0.43 0.39 0.34 0.28 0.31 0.29 0.33 0.31 0.11 0.02 0.02 0.01 0.00 0.00

GEFSSE_prec_meanprecacc_036.txt.gz
Total_Precipitation_Accumulation
0.01 0.01 0.05 0.04 0.05 0.04 0.04 0.05 0.08 0.09 0.08 0.07 0.07 0.06 0.05 0.05 0.04 0.06 0.08 0.09 0.10 0.12 0.15 0.16 0.19 0.24 0.24 0.24 0.29 0.37 0.41 0.30 0.26 0.24 0.18 0.19 0.23 0.14 0.09 0.12 0.36 0.48 0.21
0.00 0.01 0.04 0.04 0.04 0.04 0.03 0.04 0.06 0.07 0.07 0.07 0.07 0.06 0.04 0.04 0.04 0.04 0.05 0.05 0.05 0.07 0.12 0.15 0.19 0.23 0.23 0.23 0.30 0.38 0.38 0.33 0.31 0.30 0.25 0.21 0.20 0.13 0.08 0.10 0.29 0.39 0.25
0.00 0.01 0.02 0.03 0.03 0.04 0.03 0.03 0.04 0.08 0.09 0.07 0.06 0.06 0.05 0.04 0.04 0.04 0.03 0.03 0.02 0.04 0.07 0.11 0.18 0.22 0.26 0.31 0.32 0.35 0.32 0.33 0.34 0.36 0.45 0.51 0.23 0.16 0.16 0.14 0.21 0.21 0.22
0.00 0.01 0.01 0.02 0.04 0.06 0.05 0.05 0.06 0.09 0.11 0.09 0.07 0.07 0.04 0.04 0.04 0.05 0.04 0.03 0.02 0.03 0.05 0.08 0.12 0.18 0.25 0.31 0.35 0.33 0.27 0.28 0.29 0.29 0.39 0.50 0.36 0.22 0.25 0.23 0.27 0.19 0.17
0.00 0.01 0.03 0.04 0.06 0.10 0.09 0.09 0.10 0.11 0.12 0.10 0.08 0.07 0.05 0.05 0.04 0.04 0.04 0.04 0.04 0.04 0.04 0.06 0.09 0.15 0.22 0.24 0.24 0.24 0.22 0.27 0.30 0.21 0.26 0.39 0.44 0.27 0.22 0.29 0.30 0.20 0.15
0.00 0.02 0.06 0.07 0.10 0.15 0.16 0.17 0.20 0.18 0.16 0.12 0.09 0.06 0.07 0.06 0.03 0.02 0.04 0.08 0.05 0.02 0.03 0.05 0.09 0.15 0.19 0.23 0.22 0.23 0.28 0.28 0.22 0.24 0.27 0.43 0.52 0.30 0.25 0.28 0.24 0.32 0.23
0.01 0.03 0.06 0.08 0.12 0.20 0.21 0.18 0.27 0.29 0.27 0.17 0.10 0.07 0.07 0.04 0.02 0.02 0.06 0.08 0.07 0.04 0.02 0.02 0.05 0.09 0.13 0.18 0.19 0.22 0.29 0.23 0.28 0.29 0.30 0.41 0.34 0.28 0.26 0.25 0.31 0.45 0.40
0.02 0.03 0.04 0.07 0.13 0.21 0.24 0.28 0.39 0.42 0.36 0.21 0.10 0.11 0.09 0.07 0.02 0.02 0.05 0.05 0.08 0.08 0.03 0.02 0.02 0.04 0.06 0.09 0.13 0.20 0.28 0.30 0.28 0.22 0.20 0.27 0.29 0.29 0.22 0.23 0.30 0.45 0.50
0.01 0.03 0.05 0.06 0.09 0.17 0.27 0.34 0.45 0.51 0.45 0.28 0.13 0.13 0.11 0.07 0.03 0.02 0.02 0.03 0.03 0.03 0.02 0.02 0.01 0.01 0.01 0.02 0.06 0.15 0.24 0.25 0.22 0.14 0.09 0.13 0.23 0.21 0.17 0.19 0.25 0.37 0.47
0.00 0.01 0.04 0.06 0.11 0.21 0.31 0.42 0.48 0.60 0.69 0.48 0.24 0.14 0.10 0.07 0.04 0.02 0.02 0.02 0.01 0.01 0.01 0.01 0.01 0.01 0.01 0.01 0.03 0.08 0.13 0.14 0.17 0.09 0.05 0.09 0.16 0.13 0.11 0.14 0.19 0.21 0.27
0.02 0.01 0.02 0.04 0.09 0.15 0.25 0.32 0.47 0.61 0.75 0.57 0.29 0.17 0.10 0.10 0.14 0.11 0.06 0.03 0.02 0.02 0.00 0.00 0.00 0.00 0.00 0.01 0.02 0.03 0.04 0.07 0.08 0.06 0.04 0.06 0.07 0.05 0.06 0.06 0.06 0.09 0.13
0.11 0.05 0.04 0.04 0.06 0.10 0.14 0.26 0.46 0.57 0.73 0.57 0.48 0.43 0.30 0.36 0.36 0.20 0.16 0.08 0.03 0.01 0.00 0.00 0.00 0.00 0.00 0.00 0.00 0.00 0.01 0.03 0.03 0.03 0.03 0.03 0.02 0.01 0.01 0.01 0.00 0.01 0.02
0.21 0.16 0.12 0.10 0.10 0.13 0.23 0.34 0.46 0.60 0.72 0.83 0.90 0.75 0.64 0.56 0.40 0.17 0.13 0.10 0.03 0.01 0.01 0.00 0.00 0.00 0.00 0.00 0.00 0.00 0.00 0.01 0.03 0.02 0.02 0.01 0.01 0.00 0.00 0.00 0.00 0.00 0.00
0.37 0.35 0.28 0.17 0.17 0.20 0.27 0.40 0.55 0.57 0.67 0.76 0.74 0.52 0.60 0.60 0.40 0.22 0.19 0.15 0.05 0.02 0.01 0.01 0.00 0.00 0.00 0.00 0.00 0.00 0.00 0.01 0.01 0.01 0.02 0.02 0.02 0.01 0.01 0.02 0.01 0.00 0.00
0.51 0.58 0.55 0.39 0.32 0.32 0.34 0.35 0.39 0.40 0.50 0.75 0.78 0.47 0.45 0.46 0.42 0.33 0.16 0.13 0.07 0.04 0.03 0.01 0.01 0.00 0.00 0.00 0.00 0.00 0.00 0.00 0.00 0.01 0.03 0.02 0.02 0.03 0.04 0.04 0.04 0.02 0.00
0.36 0.48 0.57 0.54 0.53 0.49 0.41 0.34 0.31 0.34 0.44 0.52 0.45 0.31 0.34 0.36 0.39 0.41 0.24 0.13 0.07 0.04 0.03 0.01 0.00 0.00 0.00 0.00 0.00 0.00 0.00 0.00 0.00 0.00 0.02 0.04 0.02 0.02 0.03 0.04 0.04 0.04 0.03
0.26 0.32 0.42 0.50 0.56 0.58 0.59 0.56 0.45 0.42 0.45 0.41 0.35 0.30 0.30 0.30 0.36 0.41 0.30 0.18 0.09 0.06 0.03 0.02 0.00 0.00 0.00 0.00 0.00 0.00 0.00 0.00 0.00 0.00 0.00 0.03 0.05 0.02 0.03 0.06 0.08 0.07 0.08
0.25 0.25 0.31 0.36 0.43 0.52 0.61 0.68 0.65 0.59 0.51 0.44 0.37 0.31 0.28 0.27 0.31 0.40 0.34 0.22 0.15 0.14 0.11 0.05 0.01 0.00 0.00 0.00 0.01 0.00 0.00 0.00 0.00 0.00 0.00 0.01 0.04 0.05 0.06 0.07 0.11 0.13 0.13
0.24 0.23 0.24 0.28 0.32 0.40 0.50 0.57 0.57 0.55 0.50 0.47 0.44 0.31 0.26 0.25 0.31 0.42 0.47 0.39 0.33 0.28 0.24 0.14 0.05 0.02 0.01 0.02 0.01 0.01 0.01 0.00 0.00 0.00 0.00 0.00 0.01 0.01 0.05 0.05 0.05 0.08 0.13
0.24 0.24 0.24 0.26 0.27 0.30 0.35 0.42 0.46 0.42 0.40 0.44 0.41 0.37 0.39 0.44 0.48 0.60 0.71 0.70 0.64 0.53 0.45 0.36 0.25 0.12 0.04 0.02 0.01 0.00 0.01 0.00 0.00 0.00 0.00 0.00 0.01 0.01 0.00 0.01 0.03 0.03 0.05
0.18 0.17 0.19 0.24 0.26 0.24 0.23 0.28 0.32 0.31 0.38 0.46 0.52 0.56 0.59 0.62 0.66 0.81 0.95 1.08 1.06 0.84 0.73 0.68 0.60 0.49 0.25 0.07 0.07 0.06 0.03 0.01 0.00 0.00 0.00 0.00 0.00 0.00 0.00 0.00 0.02 0.06 0.09
0.05 0.09 0.13 0.15 0.17 0.16 0.17 0.23 0.31 0.37 0.41 0.52 0.66 0.75 0.76 0.75 0.78 0.82 0.96 1.07 1.05 0.98 0.93 0.85 0.81 0.81 0.56 0.24 0.25 0.35 0.27 0.19 0.06 0.01 0.00 0.00 0.01 0.00 0.00 0.00 0.01 0.02 0.06
0.02 0.03 0.06 0.11 0.14 0.14 0.21 0.40 0.67 0.91 0.97 0.97 0.97 1.10 1.18 1.13 1.04 1.01 1.02 1.13 1.15 1.16 1.06 0.97 0.89 0.91 0.79 0.52 0.35 0.48 0.43 0.36 0.32 0.12 0.03 0.03 0.04 0.01 0.01 0.01 0.01 0.01 0.01
0.03 0.03 0.04 0.09 0.14 0.18 0.34 0.67 1.06 1.37 1.45 1.44 1.55 1.56 1.60 1.52 1.36 1.32 1.30 1.36 1.28 1.17 1.05 0.97 0.87 0.87 0.96 0.82 0.63 0.48 0.39 0.32 0.43 0.39 0.20 0.08 0.07 0.04 0.02 0.01 0.01 0.02 0.02
0.10 0.11 0.13 0.20 0.33 0.50 0.65 0.82 1.11 1.29 1.39 1.51 1.66 1.78 1.88 1.98 1.94 1.85 1.75 1.55 1.33 1.20 1.12 1.09 1.01 0.94 0.94 0.89 0.74 0.60 0.50 0.41 0.30 0.37 0.41 0.27 0.15 0.09 0.05 0.05 0.04 0.02 0.02
0.24 0.26 0.30 0.40 0.50 0.58 0.69 0.82 0.96 1.04 1.20 1.37 1.52 1.66 1.79 1.89 1.88 1.81 1.67 1.42 1.20 1.09 1.08 1.11 1.07 1.00 0.94 0.89 0.74 0.58 0.51 0.43 0.34 0.39 0.40 0.45 0.44 0.21 0.08 0.06 0.05 0.04 0.03

GEFSSE_prec_meanprecacc_042.txt.gz
Total_Precipitation_Accumulation
0.01 0.01 0.05 0.05 0.05 0.04 0.04 0.05 0.08 0.09 0.08 0.07 0.07 0.06 0.06 0.05 0.04 0.06 0.09 0.09 0.10 0.12 0.15 0.16 0.19 0.24 0.24 0.24 0.30 0.37 0.42 0.31 0.27 0.25 0.19 0.20 0.23 0.15 0.11 0.17 0.40 0.51 0.25
0.00 0.01 0.04 0.04 0.04 0.04 0.03 0.04 0.06 0.07 0.08 0.07 0.07 0.06 0.04 0.04 0.04 0.04 0.05 0.05 0.05 0.07 0.12 0.16 0.19 0.23 0.24 0.24 0.31 0.38 0.38 0.34 0.32 0.33 0.28 0.23 0.21 0.14 0.10 0.14 0.31 0.42 0.28
0.00 0.01 0.03 0.04 0.03 0.04 0.03 0.03 0.05 0.09 0.10 0.07 0.06 0.06 0.05 0.04 0.04 0.04 0.03 0.03 0.02 0.04 0.07 0.11 0.18 0.22 0.26 0.31 0.33 0.35 0.32 0.33 0.35 0.38 0.48 0.53 0.25 0.18 0.17 0.15 0.22 0.23 0.25
0.00 0.01 0.01 0.02 0.04 0.06 0.05 0.05 0.06 0.09 0.12 0.09 0.07 0.07 0.04 0.04 0.04 0.05 0.04 0.03 0.02 0.03 0.05 0.08 0.12 0.18 0.25 0.31 0.35 0.33 0.27 0.29 0.30 0.33 0.43 0.54 0.38 0.24 0.27 0.25 0.30 0.21 0.19
0.00 0.01 0.03 0.04 0.06 0.10 0.09 0.09 0.11 0.11 0.12 0.10 0.08 0.07 0.05 0.05 0.04 0.04 0.04 0.04 0.04 0.04 0.04 0.07 0.09 0.16 0.22 0.24 0.25 0.25 0.23 0.29 0.34 0.26 0.30 0.42 0.46 0.30 0.24 0.30 0.31 0.22 0.18
0.01 0.02 0.06 0.07 0.10 0.15 0.16 0.17 0.21 0.18 0.16 0.12 0.09 0.06 0.07 0.06 0.03 0.02 0.04 0.08 0.05 0.02 0.03 0.05 0.10 0.16 0.20 0.23 0.23 0.24 0.30 0.32 0.26 0.28 0.31 0.45 0.54 0.33 0.27 0.31 0.26 0.35 0.25
0.04 0.04 0.06 0.09 0.12 0.20 0.21 0.18 0.27 0.29 0.28 0.17 0.10 0.07 0.07 0.04 0.02 0.02 0.06 0.08 0.07 0.04 0.02 0.02 0.06 0.10 0.14 0.19 0.20 0.23 0.31 0.27 0.33 0.36 0.34 0.43 0.36 0.31 0.28 0.28 0.33 0.46 0.41
0.10 0.09 0.08 0.12 0.16 0.23 0.25 0.28 0.40 0.42 0.36 0.21 0.10 0.11 0.09 0.07 0.02 0.02 0.05 0.05 0.08 0.08 0.03 0.02 0.03 0.05 0.06 0.10 0.13 0.21 0.29 0.33 0.34 0.30 0.23 0.28 0.31 0.31 0.23 0.24 0.31 0.46 0.51
0.20 0.19 0.16 0.17 0.19 0.26 0.34 0.39 0.49 0.54 0.47 0.29 0.14 0.13 0.11 0.07 0.03 0.02 0.02 0.03 0.03 0.03 0.02 0.02 0.02 0.02 0.02 0.03 0.07 0.16 0.26 0.27 0.26 0.20 0.11 0.14 0.25 0.22 0.17 0.19 0.25 0.38 0.49
0.21 0.23 0.24 0.23 0.28 0.37 0.46 0.56 0.60 0.71 0.77 0.53 0.28 0.16 0.11 0.08 0.05 0.02 0.02 0.02 0.01 0.01 0.01 0.01 0.01 0.01 0.01 0.01 0.03 0.09 0.14 0.17 0.22 0.13 0.08 0.11 0.18 0.14 0.11 0.14 0.20 0.21 0.29
0.20 0.22 0.26 0.28 0.33 0.36 0.40 0.50 0.68 0.79 0.90 0.69 0.38 0.24 0.15 0.12 0.14 0.12 0.07 0.04 0.03 0.02 0.00 0.00 0.00 0.00 0.00 0.02 0.03 0.04 0.05 0.09 0.14 0.11 0.05 0.08 0.09 0.06 0.06 0.06 0.06 0.09 0.14
0.30 0.25 0.24 0.23 0.29 0.35 0.34 0.51 0.74 0.76 0.87 0.67 0.56 0.50 0.38 0.41 0.38 0.24 0.19 0.15 0.09 0.03 0.00 0.00 0.00 0.00 0.00 0.00 0.00 0.01 0.02 0.05 0.09 0.07 0.04 0.08 0.05 0.02 0.01 0.01 0.00 0.01 0.02
0.33 0.29 0.27 0.26 0.27 0.32 0.49 0.69 0.85 0.86 0.87 0.92 0.98 0.82 0.73 0.64 0.45 0.23 0.21 0.20 0.11 0.06 0.02 0.00 0.00 0.00 0.00 0.00 0.00 0.00 0.01 0.04 0.09 0.06 0.03 0.05 0.04 0.02 0.00 0.00 0.00 0.00 0.00
0.44 0.42 0.35 0.26 0.27 0.33 0.45 0.64 0.86 0.87 0.86 0.88 0.83 0.60 0.68 0.69 0.48 0.33 0.34 0.33 0.18 0.11 0.06 0.02 0.00 0.00 0.00 0.00 0.00 0.00 0.01 0.02 0.05 0.03 0.02 0.03 0.03 0.02 0.01 0.02 0.01 0.00 0.00
0.53 0.61 0.59 0.43 0.36 0.38 0.42 0.47 0.59 0.65 0.71 0.91 0.93 0.62 0.58 0.57 0.54 0.50 0.37 0.37 0.30 0.23 0.14 0.05 0.02 0.01 0.00 0.00 0.00 0.00 0.00 0.01 0.02 0.01 0.03 0.03 0.03 0.03 0.04 0.04 0.04 0.02 0.00
0.36 0.49 0.57 0.55 0.54 0.51 0.45 0.39 0.39 0.43 0.54 0.65 0.61 0.49 0.50 0.49 0.52 0.56 0.40 0.32 0.30 0.35 0.27 0.14 0.06 0.03 0.02 0.01 0.01 0.00 0.00 0.00 0.01 0.01 0.02 0.04 0.02 0.02 0.03 0.04 0.04 0.04 0.03
0.26 0.32 0.42 0.50 0.56 0.58 0.59 0.57 0.47 0.46 0.51 0.50 0.47 0.50 0.55 0.50 0.54 0.60 0.46 0.32 0.25 0.29 0.30 0.25 0.17 0.09 0.05 0.03 0.02 0.01 0.01 0.01 0.01 0.01 0.01 0.03 0.05 0.02 0.03 0.06 0.08 0.07 0.08
0.25 0.25 0.31 0.36 0.43 0.52 0.61 0.68 0.66 0.61 0.55 0.49 0.44 0.40 0.43 0.42 0.45 0.56 0.52 0.35 0.26 0.32 0.39 0.38 0.28 0.17 0.08 0.04 0.02 0.01 0.01 0.01 0.01 0.01 0.00 0.01 0.04 0.05 0.06 0.07 0.11 0.13 0.13
0.24 0.23 0.24 0.28 0.32 0.40 0.50 0.57 0.57 0.56 0.51 0.49 0.47 0.36 0.34 0.34 0.42 0.57 0.63 0.56 0.49 0.46 0.48 0.46 0.40 0.28 0.15 0.08 0.04 0.03 0.02 0.01 0.01 0.01 0.00 0.00 0.01 0.01 0.05 0.05 0.05 0.08 0.13
0.24 0.24 0.24 0.26 0.27 0.30 0.35 0.42 0.47 0.42 0.40 0.45 0.44 0.42 0.45 0.51 0.55 0.69 0.82 0.86 0.86 0.78 0.69 0.68 0.68 0.51 0.30 0.17 0.08 0.04 0.03 0.01 0.01 0.01 0.00 0.01 0.01 0.01 0.01 0.01 0.03 0.03 0.05
0.18 0.17 0.19 0.24 0.26 0.24 0.23 0.28 0.32 0.32 0.39 0.46 0.53 0.59 0.63 0.66 0.71 0.86 1.02 1.19 1.24 1.04 0.94 0.97 0.99 0.91 0.60 0.30 0.23 0.17 0.11 0.05 0.02 0.02 0.01 0.01 0.01 0.01 0.01 0.00 0.02 0.06 0.09
0.05 0.09 0.13 0.15 0.17 0.16 0.17 0.23 0.31 0.37 0.41 0.52 0.68 0.78 0.80 0.79 0.83 0.87 1.02 1.14 1.16 1.13 1.10 1.04 1.06 1.15 0.91 0.54 0.49 0.55 0.41 0.28 0.12 0.05 0.04 0.03 0.03 0.02 0.02 0.01 0.01 0.02 0.06
0.02 0.03 0.06 0.11 0.14 0.14 0.22 0.41 0.67 0.91 0.97 0.98 0.99 1.12 1.22 1.17 1.10 1.07 1.09 1.19 1.23 1.28 1.20 1.13 1.07 1.13 1.05 0.79 0.61 0.71 0.58 0.46 0.41 0.20 0.11 0.12 0.11 0.07 0.04 0.03 0.03 0.02 0.01
0.03 0.03 0.04 0.09 0.15 0.18 0.35 0.68 1.06 1.38 1.46 1.46 1.56 1.58 1.63 1.56 1.41 1.39 1.39 1.44 1.35 1.28 1.17 1.12 1.07 1.07 1.18 1.06 0.88 0.69 0.53 0.42 0.51 0.45 0.27 0.21 0.21 0.16 0.11 0.07 0.05 0.04 0.04
0.10 0.11 0.13 0.20 0.34 0.50 0.65 0.82 1.12 1.31 1.42 1.54 1.68 1.81 1.91 2.03 2.00 1.93 1.85 1.67 1.44 1.31 1.27 1.28 1.20 1.17 1.18 1.12 0.99 0.83 0.71 0.56 0.39 0.42 0.45 0.35 0.28 0.25 0.20 0.16 0.11 0.07 0.06
0.24 0.27 0.31 0.41 0.51 0.58 0.70 0.83 0.98 1.06 1.23 1.41 1.56 1.72 1.84 1.95 1.97 1.93 1.79 1.55 1.35 1.24 1.26 1.32 1.28 1.24 1.18 1.15 1.02 0.85 0.75 0.64 0.49 0.49 0.46 0.50 0.53 0.32 0.23 0.20 0.17 0.12 0.10

GEFSSE_prec_meanprecacc_048.txt.gz
Total_Precipitation_Accumulation
0.01 0.02 0.08 0.07 0.07 0.05 0.05 0.06 0.08 0.10 0.08 0.08 0.07 0.06 0.06 0.05 0.04 0.06 0.09 0.09 0.10 0.12 0.16 0.16 0.19 0.24 0.25 0.25 0.30 0.37 0.43 0.32 0.28 0.26 0.20 0.21 0.26 0.20 0.20 0.27 0.44 0.55 0.28
0.00 0.01 0.07 0.07 0.05 0.04 0.04 0.05 0.06 0.07 0.08 0.07 0.07 0.06 0.04 0.04 0.04 0.04 0.05 0.05 0.05 0.07 0.12 0.16 0.19 0.24 0.25 0.24 0.31 0.38 0.38 0.34 0.34 0.35 0.29 0.24 0.23 0.18 0.15 0.18 0.34 0.45 0.32
0.00 0.01 0.03 0.05 0.04 0.04 0.03 0.04 0.05 0.09 0.10 0.07 0.06 0.06 0.05 0.04 0.04 0.04 0.03 0.03 0.02 0.04 0.07 0.12 0.18 0.23 0.27 0.32 0.33 0.35 0.32 0.34 0.37 0.40 0.49 0.54 0.26 0.20 0.20 0.18 0.25 0.27 0.28
0.01 0.01 0.01 0.03 0.05 0.06 0.05 0.05 0.07 0.09 0.12 0.09 0.07 0.07 0.05 0.04 0.04 0.05 0.04 0.03 0.02 0.03 0.05 0.08 0.12 0.19 0.26 0.32 0.36 0.34 0.28 0.30 0.33 0.35 0.44 0.54 0.39 0.26 0.31 0.29 0.34 0.26 0.25
0.01 0.02 0.04 0.05 0.07 0.11 0.09 0.09 0.11 0.11 0.12 0.10 0.08 0.07 0.05 0.05 0.04 0.04 0.04 0.04 0.04 0.04 0.04 0.07 0.09 0.16 0.23 0.25 0.25 0.25 0.23 0.30 0.38 0.28 0.30 0.42 0.47 0.34 0.30 0.36 0.37 0.30 0.24
0.02 0.03 0.08 0.09 0.12 0.17 0.17 0.18 0.21 0.18 0.16 0.12 0.09 0.06 0.07 0.06 0.03 0.02 0.04 0.08 0.05 0.02 0.03 0.05 0.10 0.16 0.21 0.24 0.23 0.25 0.31 0.35 0.29 0.29 0.31 0.45 0.55 0.39 0.35 0.38 0.34 0.42 0.32
0.12 0.10 0.12 0.15 0.17 0.24 0.24 0.21 0.29 0.29 0.28 0.18 0.11 0.08 0.07 0.05 0.02 0.02 0.06 0.08 0.07 0.04 0.02 0.02 0.06 0.11 0.15 0.20 0.21 0.25 0.33 0.30 0.36 0.38 0.35 0.44 0.38 0.38 0.36 0.36 0.39 0.52 0.46
0.32 0.26 0.21 0.24 0.28 0.32 0.32 0.34 0.45 0.46 0.38 0.23 0.11 0.11 0.09 0.07 0.03 0.02 0.05 0.05 0.08 0.08 0.03 0.02 0.03 0.05 0.07 0.12 0.16 0.22 0.32 0.36 0.38 0.33 0.24 0.29 0.34 0.36 0.30 0.31 0.36 0.50 0.55
0.61 0.48 0.38 0.36 0.38 0.44 0.50 0.52 0.61 0.64 0.55 0.35 0.17 0.15 0.13 0.08 0.03 0.02 0.03 0.03 0.03 0.03 0.02 0.02 0.02 0.02 0.03 0.06 0.10 0.18 0.28 0.29 0.29 0.24 0.12 0.15 0.28 0.25 0.21 0.23 0.29 0.41 0.51
0.66 0.62 0.55 0.51 0.53 0.61 0.67 0.76 0.80 0.88 0.93 0.67 0.38 0.24 0.16 0.11 0.06 0.03 0.03 0.02 0.01 0.01 0.01 0.01 0.01 0.01 0.02 0.04 0.07 0.13 0.16 0.18 0.25 0.16 0.10 0.12 0.23 0.16 0.13 0.16 0.22 0.23 0.30
0.52 0.55 0.57 0.58 0.63 0.64 0.65 0.70 0.89 1.01 1.11 0.88 0.53 0.41 0.30 0.18 0.18 0.14 0.09 0.05 0.04 0.03 0.01 0.00 0.00 0.00 0.01 0.03 0.06 0.08 0.07 0.09 0.16 0.12 0.07 0.10 0.14 0.09 0.07 0.06 0.07 0.10 0.15
0.48 0.44 0.44 0.44 0.52 0.58 0.57 0.76 1.00 1.03 1.11 0.86 0.71 0.66 0.53 0.52 0.44 0.28 0.22 0.20 0.14 0.08 0.03 0.01 0.00 0.00 0.00 0.00 0.01 0.02 0.02 0.05 0.10 0.09 0.05 0.10 0.10 0.05 0.02 0.01 0.01 0.02 0.04
0.41 0.38 0.37 0.38 0.40 0.48 0.67 0.89 1.07 1.10 1.12 1.13 1.16 0.98 0.89 0.78 0.54 0.30 0.24 0.23 0.18 0.16 0.08 0.02 0.01 0.00 0.00 0.00 0.00 0.00 0.01 0.04 0.09 0.07 0.04 0.08 0.10 0.05 0.02 0.01 0.00 0.01 0.02
0.46 0.44 0.38 0.29 0.31 0.38 0.51 0.73 0.98 1.03 1.06 1.11 1.06 0.83 0.88 0.86 0.62 0.44 0.42 0.38 0.24 0.20 0.17 0.07 0.02 0.00 0.00 0.00 0.00 0.00 0.01 0.02 0.05 0.04 0.04 0.06 0.09 0.06 0.03 0.02 0.01 0.00 0.01
0.53 0.61 0.59 0.43 0.37 0.39 0.44 0.49 0.63 0.72 0.81 1.05 1.10 0.81 0.76 0.74 0.73 0.67 0.50 0.49 0.43 0.40 0.31 0.18 0.08 0.04 0.01 0.00 0.00 0.00 0.00 0.01 0.02 0.02 0.03 0.04 0.06 0.06 0.06 0.05 0.04 0.02 0.01
0.36 0.49 0.57 0.55 0.54 0.52 0.45 0.39 0.40 0.45 0.57 0.70 0.69 0.62 0.62 0.62 0.69 0.75 0.58 0.45 0.41 0.51 0.47 0.34 0.20 0.10 0.06 0.03 0.01 0.01 0.00 0.00 0.01 0.01 0.02 0.04 0.04 0.04 0.05 0.04 0.05 0.05 0.04
0.26 0.32 0.42 0.50 0.56 0.58 0.59 0.58 0.47 0.46 0.51 0.51 0.51 0.56 0.61 0.58 0.66 0.76 0.62 0.44 0.34 0.43 0.51 0.52 0.42 0.21 0.10 0.07 0.03 0.01 0.01 0.01 0.01 0.01 0.01 0.03 0.06 0.03 0.04 0.07 0.08 0.07 0.09
0.25 0.25 0.31 0.36 0.43 0.52 0.61 0.68 0.66 0.61 0.55 0.49 0.45 0.42 0.45 0.45 0.49 0.64 0.64 0.49 0.39 0.46 0.58 0.66 0.61 0.44 0.20 0.10 0.05 0.02 0.01 0.01 0.01 0.02 0.02 0.01 0.04 0.05 0.07 0.08 0.11 0.13 0.14
0.24 0.23 0.24 0.28 0.32 0.40 0.50 0.57 0.57 0.56 0.51 0.49 0.48 0.37 0.35 0.37 0.45 0.61 0.69 0.65 0.61 0.60 0.62 0.66 0.68 0.59 0.38 0.20 0.09 0.05 0.03 0.01 0.01 0.02 0.02 0.01 0.01 0.02 0.05 0.05 0.06 0.08 0.13
0.24 0.24 0.24 0.26 0.27 0.30 0.35 0.42 0.47 0.42 0.40 0.45 0.44 0.42 0.46 0.52 0.57 0.72 0.86 0.93 0.97 0.90 0.82 0.86 0.92 0.77 0.55 0.38 0.23 0.11 0.05 0.02 0.02 0.02 0.02 0.02 0.02 0.01 0.01 0.01 0.03 0.03 0.05
0.18 0.17 0.19 0.24 0.26 0.24 0.23 0.28 0.32 0.32 0.39 0.46 0.53 0.59 0.64 0.66 0.72 0.88 1.05 1.23 1.30 1.11 1.04 1.14 1.22 1.17 0.85 0.57 0.47 0.33 0.19 0.08 0.05 0.05 0.04 0.03 0.02 0.02 0.01 0.00 0.02 0.07 0.09
0.05 0.09 0.13 0.15 0.17 0.16 0.17 0.23 0.31 0.37 0.41 0.52 0.68 0.78 0.80 0.79 0.84 0.88 1.04 1.17 1.19 1.17 1.16 1.15 1.22 1.35 1.15 0.81 0.76 0.81 0.59 0.37 0.15 0.07 0.07 0.05 0.05 0.04 0.03 0.02 0.01 0.02 0.06
0.02 0.03 0.06 0.11 0.14 0.14 0.22 0.41 0.67 0.91 0.97 0.98 0.99 1.12 1.22 1.18 1.10 1.08 1.10 1.21 1.25 1.31 1.23 1.18 1.15 1.25 1.24 1.04 0.89 1.03 0.84 0.63 0.51 0.26 0.15 0.17 0.14 0.10 0.06 0.05 0.04 0.02 0.01
0.03 0.03 0.04 0.09 0.15 0.18 0.35 0.68 1.06 1.38 1.47 1.46 1.57 1.59 1.64 1.57 1.42 1.40 1.40 1.46 1.38 1.30 1.19 1.16 1.13 1.14 1.29 1.22 1.09 0.94 0.79 0.64 0.71 0.59 0.36 0.27 0.27 0.21 0.16 0.11 0.08 0.06 0.05
0.10 0.11 0.13 0.20 0.34 0.50 0.65 0.83 1.12 1.31 1.43 1.56 1.70 1.83 1.93 2.05 2.02 1.95 1.87 1.70 1.48 1.34 1.30 1.32 1.26 1.24 1.26 1.20 1.11 1.01 0.97 0.84 0.63 0.59 0.59 0.44 0.34 0.30 0.27 0.22 0.18 0.13 0.10
0.24 0.27 0.31 0.41 0.51 0.58 0.70 0.84 0.98 1.06 1.23 1.42 1.57 1.73 1.85 1.96 1.98 1.94 1.81 1.57 1.37 1.26 1.30 1.37 1.35 1.32 1.27 1.23 1.11 0.96 0.89 0.85 0.73 0.71 0.63 0.61 0.62 0.40 0.31 0.28 0.24 0.20 0.16

GEFSSE_prec_meanprecacc_054.txt.gz
Total_Precipitation_Accumulation
0.02 0.03 0.10 0.09 0.09 0.08 0.07 0.08 0.10 0.11 0.10 0.09 0.09 0.08 0.06 0.06 0.05 0.06 0.09 0.09 0.10 0.13 0.16 0.17 0.20 0.24 0.25 0.25 0.31 0.38 0.44 0.33 0.28 0.26 0.20 0.21 0.26 0.21 0.21 0.27 0.45 0.57 0.29
0.01 0.02 0.09 0.10 0.07 0.06 0.06 0.08 0.09 0.10 0.11 0.10 0.09 0.07 0.05 0.04 0.04 0.04 0.05 0.05 0.05 0.07 0.13 0.16 0.20 0.25 0.26 0.26 0.33 0.40 0.40 0.36 0.35 0.35 0.30 0.24 0.23 0.19 0.15 0.19 0.36 0.48 0.34
0.01 0.02 0.05 0.09 0.08 0.07 0.07 0.08 0.09 0.13 0.13 0.09 0.08 0.08 0.06 0.04 0.04 0.04 0.03 0.03 0.02 0.05 0.08 0.12 0.19 0.24 0.28 0.33 0.35 0.36 0.34 0.36 0.39 0.42 0.50 0.56 0.28 0.21 0.21 0.19 0.27 0.29 0.30
0.01 0.01 0.04 0.09 0.11 0.14 0.13 0.13 0.14 0.15 0.16 0.12 0.09 0.09 0.06 0.04 0.04 0.05 0.04 0.03 0.03 0.04 0.06 0.09 0.13 0.20 0.27 0.34 0.37 0.35 0.31 0.34 0.38 0.38 0.45 0.57 0.43 0.28 0.33 0.32 0.36 0.28 0.27
0.02 0.04 0.09 0.16 0.18 0.22 0.20 0.19 0.19 0.18 0.18 0.15 0.11 0.10 0.07 0.06 0.04 0.04 0.04 0.04 0.04 0.04 0.04 0.07 0.10 0.17 0.24 0.25 0.26 0.27 0.28 0.36 0.45 0.32 0.32 0.44 0.53 0.39 0.33 0.41 0.42 0.34 0.28
0.06 0.09 0.16 0.23 0.24 0.29 0.29 0.28 0.31 0.25 0.22 0.17 0.13 0.11 0.10 0.08 0.04 0.03 0.04 0.09 0.05 0.03 0.03 0.06 0.10 0.17 0.22 0.25 0.24 0.26 0.35 0.41 0.36 0.36 0.36 0.49 0.60 0.44 0.39 0.43 0.40 0.48 0.38
0.20 0.19 0.23 0.30 0.33 0.38 0.36 0.32 0.39 0.38 0.36 0.25 0.16 0.13 0.12 0.08 0.04 0.03 0.07 0.09 0.08 0.05 0.02 0.03 0.06 0.11 0.16 0.22 0.23 0.26 0.36 0.35 0.42 0.46 0.40 0.47 0.42 0.43 0.42 0.42 0.44 0.58 0.52
0.47 0.39 0.32 0.37 0.44 0.48 0.46 0.48 0.59 0.58 0.49 0.33 0.20 0.20 0.17 0.14 0.08 0.05 0.07 0.07 0.09 0.09 0.04 0.02 0.03 0.06 0.08 0.14 0.17 0.24 0.35 0.40 0.42 0.39 0.27 0.31 0.38 0.40 0.35 0.38 0.45 0.57 0.60
0.79 0.65 0.51 0.49 0.53 0.61 0.66 0.69 0.79 0.81 0.71 0.51 0.33 0.30 0.26 0.20 0.13 0.08 0.07 0.06 0.05 0.04 0.03 0.03 0.02 0.03 0.04 0.08 0.12 0.20 0.32 0.34 0.37 0.33 0.16 0.17 0.32 0.27 0.24 0.28 0.37 0.48 0.56
0.88 0.83 0.76 0.70 0.70 0.77 0.81 0.91 1.00 1.09 1.16 0.89 0.58 0.45 0.37 0.28 0.19 0.14 0.10 0.08 0.06 0.04 0.03 0.01 0.01 0.01 0.04 0.07 0.10 0.15 0.19 0.22 0.32 0.23 0.14 0.14 0.26 0.18 0.15 0.19 0.27 0.28 0.34
0.65 0.70 0.75 0.79 0.84 0.84 0.79 0.84 1.05 1.21 1.36 1.09 0.71 0.66 0.54 0.35 0.31 0.25 0.17 0.14 0.12 0.10 0.07 0.04 0.01 0.01 0.02 0.05 0.08 0.10 0.10 0.12 0.22 0.20 0.12 0.13 0.18 0.12 0.08 0.08 0.10 0.14 0.18
0.53 0.50 0.53 0.55 0.64 0.70 0.69 0.88 1.14 1.19 1.30 1.03 0.83 0.83 0.74 0.73 0.63 0.41 0.31 0.29 0.25 0.21 0.14 0.10 0.06 0.03 0.02 0.02 0.03 0.03 0.04 0.08 0.13 0.14 0.09 0.12 0.14 0.08 0.03 0.01 0.02 0.04 0.06
0.42 0.40 0.39 0.41 0.44 0.53 0.72 0.95 1.15 1.21 1.25 1.27 1.28 1.11 1.05 0.97 0.75 0.50 0.41 0.38 0.32 0.28 0.23 0.19 0.15 0.10 0.06 0.02 0.01 0.01 0.01 0.05 0.10 0.08 0.06 0.10 0.14 0.08 0.03 0.01 0.01 0.02 0.03
0.46 0.44 0.38 0.30 0.31 0.38 0.52 0.75 1.01 1.08 1.12 1.19 1.17 0.95 1.00 0.97 0.76 0.63 0.63 0.61 0.48 0.39 0.40 0.33 0.24 0.18 0.13 0.05 0.02 0.00 0.01 0.02 0.05 0.04 0.06 0.07 0.13 0.10 0.06 0.03 0.01 0.02 0.02
0.53 0.61 0.59 0.43 0.37 0.39 0.45 0.50 0.64 0.74 0.84 1.10 1.16 0.88 0.84 0.81 0.83 0.81 0.66 0.70 0.66 0.62 0.55 0.45 0.34 0.25 0.21 0.12 0.05 0.01 0.00 0.01 0.02 0.02 0.04 0.05 0.08 0.10 0.09 0.06 0.05 0.03 0.02
0.36 0.49 0.57 0.55 0.54 0.52 0.45 0.39 0.40 0.46 0.58 0.71 0.72 0.66 0.68 0.68 0.75 0.86 0.72 0.63 0.61 0.74 0.76 0.61 0.47 0.40 0.31 0.19 0.09 0.03 0.01 0.01 0.01 0.01 0.03 0.05 0.04 0.05 0.08 0.06 0.06 0.05 0.05
0.26 0.32 0.42 0.50 0.56 0.58 0.59 0.58 0.47 0.46 0.51 0.52 0.52 0.58 0.64 0.62 0.72 0.84 0.74 0.57 0.49 0.59 0.72 0.75 0.65 0.48 0.34 0.23 0.14 0.07 0.03 0.01 0.01 0.01 0.01 0.05 0.07 0.03 0.05 0.08 0.09 0.08 0.10
0.25 0.25 0.31 0.36 0.43 0.52 0.61 0.68 0.66 0.61 0.55 0.50 0.46 0.43 0.47 0.47 0.53 0.69 0.70 0.56 0.49 0.59 0.71 0.80 0.80 0.67 0.43 0.29 0.19 0.12 0.08 0.05 0.02 0.02 0.02 0.02 0.05 0.06 0.07 0.08 0.12 0.14 0.14
0.24 0.23 0.24 0.28 0.32 0.40 0.50 0.57 0.57 0.56 0.51 0.49 0.49 0.38 0.36 0.38 0.47 0.64 0.74 0.72 0.70 0.70 0.75 0.79 0.84 0.77 0.62 0.43 0.26 0.17 0.11 0.07 0.04 0.03 0.02 0.01 0.01 0.03 0.07 0.07 0.06 0.09 0.14
0.24 0.24 0.24 0.26 0.27 0.31 0.35 0.43 0.47 0.42 0.41 0.46 0.45 0.43 0.47 0.53 0.58 0.74 0.88 0.96 1.02 0.96 0.92 1.01 1.13 1.00 0.77 0.61 0.46 0.26 0.15 0.09 0.05 0.04 0.03 0.03 0.02 0.01 0.01 0.02 0.04 0.04 0.05
0.18 0.17 0.19 0.24 0.26 0.24 0.23 0.28 0.32 0.32 0.39 0.47 0.54 0.60 0.64 0.67 0.74 0.90 1.07 1.27 1.34 1.15 1.10 1.21 1.35 1.37 1.07 0.79 0.68 0.51 0.33 0.17 0.10 0.08 0.06 0.05 0.04 0.03 0.03 0.01 0.03 0.07 0.10
0.05 0.09 0.13 0.15 0.17 0.17 0.18 0.23 0.31 0.37 0.42 0.53 0.68 0.78 0.81 0.80 0.85 0.90 1.06 1.20 1.23 1.21 1.21 1.21 1.30 1.48 1.33 1.04 0.98 1.07 0.82 0.55 0.25 0.12 0.10 0.08 0.07 0.06 0.06 0.03 0.01 0.02 0.06
0.02 0.03 0.06 0.11 0.14 0.14 0.22 0.41 0.67 0.91 0.98 0.99 1.00 1.13 1.23 1.19 1.12 1.10 1.12 1.23 1.28 1.34 1.27 1.23 1.22 1.35 1.37 1.19 1.10 1.30 1.08 0.82 0.67 0.36 0.21 0.21 0.19 0.15 0.10 0.06 0.04 0.02 0.01
0.03 0.03 0.04 0.09 0.15 0.18 0.35 0.68 1.07 1.39 1.47 1.47 1.58 1.60 1.66 1.58 1.44 1.41 1.42 1.48 1.39 1.32 1.22 1.19 1.17 1.21 1.40 1.36 1.24 1.10 0.97 0.83 0.92 0.77 0.47 0.33 0.32 0.28 0.23 0.16 0.10 0.07 0.05
0.10 0.11 0.13 0.20 0.34 0.50 0.65 0.83 1.12 1.32 1.43 1.57 1.71 1.85 1.96 2.07 2.04 1.96 1.89 1.72 1.49 1.36 1.32 1.34 1.29 1.29 1.34 1.33 1.26 1.15 1.10 0.98 0.78 0.76 0.76 0.57 0.43 0.36 0.33 0.28 0.24 0.17 0.12
0.24 0.27 0.31 0.41 0.51 0.58 0.70 0.84 0.98 1.07 1.23 1.43 1.58 1.74 1.87 1.98 2.00 1.95 1.82 1.59 1.39 1.28 1.32 1.39 1.38 1.37 1.34 1.33 1.24 1.09 1.02 0.95 0.83 0.84 0.76 0.75 0.75 0.49 0.38 0.33 0.31 0.27 0.22

GEFSSE_prec_meanprecacc_060.txt.gz
Total_Precipitation_Accumulation
0.07 0.05 0.10 0.11 0.13 0.11 0.09 0.10 0.12 0.14 0.13 0.11 0.10 0.08 0.07 0.06 0.05 0.06 0.09 0.10 0.11 0.13 0.16 0.17 0.20 0.25 0.26 0.26 0.31 0.39 0.44 0.33 0.28 0.26 0.20 0.21 0.27 0.21 0.21 0.28 0.53 0.69 0.32
0.04 0.05 0.11 0.11 0.08 0.08 0.08 0.10 0.11 0.11 0.12 0.11 0.10 0.08 0.06 0.05 0.04 0.05 0.05 0.05 0.05 0.08 0.13 0.16 0.20 0.25 0.27 0.27 0.34 0.41 0.41 0.36 0.35 0.35 0.30 0.27 0.25 0.19 0.15 0.19 0.44 0.59 0.35
0.03 0.05 0.08 0.12 0.10 0.10 0.11 0.12 0.13 0.16 0.16 0.12 0.10 0.10 0.08 0.06 0.05 0.05 0.04 0.03 0.03 0.05 0.08 0.12 0.19 0.24 0.29 0.35 0.37 0.38 0.35 0.37 0.39 0.42 0.56 0.77 0.42 0.25 0.23 0.19 0.29 0.32 0.31
0.04 0.05 0.11 0.18 0.18 0.19 0.18 0.18 0.19 0.21 0.21 0.17 0.13 0.12 0.09 0.07 0.06 0.07 0.05 0.03 0.03 0.05 0.07 0.09 0.13 0.20 0.27 0.34 0.38 0.36 0.32 0.36 0.39 0.40 0.55 0.78 0.68 0.38 0.35 0.33 0.37 0.30 0.30
0.05 0.08 0.18 0.24 0.25 0.29 0.27 0.27 0.26 0.25 0.24 0.20 0.16 0.15 0.12 0.11 0.07 0.05 0.04 0.05 0.04 0.04 0.05 0.08 0.11 0.17 0.24 0.26 0.26 0.28 0.29 0.38 0.47 0.35 0.40 0.58 0.78 0.51 0.37 0.43 0.44 0.37 0.32
0.11 0.15 0.25 0.28 0.29 0.35 0.35 0.35 0.38 0.32 0.28 0.23 0.19 0.17 0.16 0.13 0.08 0.06 0.07 0.10 0.06 0.04 0.04 0.06 0.11 0.17 0.22 0.25 0.25 0.27 0.36 0.43 0.39 0.42 0.44 0.61 0.82 0.56 0.43 0.46 0.42 0.50 0.42
0.29 0.27 0.28 0.32 0.36 0.43 0.42 0.39 0.46 0.44 0.42 0.32 0.23 0.20 0.19 0.15 0.10 0.09 0.12 0.13 0.10 0.06 0.03 0.04 0.07 0.11 0.16 0.22 0.23 0.27 0.37 0.37 0.48 0.53 0.47 0.60 0.57 0.49 0.45 0.44 0.47 0.60 0.57
0.52 0.44 0.37 0.40 0.46 0.51 0.50 0.54 0.65 0.64 0.55 0.40 0.28 0.28 0.25 0.21 0.16 0.12 0.13 0.12 0.12 0.10 0.05 0.03 0.04 0.06 0.08 0.15 0.17 0.24 0.36 0.42 0.47 0.44 0.33 0.43 0.48 0.43 0.37 0.41 0.47 0.60 0.65
0.82 0.68 0.54 0.53 0.57 0.65 0.70 0.73 0.84 0.87 0.77 0.58 0.40 0.38 0.34 0.27 0.21 0.16 0.14 0.12 0.10 0.08 0.05 0.04 0.03 0.03 0.05 0.08 0.12 0.21 0.33 0.36 0.41 0.38 0.23 0.28 0.40 0.29 0.24 0.29 0.38 0.50 0.59
0.90 0.85 0.78 0.73 0.73 0.80 0.85 0.96 1.05 1.14 1.21 0.95 0.63 0.52 0.46 0.34 0.25 0.22 0.18 0.16 0.14 0.12 0.08 0.05 0.03 0.02 0.05 0.07 0.10 0.15 0.20 0.23 0.34 0.27 0.23 0.24 0.32 0.22 0.16 0.19 0.28 0.30 0.37
0.66 0.71 0.76 0.80 0.85 0.86 0.82 0.87 1.08 1.25 1.40 1.13 0.75 0.73 0.62 0.43 0.41 0.39 0.29 0.28 0.25 0.23 0.17 0.11 0.06 0.03 0.03 0.06 0.08 0.10 0.10 0.13 0.25 0.24 0.21 0.19 0.21 0.13 0.09 0.08 0.10 0.14 0.19
0.53 0.51 0.54 0.56 0.66 0.73 0.72 0.92 1.18 1.22 1.34 1.08 0.89 0.92 0.86 0.89 0.80 0.56 0.49 0.48 0.43 0.38 0.28 0.21 0.16 0.08 0.04 0.03 0.06 0.05 0.05 0.09 0.15 0.16 0.13 0.16 0.16 0.08 0.03 0.02 0.02 0.04 0.06
0.42 0.40 0.39 0.41 0.44 0.53 0.74 0.98 1.20 1.25 1.28 1.32 1.34 1.19 1.14 1.09 0.88 0.68 0.62 0.59 0.53 0.49 0.42 0.40 0.33 0.21 0.13 0.06 0.08 0.05 0.03 0.07 0.12 0.11 0.11 0.13 0.17 0.10 0.04 0.02 0.01 0.02 0.03
0.46 0.44 0.38 0.30 0.31 0.39 0.53 0.75 1.03 1.10 1.16 1.23 1.22 1.01 1.08 1.07 0.87 0.78 0.82 0.83 0.73 0.64 0.68 0.66 0.56 0.43 0.28 0.14 0.11 0.06 0.05 0.05 0.08 0.08 0.15 0.11 0.15 0.12 0.08 0.04 0.02 0.02 0.03
0.53 0.61 0.59 0.43 0.37 0.39 0.45 0.50 0.64 0.74 0.85 1.12 1.19 0.92 0.90 0.89 0.92 0.93 0.79 0.88 0.88 0.84 0.79 0.71 0.60 0.48 0.40 0.25 0.21 0.12 0.06 0.05 0.06 0.08 0.13 0.09 0.10 0.13 0.11 0.07 0.05 0.03 0.03
0.36 0.49 0.57 0.55 0.54 0.52 0.45 0.40 0.40 0.46 0.58 0.72 0.73 0.69 0.72 0.74 0.82 0.96 0.85 0.80 0.82 0.97 0.99 0.84 0.69 0.62 0.53 0.35 0.26 0.17 0.08 0.04 0.05 0.06 0.10 0.08 0.05 0.06 0.09 0.08 0.07 0.06 0.06
0.26 0.32 0.42 0.50 0.56 0.58 0.59 0.58 0.47 0.46 0.51 0.52 0.52 0.59 0.66 0.66 0.78 0.93 0.85 0.70 0.66 0.79 0.91 0.97 0.89 0.74 0.60 0.47 0.33 0.21 0.11 0.04 0.03 0.05 0.05 0.09 0.09 0.04 0.06 0.09 0.10 0.09 0.10
0.25 0.25 0.31 0.36 0.43 0.53 0.62 0.68 0.66 0.61 0.55 0.50 0.46 0.43 0.47 0.49 0.56 0.73 0.77 0.66 0.63 0.77 0.92 1.01 1.01 0.94 0.72 0.57 0.45 0.28 0.16 0.10 0.05 0.05 0.05 0.05 0.07 0.08 0.08 0.08 0.13 0.14 0.15
0.24 0.23 0.24 0.28 0.32 0.40 0.51 0.57 0.58 0.57 0.52 0.50 0.49 0.39 0.37 0.39 0.48 0.66 0.79 0.79 0.79 0.85 0.93 0.96 1.04 1.02 0.93 0.74 0.57 0.37 0.23 0.16 0.09 0.05 0.05 0.05 0.05 0.05 0.10 0.09 0.07 0.09 0.14
0.24 0.24 0.24 0.26 0.27 0.31 0.35 0.43 0.48 0.45 0.44 0.49 0.47 0.46 0.49 0.55 0.60 0.75 0.92 1.00 1.09 1.07 1.07 1.19 1.37 1.27 1.04 0.92 0.78 0.52 0.31 0.21 0.13 0.08 0.06 0.06 0.06 0.07 0.07 0.05 0.05 0.04 0.05
0.18 0.17 0.19 0.24 0.26 0.25 0.24 0.29 0.34 0.35 0.44 0.51 0.58 0.63 0.66 0.70 0.76 0.92 1.09 1.30 1.39 1.23 1.20 1.35 1.54 1.59 1.33 1.10 1.00 0.79 0.55 0.33 0.20 0.14 0.10 0.09 0.08 0.09 0.10 0.10 0.07 0.08 0.10
0.05 0.09 0.13 0.15 0.17 0.17 0.18 0.23 0.32 0.39 0.45 0.57 0.73 0.84 0.85 0.83 0.88 0.92 1.08 1.23 1.28 1.27 1.27 1.31 1.45 1.64 1.52 1.29 1.24 1.34 1.06 0.74 0.38 0.19 0.15 0.12 0.11 0.09 0.11 0.13 0.11 0.09 0.09
0.02 0.03 0.06 0.11 0.14 0.14 0.22 0.41 0.68 0.92 1.00 1.02 1.04 1.18 1.27 1.23 1.17 1.14 1.15 1.27 1.32 1.39 1.34 1.30 1.32 1.47 1.50 1.39 1.35 1.59 1.31 1.02 0.85 0.47 0.27 0.26 0.23 0.20 0.16 0.15 0.15 0.14 0.09
0.03 0.03 0.04 0.09 0.15 0.18 0.35 0.68 1.07 1.39 1.48 1.49 1.61 1.65 1.71 1.63 1.49 1.45 1.45 1.52 1.44 1.38 1.29 1.26 1.25 1.33 1.52 1.49 1.42 1.32 1.21 1.06 1.14 0.92 0.55 0.38 0.37 0.34 0.31 0.26 0.22 0.18 0.17
0.10 0.11 0.13 0.20 0.34 0.50 0.65 0.83 1.13 1.32 1.44 1.58 1.73 1.88 1.99 2.11 2.08 1.99 1.91 1.75 1.53 1.42 1.38 1.40 1.37 1.38 1.44 1.43 1.38 1.31 1.28 1.18 0.95 0.91 0.87 0.65 0.49 0.41 0.38 0.37 0.36 0.26 0.24
0.24 0.27 0.31 0.41 0.51 0.58 0.70 0.84 0.98 1.07 1.23 1.43 1.58 1.75 1.88 2.00 2.03 1.97 1.84 1.61 1.41 1.32 1.36 1.44 1.43 1.43 1.42 1.42 1.35 1.21 1.15 1.09 0.96 0.98 0.88 0.87 0.86 0.57 0.45 0.40 0.39 0.36 0.31

GEFSSE_prec_meanprecacc_066.txt.gz
Total_Precipitation_Accumulation
0.25 0.13 0.19 0.17 0.16 0.13 0.11 0.11 0.13 0.15 0.14 0.13 0.11 0.09 0.07 0.06 0.05 0.06 0.09 0.10 0.11 0.13 0.17 0.17 0.20 0.25 0.26 0.26 0.31 0.39 0.44 0.33 0.28 0.27 0.21 0.22 0.27 0.22 0.22 0.31 0.58 0.73 0.36
0.14 0.11 0.19 0.17 0.12 0.10 0.09 0.11 0.12 0.12 0.13 0.12 0.11 0.09 0.06 0.05 0.05 0.05 0.05 0.05 0.05 0.08 0.13 0.16 0.20 0.25 0.27 0.27 0.34 0.41 0.41 0.36 0.35 0.36 0.32 0.30 0.28 0.23 0.20 0.24 0.51 0.65 0.40
0.13 0.11 0.13 0.17 0.13 0.11 0.11 0.13 0.14 0.17 0.17 0.13 0.11 0.11 0.08 0.06 0.06 0.05 0.04 0.03 0.03 0.06 0.08 0.12 0.19 0.24 0.29 0.35 0.37 0.38 0.36 0.38 0.41 0.45 0.60 0.81 0.47 0.31 0.28 0.24 0.34 0.37 0.35
0.17 0.13 0.16 0.23 0.21 0.21 0.18 0.19 0.19 0.21 0.22 0.17 0.13 0.13 0.09 0.07 0.06 0.07 0.05 0.04 0.03 0.05 0.07 0.10 0.13 0.20 0.27 0.35 0.38 0.36 0.33 0.37 0.42 0.44 0.60 0.83 0.73 0.45 0.41 0.38 0.41 0.31 0.31
0.16 0.16 0.25 0.30 0.27 0.30 0.28 0.27 0.27 0.25 0.24 0.20 0.16 0.15 0.13 0.11 0.07 0.06 0.05 0.05 0.04 0.05 0.05 0.08 0.11 0.17 0.24 0.26 0.26 0.28 0.30 0.40 0.50 0.39 0.46 0.63 0.82 0.60 0.45 0.49 0.49 0.40 0.34
0.21 0.20 0.30 0.34 0.32 0.37 0.37 0.36 0.39 0.32 0.28 0.23 0.19 0.17 0.17 0.13 0.09 0.07 0.08 0.10 0.07 0.04 0.05 0.07 0.11 0.17 0.22 0.25 0.25 0.27 0.36 0.45 0.42 0.45 0.48 0.66 0.86 0.64 0.50 0.52 0.48 0.54 0.44
0.36 0.32 0.32 0.37 0.40 0.45 0.44 0.40 0.48 0.46 0.43 0.33 0.25 0.21 0.20 0.16 0.12 0.11 0.14 0.14 0.11 0.07 0.04 0.04 0.07 0.11 0.16 0.22 0.23 0.27 0.37 0.40 0.50 0.57 0.53 0.64 0.63 0.59 0.52 0.48 0.52 0.65 0.60
0.55 0.45 0.38 0.42 0.49 0.53 0.52 0.56 0.68 0.67 0.58 0.43 0.30 0.30 0.27 0.25 0.20 0.16 0.16 0.14 0.14 0.12 0.07 0.05 0.05 0.06 0.09 0.15 0.18 0.25 0.37 0.44 0.49 0.50 0.39 0.48 0.61 0.60 0.45 0.45 0.51 0.64 0.69
0.83 0.69 0.55 0.53 0.58 0.67 0.72 0.76 0.87 0.90 0.81 0.62 0.44 0.42 0.39 0.32 0.26 0.22 0.20 0.18 0.14 0.11 0.08 0.06 0.04 0.03 0.05 0.08 0.13 0.21 0.34 0.40 0.44 0.43 0.30 0.39 0.58 0.45 0.32 0.33 0.43 0.55 0.63
0.90 0.85 0.78 0.73 0.73 0.80 0.86 0.98 1.08 1.17 1.26 1.01 0.70 0.59 0.51 0.40 0.32 0.30 0.27 0.24 0.21 0.19 0.14 0.09 0.06 0.04 0.05 0.07 0.10 0.15 0.22 0.25 0.36 0.32 0.32 0.36 0.48 0.37 0.24 0.24 0.32 0.33 0.39
0.66 0.71 0.77 0.80 0.86 0.86 0.82 0.88 1.10 1.27 1.43 1.17 0.80 0.79 0.69 0.47 0.45 0.45 0.39 0.41 0.39 0.37 0.28 0.19 0.11 0.07 0.06 0.07 0.09 0.11 0.12 0.14 0.26 0.29 0.29 0.31 0.39 0.29 0.16 0.13 0.12 0.17 0.20
0.54 0.51 0.54 0.57 0.66 0.73 0.72 0.93 1.18 1.22 1.34 1.09 0.91 0.94 0.89 0.92 0.84 0.61 0.56 0.64 0.64 0.60 0.45 0.32 0.25 0.15 0.08 0.05 0.08 0.08 0.06 0.10 0.18 0.22 0.20 0.27 0.31 0.23 0.11 0.04 0.03 0.05 0.06
0.42 0.40 0.39 0.41 0.44 0.53 0.74 0.98 1.20 1.25 1.29 1.33 1.36 1.21 1.18 1.13 0.93 0.72 0.66 0.66 0.64 0.64 0.55 0.51 0.44 0.28 0.19 0.11 0.11 0.09 0.07 0.09 0.16 0.16 0.19 0.24 0.31 0.24 0.14 0.05 0.02 0.03 0.03
0.46 0.44 0.38 0.30 0.31 0.39 0.53 0.75 1.03 1.10 1.16 1.23 1.23 1.03 1.11 1.11 0.91 0.82 0.87 0.88 0.79 0.71 0.78 0.75 0.66 0.54 0.37 0.22 0.21 0.19 0.16 0.11 0.14 0.17 0.25 0.22 0.27 0.26 0.18 0.08 0.03 0.02 0.03
0.53 0.61 0.59 0.43 0.37 0.39 0.45 0.50 0.64 0.74 0.85 1.12 1.20 0.93 0.91 0.92 0.95 0.95 0.83 0.94 0.97 0.93 0.87 0.79 0.69 0.58 0.51 0.36 0.35 0.32 0.26 0.19 0.16 0.18 0.23 0.18 0.19 0.23 0.21 0.12 0.07 0.04 0.03
0.36 0.49 0.57 0.55 0.54 0.52 0.45 0.40 0.40 0.46 0.58 0.72 0.74 0.70 0.73 0.76 0.84 0.98 0.88 0.85 0.90 1.06 1.08 0.95 0.80 0.72 0.63 0.46 0.38 0.34 0.28 0.24 0.19 0.22 0.25 0.18 0.11 0.12 0.16 0.14 0.10 0.07 0.06
0.26 0.32 0.42 0.50 0.56 0.58 0.59 0.58 0.47 0.47 0.51 0.52 0.53 0.59 0.67 0.66 0.79 0.93 0.86 0.73 0.70 0.85 1.00 1.07 1.00 0.86 0.69 0.56 0.45 0.38 0.26 0.22 0.22 0.25 0.24 0.20 0.14 0.08 0.11 0.15 0.14 0.11 0.11
0.25 0.25 0.31 0.36 0.43 0.53 0.62 0.69 0.66 0.61 0.56 0.50 0.46 0.44 0.48 0.49 0.57 0.75 0.78 0.67 0.65 0.81 0.98 1.09 1.11 1.03 0.81 0.67 0.57 0.47 0.37 0.26 0.20 0.22 0.21 0.20 0.18 0.13 0.11 0.12 0.16 0.16 0.16
0.24 0.23 0.24 0.28 0.32 0.40 0.51 0.58 0.58 0.57 0.53 0.51 0.50 0.39 0.37 0.39 0.49 0.68 0.81 0.80 0.81 0.88 0.97 1.03 1.14 1.11 1.01 0.81 0.65 0.49 0.38 0.33 0.24 0.19 0.18 0.19 0.20 0.14 0.13 0.11 0.10 0.11 0.16
0.24 0.24 0.24 0.26 0.27 0.31 0.35 0.43 0.48 0.45 0.44 0.50 0.48 0.47 0.50 0.56 0.60 0.76 0.93 1.02 1.10 1.09 1.10 1.24 1.46 1.38 1.13 0.99 0.87 0.60 0.39 0.31 0.25 0.22 0.17 0.16 0.17 0.20 0.17 0.10 0.07 0.05 0.07
0.18 0.17 0.19 0.24 0.26 0.25 0.24 0.29 0.34 0.35 0.44 0.51 0.58 0.63 0.67 0.70 0.76 0.92 1.10 1.31 1.40 1.24 1.22 1.39 1.60 1.67 1.42 1.21 1.12 0.87 0.62 0.40 0.29 0.26 0.23 0.19 0.18 0.20 0.24 0.23 0.13 0.11 0.11
0.05 0.09 0.13 0.15 0.17 0.17 0.18 0.23 0.32 0.39 0.45 0.58 0.74 0.85 0.86 0.83 0.88 0.92 1.09 1.25 1.30 1.28 1.28 1.32 1.48 1.69 1.58 1.39 1.35 1.46 1.15 0.82 0.43 0.27 0.27 0.24 0.20 0.21 0.23 0.25 0.25 0.16 0.12
0.02 0.03 0.06 0.11 0.14 0.14 0.22 0.41 0.68 0.92 1.01 1.02 1.04 1.19 1.28 1.24 1.18 1.14 1.16 1.28 1.34 1.40 1.34 1.31 1.33 1.49 1.54 1.47 1.47 1.75 1.46 1.13 0.96 0.55 0.33 0.33 0.32 0.32 0.28 0.30 0.32 0.29 0.20
0.03 0.03 0.04 0.09 0.15 0.18 0.35 0.68 1.07 1.39 1.48 1.49 1.61 1.65 1.71 1.63 1.49 1.46 1.46 1.53 1.45 1.38 1.29 1.26 1.26 1.35 1.55 1.54 1.49 1.43 1.32 1.18 1.26 1.00 0.61 0.44 0.46 0.43 0.41 0.38 0.37 0.37 0.36
0.10 0.11 0.13 0.20 0.34 0.50 0.65 0.83 1.13 1.32 1.44 1.58 1.74 1.88 1.99 2.11 2.08 1.99 1.92 1.75 1.54 1.43 1.38 1.41 1.37 1.40 1.46 1.46 1.42 1.37 1.36 1.26 1.02 0.95 0.91 0.71 0.56 0.48 0.48 0.48 0.49 0.44 0.43
0.24 0.27 0.31 0.41 0.51 0.58 0.70 0.84 0.98 1.07 1.23 1.43 1.58 1.75 1.88 2.00 2.03 1.97 1.84 1.61 1.42 1.33 1.36 1.45 1.43 1.44 1.43 1.44 1.38 1.25 1.20 1.15 1.02 1.03 0.91 0.90 0.90 0.61 0.49 0.45 0.48 0.47 0.44

GEFSSE_prec_meanprecacc_072.txt.gz
Total_Precipitation_Accumulation
0.27 0.18 0.30 0.28 0.24 0.17 0.13 0.13 0.15 0.16 0.14 0.13 0.11 0.09 0.07 0.06 0.05 0.06 0.09 0.10 0.11 0.13 0.17 0.17 0.20 0.25 0.26 0.26 0.32 0.39 0.44 0.33 0.29 0.28 0.21 0.22 0.28 0.24 0.26 0.35 0.61 0.75 0.39
0.17 0.16 0.29 0.28 0.21 0.15 0.12 0.13 0.13 0.13 0.14 0.12 0.11 0.10 0.07 0.06 0.05 0.05 0.05 0.05 0.05 0.08 0.13 0.16 0.20 0.25 0.27 0.27 0.34 0.42 0.41 0.36 0.36 0.38 0.34 0.31 0.29 0.25 0.24 0.28 0.54 0.69 0.45
0.20 0.19 0.23 0.30 0.25 0.21 0.17 0.16 0.16 0.18 0.18 0.13 0.12 0.12 0.09 0.07 0.06 0.06 0.04 0.03 0.03 0.06 0.08 0.13 0.19 0.24 0.29 0.36 0.38 0.39 0.36 0.38 0.41 0.47 0.63 0.82 0.47 0.32 0.31 0.29 0.39 0.44 0.40
0.27 0.25 0.28 0.39 0.36 0.33 0.27 0.24 0.23 0.25 0.24 0.19 0.15 0.14 0.11 0.08 0.07 0.08 0.05 0.04 0.03 0.05 0.07 0.10 0.13 0.20 0.27 0.35 0.39 0.37 0.33 0.38 0.42 0.46 0.61 0.84 0.74 0.48 0.45 0.44 0.49 0.37 0.35
0.28 0.29 0.41 0.51 0.46 0.45 0.39 0.35 0.34 0.31 0.29 0.25 0.21 0.19 0.16 0.14 0.10 0.08 0.07 0.06 0.05 0.05 0.06 0.08 0.11 0.18 0.24 0.26 0.27 0.28 0.30 0.41 0.51 0.40 0.46 0.64 0.83 0.64 0.50 0.57 0.60 0.49 0.39
0.31 0.32 0.45 0.52 0.49 0.51 0.49 0.48 0.50 0.42 0.38 0.32 0.27 0.25 0.24 0.20 0.14 0.12 0.12 0.14 0.09 0.06 0.05 0.08 0.12 0.18 0.22 0.25 0.25 0.27 0.37 0.46 0.43 0.46 0.49 0.66 0.87 0.70 0.59 0.61 0.60 0.66 0.52
0.43 0.38 0.39 0.46 0.50 0.56 0.54 0.51 0.58 0.56 0.54 0.43 0.35 0.31 0.29 0.25 0.21 0.19 0.21 0.21 0.17 0.12 0.08 0.07 0.09 0.13 0.17 0.23 0.23 0.27 0.39 0.41 0.51 0.58 0.54 0.65 0.64 0.68 0.62 0.58 0.63 0.76 0.68
0.57 0.47 0.40 0.45 0.53 0.58 0.59 0.64 0.76 0.76 0.68 0.54 0.42 0.41 0.38 0.36 0.31 0.28 0.28 0.25 0.25 0.22 0.16 0.11 0.08 0.09 0.10 0.16 0.18 0.25 0.39 0.47 0.51 0.52 0.41 0.50 0.66 0.70 0.53 0.54 0.62 0.76 0.79
0.85 0.71 0.56 0.54 0.59 0.69 0.76 0.80 0.92 0.96 0.88 0.69 0.54 0.52 0.49 0.43 0.38 0.34 0.33 0.31 0.28 0.25 0.19 0.14 0.11 0.09 0.08 0.10 0.14 0.22 0.37 0.43 0.47 0.45 0.32 0.42 0.64 0.56 0.41 0.40 0.51 0.66 0.73
0.91 0.86 0.79 0.74 0.74 0.82 0.88 1.00 1.10 1.20 1.30 1.05 0.75 0.66 0.61 0.50 0.42 0.40 0.38 0.38 0.36 0.35 0.30 0.23 0.19 0.15 0.14 0.12 0.14 0.18 0.24 0.28 0.37 0.33 0.35 0.40 0.55 0.50 0.35 0.31 0.39 0.40 0.47
0.67 0.71 0.77 0.80 0.86 0.86 0.82 0.88 1.10 1.28 1.46 1.19 0.82 0.83 0.74 0.52 0.50 0.51 0.47 0.54 0.55 0.55 0.49 0.39 0.29 0.24 0.21 0.18 0.19 0.18 0.15 0.15 0.27 0.30 0.31 0.35 0.50 0.45 0.28 0.20 0.18 0.23 0.26
0.54 0.51 0.54 0.57 0.66 0.73 0.72 0.93 1.18 1.22 1.34 1.09 0.91 0.95 0.90 0.94 0.87 0.67 0.62 0.74 0.79 0.79 0.69 0.58 0.47 0.34 0.25 0.17 0.17 0.16 0.09 0.11 0.18 0.22 0.20 0.32 0.45 0.40 0.23 0.12 0.10 0.12 0.12
0.42 0.40 0.39 0.41 0.44 0.53 0.74 0.98 1.20 1.25 1.29 1.33 1.36 1.22 1.19 1.14 0.94 0.76 0.70 0.72 0.73 0.77 0.67 0.68 0.62 0.44 0.32 0.21 0.18 0.13 0.08 0.10 0.17 0.17 0.19 0.29 0.44 0.40 0.26 0.13 0.07 0.08 0.08
0.46 0.44 0.38 0.30 0.31 0.39 0.53 0.75 1.03 1.10 1.16 1.23 1.23 1.03 1.11 1.11 0.93 0.86 0.92 0.93 0.85 0.78 0.85 0.86 0.77 0.65 0.47 0.30 0.27 0.24 0.18 0.12 0.15 0.18 0.26 0.26 0.39 0.41 0.32 0.18 0.08 0.06 0.07
0.53 0.61 0.59 0.43 0.37 0.39 0.45 0.50 0.64 0.74 0.85 1.12 1.20 0.93 0.91 0.92 0.96 0.98 0.88 1.00 1.03 0.99 0.94 0.89 0.78 0.68 0.60 0.43 0.42 0.38 0.30 0.21 0.17 0.19 0.24 0.20 0.27 0.36 0.37 0.26 0.15 0.08 0.07
0.36 0.49 0.57 0.55 0.54 0.52 0.45 0.40 0.40 0.46 0.58 0.73 0.75 0.70 0.74 0.76 0.85 0.99 0.91 0.88 0.95 1.12 1.13 1.00 0.87 0.79 0.70 0.52 0.44 0.39 0.33 0.28 0.23 0.24 0.28 0.22 0.16 0.20 0.27 0.27 0.21 0.13 0.10
0.26 0.32 0.42 0.50 0.56 0.58 0.59 0.58 0.48 0.47 0.52 0.54 0.54 0.60 0.67 0.66 0.79 0.94 0.87 0.75 0.73 0.89 1.04 1.12 1.07 0.93 0.77 0.61 0.50 0.43 0.32 0.28 0.26 0.30 0.30 0.26 0.19 0.13 0.17 0.23 0.23 0.18 0.16
0.25 0.25 0.31 0.36 0.43 0.53 0.62 0.69 0.66 0.62 0.57 0.51 0.46 0.44 0.48 0.49 0.57 0.75 0.79 0.68 0.67 0.83 1.01 1.13 1.16 1.10 0.89 0.76 0.66 0.55 0.44 0.32 0.26 0.29 0.27 0.26 0.23 0.16 0.16 0.19 0.22 0.23 0.22
0.24 0.23 0.24 0.28 0.32 0.40 0.51 0.58 0.58 0.57 0.53 0.51 0.50 0.40 0.38 0.39 0.49 0.68 0.81 0.82 0.82 0.89 0.98 1.05 1.17 1.15 1.06 0.87 0.73 0.57 0.46 0.39 0.29 0.26 0.25 0.26 0.27 0.21 0.19 0.16 0.16 0.17 0.22
0.24 0.24 0.24 0.26 0.27 0.31 0.35 0.43 0.48 0.45 0.44 0.50 0.49 0.47 0.50 0.56 0.60 0.76 0.93 1.03 1.12 1.11 1.12 1.26 1.48 1.42 1.17 1.03 0.92 0.65 0.45 0.37 0.30 0.30 0.25 0.22 0.24 0.26 0.24 0.16 0.11 0.08 0.13
0.18 0.17 0.19 0.24 0.26 0.25 0.24 0.29 0.34 0.35 0.44 0.51 0.58 0.63 0.68 0.71 0.77 0.93 1.11 1.31 1.41 1.26 1.23 1.40 1.62 1.71 1.45 1.24 1.15 0.92 0.67 0.44 0.33 0.33 0.32 0.25 0.24 0.26 0.30 0.32 0.20 0.14 0.14
0.05 0.09 0.13 0.15 0.17 0.17 0.18 0.23 0.32 0.39 0.45 0.58 0.74 0.85 0.86 0.84 0.88 0.92 1.09 1.25 1.30 1.29 1.28 1.33 1.49 1.71 1.61 1.42 1.39 1.51 1.20 0.87 0.48 0.31 0.34 0.31 0.27 0.27 0.28 0.30 0.32 0.24 0.17
0.02 0.03 0.06 0.11 0.14 0.14 0.22 0.41 0.68 0.92 1.01 1.02 1.04 1.19 1.28 1.24 1.18 1.15 1.16 1.28 1.34 1.41 1.35 1.31 1.34 1.51 1.57 1.49 1.49 1.79 1.51 1.18 1.02 0.60 0.39 0.41 0.40 0.38 0.35 0.35 0.36 0.34 0.27
0.03 0.03 0.04 0.09 0.15 0.18 0.35 0.68 1.07 1.39 1.48 1.49 1.61 1.65 1.71 1.63 1.49 1.46 1.46 1.53 1.45 1.38 1.29 1.26 1.26 1.36 1.56 1.55 1.51 1.45 1.35 1.22 1.32 1.06 0.65 0.49 0.52 0.48 0.46 0.43 0.41 0.41 0.41
0.10 0.11 0.13 0.20 0.34 0.50 0.65 0.83 1.13 1.32 1.44 1.58 1.74 1.88 1.99 2.11 2.08 1.99 1.92 1.75 1.54 1.43 1.38 1.41 1.37 1.40 1.47 1.47 1.43 1.38 1.37 1.28 1.05 0.99 0.94 0.74 0.59 0.51 0.51 0.51 0.52 0.48 0.48
0.24 0.27 0.31 0.41 0.51 0.58 0.70 0.84 0.98 1.07 1.23 1.43 1.58 1.75 1.88 2.00 2.03 1.97 1.84 1.61 1.42 1.33 1.37 1.45 1.44 1.44 1.43 1.44 1.38 1.26 1.21 1.16 1.04 1.05 0.93 0.92 0.91 0.64 0.51 0.48 0.50 0.50 0.48

GEFSSE_prec_meanprecacc_078.txt.gz
Total_Precipitation_Accumulation
0.31 0.20 0.36 0.37 0.33 0.27 0.22 0.22 0.24 0.25 0.21 0.18 0.15 0.11 0.08 0.08 0.07 0.07 0.10 0.10 0.11 0.13 0.17 0.18 0.20 0.25 0.26 0.26 0.32 0.40 0.46 0.35 0.31 0.28 0.22 0.23 0.28 0.25 0.27 0.37 0.64 0.81 0.42
0.20 0.19 0.38 0.39 0.33 0.28 0.22 0.22 0.23 0.23 0.22 0.19 0.17 0.15 0.10 0.09 0.08 0.08 0.08 0.06 0.06 0.08 0.13 0.16 0.20 0.25 0.27 0.28 0.35 0.42 0.42 0.39 0.39 0.40 0.35 0.32 0.30 0.26 0.26 0.30 0.57 0.77 0.48
0.25 0.24 0.32 0.41 0.38 0.35 0.30 0.27 0.25 0.28 0.26 0.20 0.19 0.18 0.15 0.12 0.11 0.10 0.08 0.06 0.05 0.07 0.09 0.13 0.19 0.25 0.30 0.37 0.38 0.39 0.37 0.39 0.43 0.51 0.66 0.85 0.50 0.33 0.32 0.30 0.41 0.48 0.43
0.32 0.30 0.35 0.49 0.48 0.46 0.40 0.37 0.36 0.35 0.32 0.26 0.21 0.20 0.17 0.14 0.13 0.14 0.11 0.08 0.07 0.08 0.11 0.12 0.15 0.22 0.28 0.36 0.40 0.38 0.35 0.39 0.44 0.49 0.64 0.87 0.77 0.49 0.46 0.47 0.52 0.41 0.39
0.31 0.32 0.45 0.59 0.55 0.55 0.49 0.47 0.46 0.44 0.40 0.34 0.29 0.26 0.24 0.21 0.16 0.15 0.14 0.12 0.11 0.12 0.13 0.14 0.15 0.20 0.26 0.27 0.28 0.29 0.32 0.42 0.53 0.43 0.51 0.69 0.90 0.67 0.53 0.62 0.66 0.56 0.45
0.34 0.34 0.47 0.57 0.54 0.57 0.57 0.56 0.58 0.51 0.48 0.42 0.37 0.34 0.34 0.30 0.24 0.21 0.22 0.23 0.18 0.17 0.16 0.17 0.19 0.23 0.26 0.27 0.26 0.29 0.39 0.48 0.45 0.49 0.53 0.71 0.93 0.75 0.64 0.67 0.66 0.75 0.61
0.44 0.39 0.40 0.49 0.52 0.60 0.59 0.56 0.64 0.62 0.60 0.49 0.42 0.38 0.37 0.35 0.33 0.31 0.34 0.34 0.32 0.28 0.24 0.22 0.21 0.21 0.23 0.27 0.27 0.30 0.41 0.44 0.53 0.62 0.58 0.71 0.69 0.73 0.66 0.62 0.68 0.84 0.77
0.58 0.48 0.40 0.47 0.54 0.60 0.61 0.66 0.79 0.79 0.71 0.57 0.47 0.46 0.44 0.45 0.42 0.42 0.42 0.39 0.42 0.42 0.37 0.32 0.28 0.23 0.21 0.25 0.25 0.30 0.42 0.49 0.53 0.56 0.45 0.55 0.71 0.75 0.59 0.59 0.66 0.82 0.87
0.86 0.72 0.57 0.55 0.60 0.70 0.76 0.81 0.93 0.97 0.89 0.71 0.56 0.56 0.54 0.50 0.46 0.44 0.46 0.45 0.44 0.43 0.40 0.38 0.36 0.31 0.25 0.23 0.23 0.28 0.40 0.46 0.50 0.49 0.35 0.47 0.69 0.63 0.49 0.48 0.56 0.71 0.80
0.92 0.87 0.79 0.74 0.74 0.82 0.88 1.01 1.10 1.20 1.30 1.06 0.77 0.68 0.64 0.54 0.47 0.48 0.48 0.49 0.50 0.54 0.49 0.45 0.43 0.38 0.34 0.29 0.25 0.25 0.29 0.31 0.40 0.37 0.40 0.44 0.61 0.60 0.46 0.40 0.44 0.46 0.55
0.67 0.71 0.77 0.80 0.86 0.86 0.82 0.88 1.11 1.28 1.46 1.19 0.83 0.84 0.76 0.54 0.54 0.57 0.55 0.64 0.66 0.68 0.66 0.60 0.54 0.49 0.43 0.36 0.33 0.27 0.19 0.17 0.29 0.33 0.36 0.40 0.59 0.57 0.39 0.29 0.25 0.28 0.33
0.54 0.51 0.54 0.57 0.66 0.73 0.72 0.93 1.18 1.22 1.34 1.09 0.92 0.95 0.91 0.96 0.89 0.69 0.66 0.81 0.89 0.92 0.83 0.76 0.70 0.57 0.46 0.36 0.33 0.25 0.13 0.14 0.20 0.24 0.23 0.37 0.57 0.53 0.35 0.22 0.17 0.18 0.17
0.42 0.40 0.39 0.41 0.44 0.53 0.74 0.98 1.20 1.25 1.29 1.33 1.36 1.22 1.20 1.15 0.95 0.77 0.73 0.75 0.80 0.86 0.78 0.82 0.78 0.59 0.48 0.37 0.31 0.20 0.12 0.12 0.18 0.18 0.22 0.34 0.54 0.53 0.39 0.24 0.16 0.14 0.14
0.46 0.44 0.38 0.30 0.31 0.39 0.53 0.75 1.03 1.10 1.16 1.23 1.24 1.04 1.12 1.13 0.94 0.87 0.94 0.96 0.90 0.84 0.95 0.98 0.90 0.76 0.59 0.41 0.35 0.30 0.22 0.14 0.16 0.19 0.29 0.29 0.47 0.53 0.44 0.31 0.18 0.14 0.13
0.53 0.61 0.59 0.43 0.37 0.39 0.45 0.50 0.64 0.74 0.85 1.13 1.21 0.95 0.93 0.93 0.98 1.00 0.90 1.03 1.08 1.05 1.02 1.00 0.90 0.78 0.70 0.53 0.50 0.46 0.36 0.23 0.19 0.20 0.26 0.22 0.33 0.46 0.49 0.38 0.26 0.17 0.14
0.36 0.49 0.57 0.55 0.54 0.52 0.45 0.40 0.40 0.46 0.59 0.73 0.76 0.72 0.75 0.77 0.86 1.01 0.93 0.90 0.98 1.16 1.19 1.11 1.00 0.93 0.86 0.64 0.53 0.49 0.41 0.32 0.26 0.27 0.30 0.24 0.19 0.24 0.35 0.38 0.31 0.23 0.18
0.26 0.32 0.42 0.50 0.56 0.58 0.59 0.58 0.48 0.47 0.53 0.55 0.55 0.61 0.69 0.68 0.80 0.96 0.89 0.78 0.75 0.92 1.09 1.19 1.17 1.07 0.91 0.74 0.61 0.54 0.43 0.36 0.32 0.36 0.34 0.30 0.23 0.16 0.22 0.31 0.31 0.26 0.23
0.25 0.25 0.31 0.36 0.43 0.53 0.62 0.69 0.66 0.62 0.57 0.51 0.47 0.45 0.49 0.51 0.58 0.77 0.81 0.71 0.70 0.87 1.06 1.19 1.24 1.21 1.04 0.91 0.82 0.69 0.55 0.42 0.34 0.34 0.31 0.29 0.27 0.22 0.23 0.25 0.27 0.28 0.28
0.24 0.23 0.24 0.28 0.32 0.40 0.51 0.58 0.58 0.57 0.53 0.51 0.51 0.40 0.38 0.40 0.51 0.70 0.83 0.84 0.85 0.93 1.03 1.09 1.22 1.21 1.16 1.01 0.89 0.72 0.59 0.50 0.37 0.31 0.30 0.30 0.30 0.28 0.28 0.24 0.21 0.21 0.25
0.24 0.24 0.24 0.26 0.27 0.31 0.36 0.43 0.48 0.46 0.44 0.50 0.49 0.47 0.51 0.57 0.62 0.79 0.97 1.07 1.16 1.16 1.17 1.31 1.53 1.47 1.24 1.13 1.03 0.77 0.56 0.48 0.40 0.37 0.31 0.27 0.29 0.31 0.29 0.24 0.21 0.12 0.15
0.18 0.17 0.19 0.24 0.26 0.25 0.24 0.29 0.34 0.35 0.44 0.51 0.59 0.64 0.68 0.71 0.78 0.96 1.15 1.36 1.46 1.32 1.29 1.45 1.67 1.76 1.50 1.30 1.23 1.01 0.76 0.52 0.41 0.42 0.39 0.30 0.28 0.30 0.35 0.38 0.28 0.22 0.18
0.05 0.09 0.13 0.15 0.17 0.17 0.18 0.23 0.32 0.39 0.45 0.58 0.74 0.85 0.87 0.85 0.89 0.93 1.10 1.27 1.32 1.33 1.33 1.37 1.54 1.78 1.67 1.46 1.45 1.59 1.30 0.96 0.55 0.37 0.41 0.36 0.31 0.30 0.31 0.33 0.35 0.31 0.25
0.02 0.03 0.06 0.11 0.14 0.14 0.22 0.41 0.68 0.92 1.01 1.02 1.04 1.19 1.28 1.24 1.18 1.15 1.17 1.29 1.34 1.42 1.38 1.36 1.39 1.56 1.63 1.54 1.54 1.86 1.60 1.28 1.11 0.67 0.44 0.47 0.46 0.42 0.38 0.37 0.39 0.38 0.31
0.03 0.03 0.04 0.09 0.15 0.18 0.35 0.68 1.07 1.39 1.48 1.49 1.61 1.65 1.71 1.63 1.49 1.46 1.47 1.55 1.46 1.39 1.31 1.28 1.29 1.39 1.61 1.61 1.55 1.49 1.41 1.29 1.40 1.13 0.70 0.54 0.55 0.51 0.49 0.44 0.43 0.44 0.44
0.10 0.11 0.13 0.20 0.34 0.50 0.65 0.83 1.13 1.32 1.44 1.58 1.74 1.88 1.99 2.11 2.08 1.99 1.92 1.77 1.56 1.44 1.40 1.42 1.38 1.42 1.49 1.50 1.46 1.40 1.41 1.32 1.10 1.05 1.00 0.78 0.62 0.54 0.53 0.53 0.53 0.49 0.52
0.24 0.27 0.31 0.41 0.51 0.58 0.70 0.84 0.98 1.07 1.23 1.43 1.58 1.75 1.88 2.00 2.03 1.97 1.84 1.61 1.43 1.34 1.38 1.46 1.45 1.45 1.45 1.46 1.40 1.28 1.23 1.19 1.07 1.09 0.97 0.95 0.95 0.66 0.54 0.49 0.51 0.51 0.50

GEFSSE_prec_meanprecacc_084.txt.gz
Total_Precipitation_Accumulation
0.41 0.24 0.39 0.39 0.35 0.29 0.25 0.26 0.28 0.30 0.27 0.23 0.19 0.15 0.13 0.11 0.11 0.11 0.12 0.12 0.13 0.15 0.19 0.19 0.21 0.26 0.27 0.27 0.33 0.41 0.47 0.36 0.32 0.30 0.24 0.24 0.30 0.26 0.29 0.38 0.71 0.97 0.48
0.26 0.22 0.39 0.42 0.35 0.29 0.25 0.24 0.26 0.26 0.27 0.24 0.22 0.19 0.14 0.12 0.12 0.12 0.11 0.10 0.09 0.10 0.14 0.18 0.22 0.27 0.29 0.28 0.36 0.44 0.44 0.40 0.40 0.42 0.38 0.36 0.33 0.29 0.29 0.33 0.65 0.92 0.54
0.26 0.26 0.33 0.43 0.39 0.36 0.33 0.30 0.28 0.31 0.31 0.25 0.24 0.23 0.19 0.15 0.13 0.13 0.10 0.09 0.08 0.10 0.12 0.15 0.21 0.27 0.32 0.39 0.40 0.41 0.39 0.41 0.45 0.53 0.71 1.04 0.68 0.39 0.36 0.33 0.46 0.53 0.47
0.33 0.31 0.36 0.51 0.50 0.47 0.41 0.39 0.39 0.40 0.38 0.32 0.27 0.26 0.21 0.17 0.16 0.17 0.14 0.12 0.11 0.12 0.15 0.16 0.17 0.24 0.31 0.38 0.41 0.38 0.36 0.41 0.46 0.52 0.75 1.05 0.98 0.61 0.50 0.48 0.55 0.44 0.44
0.32 0.34 0.47 0.61 0.57 0.57 0.51 0.49 0.49 0.47 0.44 0.39 0.34 0.31 0.28 0.25 0.20 0.19 0.18 0.17 0.18 0.19 0.20 0.20 0.20 0.24 0.30 0.31 0.30 0.30 0.32 0.43 0.55 0.48 0.66 0.85 1.12 0.83 0.57 0.65 0.69 0.60 0.49
0.35 0.34 0.47 0.57 0.55 0.58 0.58 0.59 0.61 0.53 0.49 0.45 0.40 0.38 0.38 0.34 0.28 0.26 0.27 0.29 0.26 0.27 0.26 0.26 0.26 0.29 0.31 0.32 0.30 0.31 0.40 0.49 0.47 0.58 0.68 0.88 1.14 0.88 0.66 0.69 0.70 0.79 0.64
0.45 0.39 0.40 0.50 0.54 0.61 0.60 0.57 0.65 0.64 0.62 0.51 0.43 0.41 0.41 0.39 0.39 0.38 0.41 0.42 0.41 0.39 0.35 0.34 0.32 0.30 0.31 0.34 0.32 0.33 0.43 0.45 0.56 0.72 0.69 0.86 0.86 0.79 0.69 0.65 0.72 0.89 0.82
0.58 0.48 0.40 0.47 0.55 0.60 0.61 0.67 0.79 0.80 0.72 0.59 0.48 0.47 0.47 0.48 0.46 0.46 0.47 0.46 0.50 0.53 0.51 0.45 0.40 0.32 0.29 0.33 0.31 0.33 0.44 0.51 0.55 0.61 0.53 0.70 0.85 0.82 0.63 0.63 0.71 0.88 0.93
0.86 0.72 0.57 0.55 0.60 0.70 0.77 0.81 0.93 0.97 0.90 0.72 0.57 0.57 0.57 0.52 0.48 0.46 0.50 0.51 0.51 0.53 0.53 0.50 0.47 0.41 0.34 0.32 0.31 0.33 0.43 0.47 0.52 0.54 0.41 0.62 0.83 0.71 0.54 0.52 0.61 0.76 0.85
0.92 0.87 0.79 0.74 0.74 0.82 0.88 1.01 1.10 1.20 1.30 1.06 0.77 0.69 0.64 0.54 0.48 0.49 0.51 0.53 0.55 0.62 0.59 0.56 0.54 0.48 0.44 0.38 0.31 0.30 0.32 0.32 0.41 0.39 0.46 0.56 0.71 0.67 0.51 0.44 0.49 0.51 0.60
0.67 0.71 0.77 0.80 0.86 0.86 0.82 0.88 1.11 1.28 1.46 1.20 0.83 0.84 0.76 0.55 0.55 0.59 0.58 0.68 0.73 0.77 0.75 0.71 0.69 0.65 0.59 0.47 0.40 0.34 0.23 0.19 0.32 0.38 0.43 0.49 0.64 0.61 0.42 0.33 0.29 0.34 0.39
0.54 0.51 0.54 0.57 0.66 0.73 0.72 0.93 1.18 1.22 1.34 1.09 0.92 0.95 0.92 0.96 0.90 0.70 0.68 0.84 0.94 0.98 0.92 0.87 0.86 0.75 0.62 0.46 0.44 0.33 0.17 0.15 0.24 0.28 0.29 0.43 0.60 0.56 0.38 0.26 0.22 0.25 0.25
0.42 0.40 0.39 0.41 0.44 0.53 0.74 0.98 1.20 1.25 1.29 1.33 1.36 1.22 1.20 1.15 0.96 0.78 0.75 0.79 0.85 0.92 0.86 0.94 0.92 0.76 0.64 0.50 0.44 0.29 0.17 0.16 0.22 0.22 0.31 0.41 0.58 0.55 0.42 0.29 0.21 0.21 0.21
0.46 0.44 0.38 0.30 0.31 0.39 0.53 0.75 1.03 1.10 1.16 1.24 1.24 1.04 1.12 1.13 0.94 0.88 0.96 0.99 0.96 0.93 1.04 1.08 1.03 0.94 0.77 0.56 0.49 0.41 0.30 0.18 0.20 0.24 0.37 0.34 0.50 0.56 0.46 0.36 0.24 0.21 0.20
0.53 0.61 0.59 0.43 0.37 0.39 0.45 0.50 0.64 0.74 0.85 1.13 1.21 0.95 0.93 0.94 0.98 1.01 0.92 1.05 1.11 1.10 1.10 1.08 0.98 0.91 0.86 0.70 0.66 0.59 0.48 0.31 0.25 0.26 0.34 0.28 0.35 0.49 0.52 0.42 0.31 0.24 0.21
0.36 0.49 0.57 0.55 0.54 0.52 0.45 0.40 0.40 0.46 0.59 0.74 0.76 0.72 0.75 0.77 0.87 1.03 0.96 0.94 1.01 1.20 1.25 1.18 1.06 1.03 0.98 0.78 0.69 0.66 0.57 0.45 0.39 0.36 0.38 0.32 0.22 0.26 0.38 0.41 0.36 0.29 0.23
0.26 0.32 0.42 0.50 0.56 0.58 0.59 0.58 0.48 0.47 0.54 0.56 0.56 0.61 0.69 0.69 0.81 0.97 0.92 0.82 0.80 0.95 1.13 1.24 1.24 1.14 1.00 0.86 0.74 0.68 0.58 0.52 0.48 0.47 0.42 0.39 0.30 0.18 0.23 0.32 0.34 0.30 0.29
0.25 0.25 0.31 0.36 0.43 0.53 0.62 0.69 0.66 0.62 0.58 0.52 0.49 0.47 0.50 0.51 0.59 0.78 0.85 0.75 0.75 0.90 1.10 1.23 1.30 1.28 1.13 1.03 0.97 0.83 0.70 0.58 0.49 0.49 0.41 0.40 0.38 0.31 0.28 0.26 0.29 0.30 0.31
0.24 0.23 0.24 0.28 0.32 0.40 0.51 0.58 0.58 0.57 0.54 0.52 0.52 0.41 0.39 0.41 0.52 0.71 0.88 0.90 0.90 0.98 1.08 1.14 1.28 1.29 1.26 1.13 1.02 0.86 0.73 0.64 0.47 0.40 0.40 0.41 0.42 0.39 0.38 0.29 0.23 0.22 0.27
0.24 0.24 0.24 0.26 0.27 0.31 0.36 0.43 0.48 0.46 0.44 0.50 0.49 0.47 0.51 0.57 0.64 0.82 1.02 1.11 1.22 1.23 1.24 1.37 1.60 1.54 1.32 1.22 1.13 0.89 0.66 0.59 0.51 0.48 0.41 0.37 0.42 0.41 0.38 0.38 0.28 0.16 0.16
0.18 0.17 0.19 0.24 0.26 0.25 0.24 0.29 0.34 0.35 0.44 0.51 0.59 0.64 0.68 0.71 0.79 0.99 1.19 1.41 1.53 1.40 1.36 1.51 1.73 1.83 1.57 1.38 1.32 1.12 0.87 0.63 0.52 0.52 0.49 0.40 0.41 0.41 0.44 0.50 0.40 0.33 0.25
0.05 0.09 0.13 0.15 0.17 0.17 0.18 0.23 0.32 0.39 0.45 0.58 0.74 0.85 0.87 0.85 0.89 0.94 1.14 1.33 1.39 1.42 1.41 1.46 1.61 1.85 1.74 1.54 1.54 1.70 1.42 1.07 0.65 0.46 0.50 0.46 0.45 0.42 0.42 0.42 0.43 0.43 0.37
0.02 0.03 0.06 0.11 0.14 0.14 0.22 0.41 0.68 0.92 1.01 1.02 1.04 1.19 1.28 1.24 1.18 1.15 1.18 1.32 1.39 1.49 1.46 1.45 1.48 1.64 1.71 1.63 1.62 1.95 1.72 1.42 1.25 0.79 0.55 0.55 0.59 0.57 0.49 0.49 0.51 0.50 0.41
0.03 0.03 0.04 0.09 0.15 0.18 0.35 0.68 1.07 1.39 1.48 1.49 1.61 1.65 1.71 1.63 1.49 1.47 1.47 1.56 1.48 1.43 1.37 1.36 1.38 1.48 1.72 1.71 1.64 1.57 1.49 1.41 1.54 1.28 0.81 0.62 0.64 0.60 0.57 0.52 0.54 0.57 0.54
0.10 0.11 0.13 0.20 0.34 0.50 0.65 0.83 1.13 1.32 1.44 1.58 1.74 1.88 1.99 2.11 2.08 1.99 1.92 1.77 1.58 1.47 1.43 1.47 1.45 1.49 1.57 1.59 1.55 1.48 1.48 1.40 1.18 1.18 1.12 0.88 0.71 0.60 0.59 0.58 0.59 0.60 0.63
0.24 0.27 0.31 0.41 0.51 0.58 0.70 0.84 0.98 1.07 1.23 1.43 1.58 1.75 1.88 2.00 2.03 1.97 1.84 1.61 1.43 1.36 1.40 1.49 1.50 1.50 1.49 1.50 1.46 1.35 1.31 1.26 1.14 1.17 1.06 1.05 1.04 0.73 0.59 0.53 0.55 0.56 0.57

GEFSSE_prec_meanprecacc_090.txt.gz
Total_Precipitation_Accumulation
0.50 0.28 0.45 0.43 0.38 0.31 0.25 0.26 0.29 0.31 0.27 0.23 0.20 0.16 0.14 0.13 0.11 0.11 0.13 0.12 0.13 0.15 0.19 0.20 0.22 0.26 0.27 0.27 0.33 0.42 0.48 0.37 0.33 0.32 0.26 0.26 0.31 0.28 0.31 0.41 0.75 1.01 0.51
0.30 0.24 0.44 0.45 0.36 0.30 0.25 0.25 0.26 0.27 0.27 0.25 0.23 0.20 0.15 0.13 0.13 0.12 0.11 0.10 0.09 0.10 0.15 0.18 0.22 0.27 0.29 0.29 0.36 0.44 0.45 0.41 0.41 0.44 0.40 0.39 0.36 0.32 0.33 0.37 0.70 0.95 0.59
0.27 0.27 0.36 0.47 0.42 0.37 0.33 0.30 0.29 0.32 0.31 0.25 0.25 0.24 0.19 0.15 0.14 0.14 0.11 0.09 0.09 0.11 0.13 0.16 0.22 0.27 0.33 0.39 0.40 0.42 0.40 0.43 0.47 0.55 0.74 1.07 0.72 0.44 0.41 0.38 0.50 0.56 0.50
0.34 0.32 0.37 0.54 0.53 0.49 0.42 0.39 0.39 0.40 0.38 0.32 0.28 0.26 0.22 0.18 0.16 0.17 0.15 0.13 0.12 0.13 0.17 0.18 0.19 0.25 0.32 0.39 0.41 0.39 0.36 0.42 0.48 0.55 0.78 1.09 1.02 0.70 0.58 0.54 0.59 0.47 0.46
0.32 0.34 0.48 0.63 0.58 0.57 0.51 0.49 0.49 0.47 0.44 0.39 0.34 0.31 0.28 0.25 0.20 0.20 0.19 0.19 0.20 0.21 0.22 0.22 0.22 0.26 0.31 0.32 0.31 0.30 0.32 0.44 0.57 0.50 0.68 0.89 1.16 0.92 0.66 0.70 0.73 0.62 0.51
0.36 0.35 0.48 0.59 0.56 0.59 0.58 0.59 0.61 0.53 0.49 0.45 0.40 0.38 0.38 0.34 0.29 0.27 0.28 0.31 0.29 0.30 0.29 0.28 0.29 0.32 0.33 0.33 0.30 0.31 0.40 0.50 0.49 0.60 0.70 0.91 1.18 0.96 0.75 0.76 0.75 0.82 0.66
0.46 0.39 0.41 0.50 0.54 0.61 0.60 0.57 0.65 0.64 0.62 0.51 0.44 0.41 0.41 0.40 0.40 0.39 0.42 0.44 0.45 0.43 0.40 0.38 0.36 0.34 0.33 0.35 0.32 0.34 0.43 0.46 0.57 0.73 0.71 0.90 0.91 0.89 0.77 0.72 0.79 0.95 0.86
0.59 0.48 0.41 0.47 0.55 0.60 0.61 0.67 0.79 0.80 0.72 0.59 0.48 0.48 0.47 0.49 0.48 0.48 0.49 0.48 0.54 0.58 0.56 0.49 0.45 0.37 0.33 0.35 0.33 0.35 0.46 0.52 0.56 0.63 0.56 0.74 0.92 0.93 0.72 0.69 0.76 0.93 0.98
0.86 0.72 0.57 0.55 0.60 0.70 0.77 0.81 0.93 0.97 0.90 0.72 0.57 0.57 0.57 0.53 0.48 0.47 0.52 0.53 0.55 0.57 0.57 0.54 0.52 0.46 0.40 0.37 0.34 0.36 0.46 0.50 0.55 0.55 0.45 0.67 0.92 0.81 0.63 0.59 0.65 0.80 0.90
0.92 0.87 0.79 0.74 0.74 0.82 0.88 1.01 1.11 1.21 1.31 1.06 0.78 0.69 0.64 0.54 0.49 0.50 0.52 0.55 0.58 0.65 0.62 0.59 0.58 0.53 0.51 0.44 0.37 0.35 0.38 0.37 0.43 0.42 0.49 0.60 0.82 0.79 0.59 0.51 0.53 0.53 0.63
0.67 0.72 0.77 0.80 0.86 0.86 0.82 0.88 1.11 1.29 1.46 1.20 0.83 0.84 0.76 0.55 0.55 0.60 0.59 0.70 0.74 0.79 0.78 0.75 0.74 0.71 0.65 0.54 0.47 0.40 0.29 0.22 0.35 0.42 0.48 0.57 0.77 0.74 0.51 0.39 0.33 0.37 0.41
0.54 0.51 0.54 0.57 0.66 0.73 0.72 0.93 1.18 1.22 1.34 1.09 0.92 0.95 0.92 0.96 0.90 0.70 0.69 0.86 0.96 1.00 0.94 0.91 0.91 0.82 0.69 0.51 0.48 0.39 0.20 0.19 0.29 0.36 0.38 0.56 0.77 0.71 0.48 0.31 0.25 0.27 0.27
0.42 0.40 0.39 0.41 0.44 0.53 0.74 0.98 1.20 1.25 1.29 1.33 1.36 1.22 1.20 1.15 0.96 0.78 0.75 0.80 0.86 0.93 0.88 0.96 0.95 0.78 0.67 0.53 0.47 0.32 0.20 0.21 0.31 0.33 0.41 0.56 0.73 0.67 0.51 0.36 0.25 0.23 0.23
0.46 0.44 0.38 0.30 0.31 0.39 0.53 0.75 1.03 1.10 1.16 1.24 1.24 1.04 1.13 1.13 0.95 0.88 0.97 1.00 0.96 0.94 1.05 1.08 1.03 0.96 0.79 0.60 0.53 0.47 0.36 0.27 0.33 0.36 0.49 0.47 0.63 0.67 0.55 0.42 0.29 0.23 0.22
0.53 0.61 0.59 0.43 0.37 0.39 0.45 0.50 0.64 0.74 0.85 1.13 1.21 0.95 0.93 0.95 0.99 1.01 0.93 1.06 1.12 1.11 1.10 1.08 0.98 0.92 0.89 0.76 0.73 0.67 0.57 0.42 0.40 0.41 0.51 0.41 0.46 0.60 0.61 0.48 0.36 0.28 0.24
0.36 0.49 0.57 0.55 0.54 0.52 0.45 0.40 0.40 0.46 0.59 0.74 0.76 0.72 0.75 0.78 0.87 1.04 0.97 0.95 1.02 1.20 1.25 1.18 1.07 1.06 1.02 0.84 0.78 0.81 0.69 0.58 0.54 0.51 0.56 0.44 0.30 0.33 0.45 0.48 0.41 0.34 0.27
0.26 0.32 0.42 0.50 0.56 0.58 0.59 0.58 0.48 0.47 0.54 0.56 0.56 0.62 0.69 0.69 0.82 0.98 0.92 0.82 0.81 0.97 1.14 1.24 1.25 1.17 1.03 0.90 0.80 0.80 0.70 0.64 0.61 0.67 0.60 0.51 0.37 0.24 0.28 0.38 0.40 0.36 0.34
0.25 0.25 0.31 0.36 0.43 0.53 0.62 0.69 0.66 0.62 0.58 0.52 0.49 0.47 0.50 0.52 0.60 0.79 0.85 0.76 0.75 0.92 1.11 1.25 1.32 1.31 1.15 1.07 1.01 0.89 0.78 0.68 0.61 0.66 0.62 0.57 0.52 0.38 0.34 0.31 0.33 0.35 0.38
0.24 0.23 0.24 0.28 0.32 0.40 0.51 0.58 0.58 0.57 0.54 0.52 0.52 0.41 0.39 0.41 0.52 0.72 0.89 0.91 0.91 1.00 1.10 1.15 1.30 1.31 1.29 1.16 1.06 0.90 0.80 0.73 0.58 0.52 0.60 0.60 0.61 0.51 0.47 0.35 0.26 0.25 0.31
0.24 0.24 0.24 0.26 0.27 0.31 0.36 0.43 0.48 0.46 0.44 0.50 0.49 0.47 0.51 0.58 0.64 0.82 1.03 1.12 1.23 1.24 1.25 1.38 1.62 1.55 1.33 1.24 1.17 0.94 0.73 0.68 0.60 0.56 0.50 0.53 0.62 0.60 0.51 0.46 0.33 0.18 0.19
0.18 0.17 0.19 0.24 0.26 0.25 0.24 0.29 0.34 0.35 0.44 0.51 0.59 0.64 0.68 0.71 0.79 0.99 1.20 1.41 1.53 1.40 1.37 1.53 1.75 1.84 1.59 1.40 1.35 1.17 0.92 0.69 0.60 0.60 0.56 0.53 0.58 0.62 0.62 0.61 0.48 0.38 0.27
0.05 0.09 0.13 0.15 0.17 0.17 0.18 0.23 0.32 0.39 0.45 0.58 0.74 0.85 0.87 0.85 0.89 0.94 1.14 1.34 1.39 1.42 1.43 1.49 1.64 1.87 1.76 1.55 1.56 1.74 1.47 1.12 0.70 0.53 0.58 0.57 0.61 0.63 0.60 0.55 0.54 0.51 0.42
0.02 0.03 0.06 0.11 0.14 0.14 0.22 0.41 0.68 0.92 1.01 1.02 1.04 1.19 1.28 1.24 1.18 1.15 1.18 1.32 1.39 1.50 1.48 1.48 1.50 1.66 1.73 1.65 1.65 1.98 1.75 1.46 1.28 0.83 0.60 0.63 0.72 0.75 0.68 0.66 0.65 0.63 0.52
0.03 0.03 0.04 0.09 0.15 0.18 0.35 0.68 1.07 1.39 1.48 1.49 1.61 1.65 1.71 1.63 1.49 1.47 1.47 1.56 1.49 1.45 1.38 1.38 1.39 1.50 1.73 1.73 1.66 1.58 1.52 1.44 1.58 1.32 0.86 0.69 0.73 0.73 0.72 0.67 0.71 0.74 0.71
0.10 0.11 0.13 0.20 0.34 0.50 0.65 0.83 1.13 1.32 1.44 1.58 1.74 1.88 1.99 2.11 2.08 1.99 1.92 1.77 1.58 1.48 1.44 1.47 1.46 1.50 1.57 1.61 1.57 1.50 1.51 1.42 1.21 1.22 1.19 0.94 0.77 0.69 0.70 0.70 0.73 0.76 0.80
0.24 0.27 0.31 0.41 0.51 0.58 0.70 0.84 0.98 1.07 1.23 1.43 1.58 1.75 1.88 2.00 2.03 1.97 1.84 1.61 1.43 1.36 1.41 1.50 1.51 1.51 1.50 1.52 1.48 1.37 1.32 1.28 1.16 1.19 1.10 1.09 1.09 0.79 0.66 0.63 0.65 0.69 0.71

GEFSSE_prec_meanprecacc_096.txt.gz
Total_Precipitation_Accumulation
0.51 0.31 0.52 0.51 0.44 0.36 0.30 0.31 0.33 0.35 0.31 0.27 0.24 0.20 0.17 0.15 0.14 0.14 0.16 0.14 0.15 0.17 0.20 0.21 0.22 0.27 0.28 0.28 0.34 0.42 0.49 0.38 0.34 0.33 0.27 0.27 0.32 0.29 0.32 0.43 0.77 1.01 0.52
0.30 0.26 0.51 0.52 0.42 0.34 0.28 0.28 0.31 0.30 0.30 0.28 0.26 0.24 0.18 0.16 0.16 0.15 0.14 0.12 0.11 0.12 0.16 0.19 0.22 0.28 0.30 0.29 0.37 0.45 0.45 0.42 0.42 0.44 0.41 0.40 0.37 0.33 0.34 0.38 0.72 0.97 0.60
0.29 0.29 0.41 0.53 0.47 0.41 0.37 0.33 0.31 0.34 0.34 0.28 0.27 0.26 0.21 0.16 0.16 0.16 0.14 0.11 0.11 0.13 0.15 0.17 0.22 0.28 0.34 0.40 0.41 0.42 0.40 0.44 0.48 0.56 0.76 1.08 0.72 0.45 0.43 0.40 0.53 0.58 0.51
0.35 0.34 0.39 0.59 0.58 0.53 0.45 0.42 0.42 0.42 0.40 0.34 0.29 0.27 0.24 0.20 0.18 0.19 0.16 0.14 0.13 0.15 0.19 0.20 0.21 0.26 0.33 0.40 0.42 0.40 0.37 0.43 0.49 0.56 0.79 1.10 1.03 0.72 0.59 0.56 0.62 0.50 0.48
0.34 0.36 0.50 0.67 0.63 0.63 0.56 0.51 0.50 0.49 0.46 0.41 0.35 0.33 0.31 0.28 0.23 0.22 0.21 0.20 0.21 0.22 0.23 0.24 0.24 0.28 0.34 0.34 0.32 0.32 0.34 0.46 0.59 0.51 0.69 0.90 1.17 0.95 0.69 0.73 0.77 0.66 0.54
0.38 0.38 0.51 0.62 0.59 0.62 0.60 0.61 0.63 0.55 0.51 0.46 0.40 0.40 0.41 0.37 0.32 0.30 0.31 0.34 0.33 0.34 0.32 0.32 0.32 0.35 0.35 0.35 0.33 0.34 0.44 0.53 0.51 0.61 0.71 0.92 1.18 1.00 0.79 0.80 0.81 0.88 0.71
0.47 0.40 0.43 0.52 0.56 0.62 0.61 0.58 0.66 0.65 0.63 0.52 0.44 0.43 0.43 0.41 0.42 0.41 0.45 0.47 0.48 0.47 0.43 0.42 0.41 0.37 0.36 0.39 0.37 0.38 0.50 0.50 0.58 0.74 0.72 0.90 0.91 0.92 0.82 0.78 0.86 1.03 0.94
0.60 0.49 0.41 0.48 0.56 0.61 0.62 0.68 0.80 0.80 0.73 0.59 0.49 0.48 0.48 0.50 0.49 0.49 0.50 0.50 0.56 0.61 0.59 0.53 0.49 0.41 0.38 0.42 0.40 0.43 0.53 0.57 0.58 0.64 0.57 0.75 0.93 0.97 0.77 0.76 0.84 1.01 1.09
0.87 0.73 0.58 0.56 0.60 0.70 0.77 0.82 0.94 0.98 0.90 0.72 0.58 0.58 0.58 0.53 0.49 0.48 0.53 0.55 0.57 0.60 0.60 0.57 0.55 0.49 0.45 0.44 0.43 0.46 0.56 0.58 0.57 0.56 0.46 0.68 0.94 0.88 0.70 0.66 0.72 0.88 1.02
0.93 0.87 0.79 0.74 0.75 0.82 0.88 1.01 1.11 1.21 1.31 1.07 0.78 0.69 0.65 0.55 0.49 0.51 0.53 0.56 0.59 0.67 0.65 0.63 0.62 0.58 0.58 0.53 0.47 0.46 0.49 0.46 0.45 0.43 0.50 0.62 0.86 0.88 0.67 0.58 0.59 0.61 0.72
0.67 0.72 0.77 0.80 0.86 0.86 0.82 0.89 1.11 1.29 1.46 1.20 0.83 0.85 0.77 0.55 0.55 0.60 0.60 0.71 0.75 0.80 0.80 0.78 0.78 0.76 0.73 0.63 0.56 0.48 0.36 0.26 0.37 0.43 0.49 0.59 0.83 0.84 0.61 0.47 0.39 0.44 0.46
0.54 0.51 0.54 0.57 0.66 0.73 0.72 0.93 1.18 1.22 1.34 1.09 0.92 0.95 0.92 0.96 0.90 0.70 0.69 0.87 0.97 1.02 0.96 0.93 0.94 0.87 0.74 0.56 0.53 0.45 0.24 0.22 0.31 0.39 0.40 0.60 0.86 0.82 0.60 0.40 0.33 0.34 0.32
0.42 0.40 0.39 0.41 0.44 0.53 0.74 0.98 1.20 1.25 1.29 1.33 1.36 1.22 1.20 1.15 0.96 0.78 0.75 0.80 0.86 0.94 0.88 0.97 0.96 0.80 0.70 0.56 0.50 0.35 0.23 0.23 0.33 0.36 0.45 0.61 0.83 0.80 0.64 0.44 0.33 0.31 0.29
0.46 0.44 0.38 0.30 0.31 0.39 0.53 0.75 1.03 1.10 1.16 1.24 1.24 1.04 1.13 1.13 0.95 0.88 0.97 1.00 0.97 0.94 1.05 1.09 1.04 0.97 0.80 0.62 0.56 0.49 0.40 0.29 0.35 0.40 0.54 0.51 0.73 0.80 0.66 0.52 0.37 0.32 0.30
0.53 0.61 0.59 0.43 0.37 0.39 0.45 0.50 0.64 0.74 0.85 1.13 1.21 0.95 0.93 0.95 0.99 1.01 0.93 1.06 1.12 1.11 1.10 1.09 0.99 0.93 0.90 0.78 0.75 0.70 0.60 0.43 0.43 0.44 0.56 0.46 0.53 0.70 0.71 0.58 0.46 0.39 0.33
0.36 0.49 0.57 0.55 0.54 0.52 0.45 0.40 0.40 0.46 0.59 0.74 0.76 0.72 0.75 0.78 0.87 1.04 0.97 0.95 1.02 1.20 1.25 1.18 1.07 1.07 1.03 0.85 0.79 0.85 0.73 0.60 0.58 0.56 0.61 0.50 0.35 0.38 0.52 0.57 0.52 0.46 0.38
0.26 0.32 0.42 0.50 0.56 0.58 0.59 0.58 0.48 0.47 0.54 0.56 0.56 0.62 0.69 0.69 0.82 0.98 0.92 0.82 0.81 0.97 1.14 1.25 1.26 1.18 1.04 0.91 0.81 0.83 0.74 0.67 0.64 0.73 0.67 0.57 0.43 0.28 0.33 0.45 0.49 0.46 0.45
0.25 0.25 0.31 0.36 0.43 0.53 0.62 0.69 0.66 0.62 0.58 0.52 0.49 0.47 0.50 0.52 0.60 0.79 0.86 0.76 0.76 0.92 1.11 1.25 1.33 1.32 1.16 1.09 1.04 0.91 0.81 0.71 0.65 0.72 0.70 0.65 0.60 0.43 0.37 0.35 0.38 0.41 0.45
0.25 0.23 0.24 0.28 0.32 0.40 0.51 0.58 0.58 0.57 0.54 0.52 0.52 0.41 0.39 0.41 0.52 0.72 0.90 0.91 0.91 1.00 1.11 1.16 1.31 1.32 1.30 1.18 1.08 0.92 0.83 0.77 0.64 0.59 0.66 0.68 0.69 0.56 0.51 0.38 0.30 0.28 0.36
0.24 0.24 0.24 0.26 0.27 0.31 0.36 0.43 0.48 0.46 0.44 0.50 0.49 0.47 0.51 0.58 0.64 0.83 1.04 1.13 1.24 1.24 1.25 1.39 1.63 1.56 1.34 1.26 1.19 0.97 0.77 0.73 0.67 0.62 0.57 0.62 0.70 0.66 0.56 0.49 0.36 0.21 0.22
0.18 0.18 0.19 0.24 0.26 0.25 0.24 0.29 0.34 0.35 0.44 0.51 0.59 0.64 0.68 0.72 0.79 1.00 1.21 1.42 1.54 1.41 1.38 1.54 1.76 1.85 1.61 1.41 1.37 1.20 0.98 0.77 0.68 0.68 0.62 0.62 0.67 0.70 0.68 0.65 0.51 0.40 0.29
0.05 0.09 0.13 0.15 0.17 0.17 0.18 0.23 0.32 0.39 0.45 0.58 0.74 0.85 0.87 0.85 0.89 0.94 1.15 1.34 1.40 1.43 1.43 1.50 1.64 1.88 1.77 1.57 1.59 1.78 1.51 1.18 0.77 0.60 0.65 0.66 0.70 0.70 0.65 0.59 0.56 0.53 0.43
0.02 0.03 0.06 0.11 0.14 0.14 0.22 0.41 0.68 0.92 1.01 1.02 1.04 1.19 1.28 1.24 1.18 1.16 1.18 1.32 1.40 1.50 1.49 1.50 1.51 1.66 1.74 1.66 1.67 2.00 1.77 1.50 1.34 0.88 0.66 0.72 0.78 0.81 0.75 0.71 0.69 0.66 0.54
0.03 0.03 0.04 0.09 0.15 0.18 0.35 0.68 1.07 1.39 1.48 1.49 1.61 1.65 1.71 1.63 1.49 1.47 1.47 1.56 1.49 1.46 1.40 1.40 1.41 1.51 1.75 1.75 1.68 1.61 1.55 1.48 1.64 1.36 0.91 0.76 0.80 0.78 0.78 0.73 0.76 0.80 0.76
0.10 0.11 0.13 0.20 0.34 0.50 0.65 0.83 1.13 1.32 1.44 1.58 1.74 1.88 1.99 2.11 2.08 1.99 1.92 1.77 1.58 1.49 1.46 1.49 1.47 1.51 1.58 1.63 1.59 1.53 1.52 1.44 1.24 1.26 1.23 1.01 0.84 0.74 0.74 0.75 0.79 0.83 0.88
0.24 0.27 0.31 0.41 0.51 0.58 0.70 0.84 0.98 1.07 1.23 1.43 1.58 1.75 1.88 2.00 2.03 1.97 1.84 1.61 1.43 1.37 1.42 1.51 1.51 1.52 1.50 1.53 1.49 1.38 1.33 1.29 1.18 1.22 1.13 1.14 1.15 0.85 0.70 0.67 0.72 0.75 0.78

GEFSSE_prec_meanprecacc_102.txt.gz
Total_Precipitation_Accumulation
0.51 0.31 0.55 0.57 0.51 0.42 0.35 0.37 0.40 0.41 0.36 0.31 0.29 0.27 0.24 0.21 0.20 0.20 0.21 0.18 0.19 0.19 0.22 0.23 0.25 0.30 0.31 0.30 0.36 0.45 0.51 0.40 0.37 0.35 0.29 0.29 0.33 0.30 0.33 0.45 0.79 1.05 0.54
0.30 0.27 0.56 0.58 0.48 0.39 0.33 0.33 0.37 0.36 0.36 0.32 0.30 0.29 0.23 0.20 0.20 0.20 0.19 0.17 0.16 0.16 0.18 0.20 0.25 0.31 0.33 0.32 0.40 0.48 0.48 0.45 0.46 0.47 0.42 0.43 0.39 0.34 0.35 0.40 0.74 0.99 0.61
0.29 0.30 0.44 0.59 0.55 0.47 0.41 0.37 0.36 0.39 0.39 0.34 0.32 0.31 0.26 0.21 0.20 0.20 0.18 0.15 0.15 0.17 0.17 0.19 0.24 0.30 0.36 0.43 0.44 0.45 0.43 0.47 0.50 0.59 0.77 1.11 0.76 0.47 0.45 0.42 0.55 0.59 0.53
0.35 0.35 0.42 0.63 0.64 0.59 0.51 0.47 0.47 0.47 0.44 0.39 0.34 0.31 0.28 0.24 0.22 0.24 0.21 0.18 0.17 0.19 0.22 0.23 0.24 0.29 0.36 0.44 0.45 0.43 0.39 0.45 0.51 0.57 0.79 1.11 1.06 0.75 0.63 0.60 0.66 0.52 0.49
0.34 0.37 0.53 0.72 0.68 0.68 0.61 0.57 0.57 0.54 0.50 0.44 0.39 0.36 0.35 0.32 0.27 0.27 0.25 0.23 0.25 0.26 0.28 0.29 0.28 0.33 0.38 0.39 0.36 0.34 0.37 0.49 0.60 0.52 0.70 0.92 1.22 1.00 0.73 0.78 0.83 0.70 0.56
0.39 0.40 0.54 0.67 0.64 0.65 0.64 0.65 0.68 0.58 0.54 0.48 0.42 0.42 0.43 0.39 0.35 0.34 0.35 0.37 0.36 0.38 0.36 0.37 0.37 0.40 0.41 0.41 0.37 0.37 0.48 0.55 0.52 0.62 0.73 0.95 1.22 1.04 0.84 0.85 0.86 0.95 0.74
0.48 0.42 0.44 0.55 0.57 0.64 0.62 0.59 0.68 0.66 0.64 0.53 0.46 0.44 0.44 0.42 0.43 0.43 0.47 0.49 0.50 0.50 0.46 0.46 0.46 0.42 0.42 0.47 0.43 0.43 0.53 0.53 0.60 0.75 0.73 0.93 0.94 0.94 0.86 0.83 0.91 1.11 1.00
0.60 0.50 0.42 0.49 0.56 0.61 0.62 0.68 0.81 0.81 0.73 0.59 0.49 0.49 0.49 0.51 0.50 0.50 0.51 0.51 0.57 0.63 0.61 0.55 0.53 0.45 0.45 0.50 0.48 0.48 0.58 0.61 0.60 0.65 0.58 0.76 0.95 1.00 0.82 0.82 0.90 1.07 1.16
0.87 0.73 0.58 0.56 0.60 0.70 0.78 0.82 0.94 0.98 0.90 0.72 0.58 0.58 0.58 0.54 0.50 0.49 0.54 0.55 0.57 0.61 0.63 0.60 0.58 0.52 0.51 0.51 0.51 0.53 0.64 0.67 0.63 0.60 0.47 0.69 0.96 0.92 0.76 0.73 0.78 0.94 1.08
0.93 0.88 0.79 0.74 0.75 0.82 0.88 1.02 1.11 1.21 1.31 1.07 0.78 0.69 0.65 0.55 0.50 0.52 0.53 0.56 0.60 0.68 0.67 0.65 0.65 0.60 0.61 0.57 0.52 0.50 0.57 0.54 0.52 0.49 0.53 0.63 0.88 0.94 0.73 0.66 0.67 0.69 0.79
0.68 0.72 0.77 0.80 0.86 0.86 0.82 0.89 1.11 1.29 1.46 1.20 0.83 0.85 0.77 0.55 0.55 0.60 0.60 0.71 0.76 0.80 0.81 0.80 0.81 0.79 0.76 0.67 0.59 0.52 0.43 0.31 0.41 0.47 0.51 0.61 0.86 0.90 0.68 0.57 0.47 0.51 0.54
0.55 0.52 0.54 0.57 0.66 0.73 0.72 0.93 1.18 1.22 1.34 1.09 0.92 0.95 0.92 0.97 0.90 0.70 0.69 0.87 0.97 1.02 0.97 0.95 0.98 0.90 0.77 0.59 0.56 0.49 0.29 0.25 0.34 0.42 0.42 0.63 0.91 0.88 0.69 0.51 0.41 0.42 0.40
0.43 0.40 0.39 0.41 0.44 0.53 0.74 0.98 1.20 1.25 1.29 1.33 1.36 1.22 1.20 1.16 0.96 0.79 0.75 0.80 0.86 0.94 0.89 0.98 0.98 0.83 0.72 0.58 0.52 0.38 0.26 0.27 0.36 0.39 0.46 0.63 0.87 0.85 0.73 0.56 0.42 0.39 0.37
0.46 0.44 0.38 0.30 0.31 0.39 0.53 0.75 1.03 1.10 1.16 1.24 1.24 1.04 1.13 1.13 0.95 0.89 0.97 1.00 0.97 0.94 1.06 1.10 1.05 0.98 0.81 0.63 0.58 0.52 0.42 0.32 0.38 0.42 0.56 0.53 0.76 0.85 0.76 0.64 0.49 0.42 0.38
0.53 0.61 0.59 0.43 0.37 0.39 0.45 0.50 0.64 0.74 0.85 1.13 1.21 0.95 0.93 0.95 0.99 1.02 0.93 1.06 1.12 1.12 1.12 1.10 1.01 0.95 0.91 0.79 0.76 0.73 0.64 0.47 0.45 0.46 0.59 0.49 0.56 0.75 0.80 0.72 0.62 0.50 0.42
0.36 0.49 0.57 0.55 0.54 0.52 0.45 0.40 0.40 0.46 0.59 0.74 0.76 0.72 0.75 0.78 0.87 1.04 0.97 0.96 1.03 1.21 1.26 1.19 1.09 1.09 1.05 0.86 0.81 0.87 0.76 0.65 0.60 0.59 0.65 0.54 0.38 0.41 0.58 0.68 0.65 0.58 0.48
0.26 0.32 0.42 0.50 0.56 0.58 0.59 0.58 0.48 0.47 0.54 0.56 0.56 0.62 0.69 0.69 0.82 0.98 0.93 0.84 0.82 0.97 1.15 1.26 1.28 1.20 1.05 0.93 0.84 0.85 0.76 0.70 0.67 0.77 0.72 0.64 0.49 0.31 0.36 0.52 0.58 0.57 0.56
0.25 0.25 0.31 0.36 0.43 0.53 0.62 0.69 0.66 0.62 0.58 0.52 0.49 0.47 0.50 0.52 0.61 0.79 0.86 0.77 0.76 0.92 1.13 1.27 1.34 1.35 1.20 1.13 1.08 0.94 0.83 0.75 0.70 0.78 0.78 0.73 0.69 0.52 0.46 0.40 0.44 0.48 0.54
0.25 0.23 0.24 0.28 0.33 0.40 0.51 0.58 0.58 0.57 0.54 0.52 0.52 0.41 0.39 0.41 0.53 0.72 0.90 0.92 0.93 1.02 1.12 1.18 1.33 1.35 1.34 1.23 1.13 0.97 0.86 0.81 0.71 0.66 0.74 0.75 0.77 0.69 0.64 0.45 0.34 0.33 0.41
0.24 0.24 0.24 0.26 0.27 0.31 0.36 0.43 0.48 0.46 0.44 0.50 0.49 0.47 0.51 0.58 0.65 0.83 1.05 1.13 1.24 1.25 1.26 1.40 1.65 1.60 1.39 1.33 1.25 1.01 0.81 0.78 0.74 0.70 0.64 0.70 0.80 0.78 0.65 0.57 0.47 0.27 0.26
0.18 0.18 0.19 0.24 0.26 0.25 0.24 0.29 0.34 0.35 0.44 0.51 0.59 0.64 0.69 0.72 0.79 1.00 1.21 1.43 1.55 1.41 1.38 1.55 1.78 1.89 1.66 1.49 1.45 1.25 1.03 0.82 0.75 0.75 0.69 0.73 0.82 0.85 0.78 0.76 0.64 0.51 0.37
0.05 0.09 0.13 0.15 0.17 0.17 0.18 0.23 0.32 0.39 0.45 0.58 0.74 0.85 0.87 0.85 0.90 0.95 1.15 1.35 1.41 1.43 1.44 1.52 1.67 1.92 1.82 1.62 1.66 1.85 1.58 1.26 0.83 0.65 0.72 0.78 0.86 0.87 0.78 0.68 0.66 0.63 0.54
0.02 0.03 0.07 0.11 0.14 0.14 0.22 0.41 0.68 0.92 1.01 1.02 1.04 1.19 1.28 1.24 1.19 1.16 1.19 1.32 1.40 1.51 1.50 1.52 1.53 1.70 1.80 1.71 1.72 2.09 1.87 1.60 1.43 0.94 0.73 0.80 0.90 0.95 0.87 0.80 0.78 0.76 0.64
0.03 0.03 0.04 0.09 0.15 0.18 0.35 0.68 1.07 1.39 1.48 1.49 1.61 1.65 1.71 1.63 1.50 1.47 1.47 1.56 1.50 1.47 1.42 1.42 1.43 1.55 1.80 1.80 1.73 1.66 1.62 1.57 1.75 1.47 0.99 0.84 0.89 0.89 0.89 0.82 0.83 0.88 0.85
0.10 0.11 0.14 0.20 0.34 0.50 0.65 0.83 1.13 1.32 1.44 1.58 1.74 1.88 1.99 2.11 2.08 2.00 1.92 1.77 1.59 1.50 1.48 1.51 1.50 1.54 1.61 1.67 1.64 1.58 1.58 1.51 1.32 1.37 1.32 1.08 0.92 0.84 0.84 0.85 0.87 0.89 0.96
0.24 0.27 0.31 0.41 0.51 0.58 0.70 0.84 0.98 1.07 1.23 1.43 1.58 1.75 1.88 2.00 2.03 1.97 1.84 1.61 1.44 1.37 1.42 1.52 1.53 1.54 1.53 1.56 1.53 1.42 1.39 1.36 1.26 1.32 1.22 1.20 1.23 0.93 0.78 0.74 0.79 0.81 0.83

GEFSSE_prec_meanprecacc_108.txt.gz
Total_Precipitation_Accumulation
0.57 0.34 0.56 0.58 0.53 0.45 0.38 0.39 0.42 0.44 0.39 0.35 0.32 0.31 0.29 0.26 0.24 0.24 0.24 0.21 0.23 0.23 0.25 0.25 0.26 0.31 0.32 0.32 0.37 0.46 0.52 0.42 0.39 0.36 0.30 0.31 0.35 0.32 0.35 0.48 0.86 1.17 0.59
0.33 0.28 0.57 0.61 0.51 0.41 0.36 0.36 0.40 0.40 0.40 0.37 0.33 0.32 0.27 0.24 0.23 0.22 0.21 0.20 0.20 0.19 0.21 0.22 0.26 0.32 0.33 0.33 0.41 0.50 0.50 0.47 0.48 0.49 0.44 0.46 0.44 0.38 0.36 0.42 0.78 1.05 0.64
0.30 0.31 0.45 0.62 0.58 0.51 0.45 0.41 0.40 0.42 0.41 0.36 0.35 0.35 0.29 0.24 0.23 0.22 0.21 0.19 0.19 0.21 0.20 0.21 0.26 0.31 0.37 0.44 0.46 0.47 0.45 0.49 0.53 0.61 0.84 1.24 0.87 0.52 0.46 0.43 0.57 0.61 0.56
0.37 0.37 0.43 0.65 0.66 0.63 0.54 0.49 0.49 0.50 0.47 0.41 0.36 0.33 0.30 0.26 0.25 0.26 0.23 0.22 0.21 0.22 0.25 0.26 0.26 0.31 0.38 0.46 0.48 0.45 0.41 0.47 0.52 0.60 0.90 1.30 1.20 0.82 0.65 0.61 0.67 0.54 0.53
0.35 0.39 0.54 0.74 0.70 0.70 0.64 0.60 0.60 0.57 0.52 0.46 0.40 0.38 0.36 0.34 0.29 0.28 0.27 0.25 0.26 0.28 0.29 0.30 0.31 0.36 0.41 0.42 0.39 0.37 0.39 0.50 0.61 0.56 0.80 1.09 1.42 1.09 0.75 0.80 0.86 0.72 0.59
0.40 0.41 0.55 0.68 0.65 0.67 0.65 0.67 0.70 0.60 0.55 0.49 0.43 0.42 0.44 0.40 0.36 0.35 0.36 0.38 0.37 0.38 0.37 0.38 0.39 0.42 0.44 0.44 0.40 0.40 0.50 0.57 0.54 0.69 0.83 1.08 1.45 1.15 0.87 0.89 0.90 0.98 0.76
0.49 0.42 0.44 0.55 0.58 0.64 0.63 0.60 0.69 0.67 0.64 0.54 0.46 0.45 0.45 0.42 0.44 0.44 0.48 0.50 0.51 0.51 0.47 0.47 0.47 0.44 0.45 0.50 0.46 0.46 0.55 0.55 0.61 0.79 0.80 1.04 1.12 1.02 0.90 0.87 0.95 1.16 1.04
0.60 0.50 0.42 0.49 0.57 0.62 0.63 0.68 0.81 0.81 0.73 0.59 0.49 0.49 0.49 0.51 0.50 0.51 0.52 0.51 0.57 0.63 0.62 0.56 0.54 0.46 0.46 0.52 0.50 0.51 0.60 0.63 0.61 0.68 0.63 0.85 1.06 1.05 0.85 0.84 0.94 1.11 1.19
0.87 0.73 0.58 0.56 0.60 0.70 0.78 0.82 0.94 0.98 0.90 0.73 0.58 0.58 0.58 0.54 0.50 0.49 0.54 0.55 0.58 0.61 0.63 0.61 0.58 0.53 0.52 0.52 0.52 0.55 0.66 0.68 0.65 0.62 0.50 0.78 1.04 0.96 0.80 0.75 0.81 0.97 1.11
0.93 0.88 0.80 0.74 0.75 0.82 0.88 1.02 1.11 1.21 1.31 1.07 0.78 0.69 0.65 0.55 0.50 0.52 0.53 0.56 0.60 0.68 0.68 0.66 0.65 0.60 0.62 0.58 0.53 0.52 0.59 0.55 0.54 0.52 0.57 0.70 0.94 0.97 0.78 0.69 0.71 0.73 0.83
0.68 0.72 0.77 0.80 0.86 0.86 0.82 0.89 1.11 1.29 1.46 1.20 0.83 0.85 0.77 0.55 0.56 0.60 0.60 0.71 0.76 0.81 0.81 0.80 0.81 0.79 0.77 0.67 0.60 0.54 0.44 0.32 0.43 0.50 0.57 0.68 0.90 0.94 0.72 0.60 0.51 0.55 0.58
0.55 0.52 0.54 0.57 0.66 0.73 0.72 0.93 1.18 1.22 1.34 1.09 0.92 0.95 0.92 0.97 0.91 0.70 0.69 0.87 0.97 1.02 0.97 0.95 0.98 0.90 0.77 0.60 0.58 0.52 0.31 0.27 0.38 0.44 0.48 0.68 0.94 0.91 0.71 0.53 0.44 0.46 0.43
0.43 0.40 0.39 0.41 0.44 0.53 0.74 0.98 1.20 1.25 1.29 1.33 1.36 1.22 1.20 1.16 0.96 0.79 0.76 0.80 0.87 0.94 0.89 0.98 0.98 0.83 0.73 0.59 0.54 0.41 0.28 0.30 0.41 0.43 0.53 0.68 0.89 0.87 0.75 0.59 0.45 0.43 0.40
0.46 0.44 0.38 0.30 0.31 0.39 0.53 0.75 1.03 1.10 1.16 1.24 1.24 1.04 1.13 1.13 0.95 0.89 0.97 1.00 0.97 0.94 1.06 1.10 1.06 0.99 0.82 0.63 0.59 0.53 0.44 0.35 0.42 0.48 0.63 0.56 0.78 0.87 0.78 0.68 0.53 0.47 0.43
0.53 0.61 0.59 0.43 0.37 0.39 0.45 0.50 0.64 0.74 0.85 1.13 1.21 0.95 0.93 0.95 0.99 1.02 0.93 1.07 1.13 1.12 1.12 1.10 1.01 0.95 0.92 0.79 0.77 0.74 0.66 0.50 0.48 0.51 0.65 0.51 0.58 0.77 0.84 0.77 0.67 0.56 0.49
0.37 0.49 0.57 0.55 0.54 0.52 0.45 0.40 0.40 0.46 0.59 0.74 0.76 0.72 0.75 0.78 0.88 1.05 0.98 0.97 1.04 1.22 1.27 1.20 1.09 1.09 1.06 0.87 0.82 0.88 0.78 0.66 0.63 0.63 0.72 0.60 0.40 0.42 0.60 0.72 0.72 0.63 0.55
0.27 0.32 0.42 0.50 0.56 0.58 0.59 0.58 0.48 0.47 0.54 0.56 0.56 0.62 0.69 0.69 0.82 0.99 0.95 0.85 0.83 0.99 1.16 1.27 1.29 1.22 1.08 0.95 0.86 0.87 0.78 0.72 0.69 0.80 0.80 0.74 0.55 0.34 0.39 0.56 0.64 0.63 0.61
0.25 0.25 0.31 0.36 0.43 0.53 0.62 0.69 0.66 0.62 0.58 0.52 0.49 0.47 0.50 0.52 0.61 0.80 0.87 0.78 0.78 0.94 1.14 1.29 1.37 1.39 1.25 1.18 1.13 0.98 0.86 0.78 0.73 0.80 0.83 0.82 0.79 0.60 0.51 0.44 0.47 0.52 0.59
0.25 0.23 0.24 0.28 0.33 0.40 0.51 0.58 0.58 0.57 0.54 0.52 0.52 0.41 0.39 0.41 0.53 0.73 0.91 0.94 0.94 1.03 1.14 1.19 1.35 1.39 1.41 1.31 1.19 1.02 0.90 0.85 0.75 0.70 0.80 0.84 0.87 0.80 0.74 0.51 0.37 0.36 0.46
0.25 0.24 0.24 0.26 0.27 0.31 0.36 0.43 0.48 0.46 0.44 0.50 0.49 0.47 0.51 0.58 0.65 0.84 1.06 1.15 1.26 1.27 1.28 1.42 1.67 1.64 1.46 1.40 1.31 1.08 0.87 0.83 0.79 0.75 0.71 0.80 0.91 0.87 0.76 0.65 0.52 0.32 0.32
0.19 0.18 0.19 0.24 0.26 0.25 0.24 0.29 0.34 0.35 0.44 0.51 0.59 0.64 0.69 0.72 0.79 1.00 1.21 1.44 1.56 1.43 1.41 1.57 1.81 1.94 1.73 1.56 1.53 1.35 1.12 0.89 0.82 0.81 0.76 0.83 0.93 0.95 0.88 0.85 0.73 0.60 0.46
0.05 0.09 0.13 0.15 0.17 0.17 0.18 0.23 0.32 0.39 0.45 0.58 0.74 0.85 0.87 0.85 0.90 0.95 1.15 1.35 1.42 1.45 1.47 1.55 1.71 1.98 1.89 1.70 1.74 1.96 1.71 1.38 0.92 0.71 0.79 0.86 0.97 0.98 0.89 0.78 0.77 0.74 0.66
0.03 0.03 0.07 0.12 0.15 0.15 0.22 0.41 0.68 0.92 1.01 1.02 1.04 1.19 1.28 1.24 1.19 1.16 1.19 1.32 1.40 1.52 1.52 1.55 1.58 1.74 1.85 1.79 1.82 2.21 2.02 1.75 1.56 1.04 0.79 0.88 1.00 1.06 1.00 0.92 0.89 0.86 0.76
0.03 0.03 0.05 0.10 0.15 0.18 0.35 0.68 1.07 1.39 1.48 1.49 1.61 1.65 1.71 1.63 1.50 1.47 1.47 1.56 1.50 1.48 1.44 1.45 1.45 1.58 1.84 1.88 1.82 1.77 1.71 1.69 1.89 1.59 1.08 0.93 0.96 0.97 1.01 0.93 0.94 0.99 1.00
0.10 0.11 0.14 0.21 0.34 0.50 0.65 0.83 1.13 1.32 1.44 1.58 1.74 1.88 1.99 2.11 2.08 2.00 1.92 1.77 1.59 1.50 1.50 1.52 1.53 1.58 1.66 1.73 1.70 1.65 1.64 1.58 1.41 1.49 1.42 1.16 1.00 0.92 0.94 0.97 0.99 1.01 1.11
0.24 0.27 0.31 0.41 0.51 0.58 0.70 0.84 0.98 1.07 1.23 1.43 1.58 1.75 1.88 2.00 2.03 1.97 1.84 1.61 1.44 1.37 1.43 1.53 1.56 1.59 1.57 1.59 1.57 1.46 1.45 1.44 1.35 1.42 1.34 1.31 1.31 1.00 0.86 0.85 0.90 0.92 0.95

GEFSSE_prec_meanprecacc_114.txt.gz
Total_Precipitation_Accumulation
0.64 0.41 0.65 0.62 0.55 0.46 0.39 0.40 0.43 0.46 0.41 0.36 0.33 0.32 0.29 0.27 0.25 0.24 0.25 0.22 0.25 0.23 0.25 0.26 0.28 0.35 0.36 0.34 0.39 0.47 0.53 0.43 0.40 0.39 0.32 0.32 0.37 0.34 0.37 0.50 0.87 1.20 0.62
0.36 0.33 0.64 0.64 0.53 0.43 0.37 0.38 0.42 0.42 0.41 0.38 0.34 0.33 0.28 0.24 0.24 0.23 0.22 0.21 0.22 0.21 0.22 0.23 0.27 0.34 0.36 0.36 0.43 0.50 0.50 0.48 0.49 0.50 0.46 0.49 0.46 0.40 0.38 0.44 0.80 1.07 0.67
0.33 0.33 0.48 0.64 0.59 0.53 0.47 0.42 0.41 0.43 0.42 0.37 0.35 0.35 0.30 0.24 0.23 0.23 0.21 0.20 0.20 0.23 0.22 0.23 0.28 0.32 0.38 0.45 0.47 0.48 0.46 0.50 0.54 0.63 0.87 1.27 0.89 0.55 0.48 0.44 0.58 0.62 0.58
0.38 0.38 0.45 0.68 0.67 0.64 0.56 0.50 0.50 0.50 0.48 0.41 0.36 0.34 0.30 0.26 0.25 0.27 0.24 0.22 0.22 0.23 0.26 0.27 0.28 0.33 0.39 0.46 0.48 0.45 0.41 0.48 0.54 0.63 0.93 1.34 1.23 0.86 0.68 0.62 0.68 0.55 0.55
0.36 0.40 0.56 0.77 0.72 0.71 0.64 0.60 0.61 0.58 0.53 0.47 0.40 0.38 0.36 0.34 0.29 0.29 0.28 0.27 0.27 0.28 0.30 0.31 0.32 0.36 0.42 0.42 0.39 0.37 0.39 0.51 0.64 0.58 0.82 1.11 1.44 1.14 0.79 0.81 0.87 0.73 0.61
0.41 0.42 0.57 0.71 0.67 0.68 0.66 0.67 0.70 0.61 0.56 0.50 0.44 0.43 0.44 0.41 0.36 0.35 0.37 0.40 0.38 0.39 0.37 0.38 0.39 0.43 0.44 0.44 0.41 0.40 0.50 0.57 0.56 0.71 0.85 1.10 1.46 1.20 0.90 0.90 0.91 0.99 0.77
0.50 0.43 0.45 0.57 0.59 0.65 0.63 0.60 0.69 0.67 0.65 0.54 0.47 0.45 0.45 0.43 0.44 0.45 0.49 0.51 0.51 0.52 0.48 0.47 0.48 0.44 0.45 0.50 0.46 0.46 0.56 0.56 0.63 0.81 0.82 1.07 1.14 1.07 0.94 0.89 0.96 1.17 1.04
0.61 0.50 0.42 0.50 0.57 0.62 0.63 0.69 0.81 0.81 0.73 0.60 0.50 0.50 0.49 0.51 0.50 0.51 0.52 0.52 0.58 0.64 0.62 0.56 0.54 0.47 0.47 0.52 0.50 0.51 0.61 0.63 0.63 0.70 0.66 0.89 1.12 1.12 0.89 0.87 0.96 1.12 1.20
0.87 0.73 0.58 0.56 0.61 0.71 0.78 0.82 0.94 0.98 0.90 0.73 0.58 0.58 0.58 0.54 0.50 0.49 0.54 0.56 0.58 0.61 0.63 0.61 0.58 0.53 0.52 0.53 0.53 0.55 0.66 0.69 0.66 0.64 0.55 0.86 1.13 1.04 0.85 0.78 0.83 0.98 1.13
0.93 0.88 0.80 0.74 0.75 0.82 0.88 1.02 1.11 1.21 1.31 1.07 0.78 0.69 0.65 0.55 0.50 0.52 0.53 0.56 0.60 0.68 0.68 0.66 0.65 0.61 0.62 0.59 0.54 0.53 0.60 0.56 0.55 0.54 0.61 0.76 1.04 1.06 0.84 0.73 0.73 0.74 0.85
0.68 0.72 0.77 0.80 0.86 0.87 0.82 0.89 1.11 1.29 1.46 1.20 0.83 0.85 0.77 0.55 0.56 0.60 0.60 0.71 0.76 0.81 0.81 0.81 0.82 0.79 0.77 0.69 0.61 0.56 0.46 0.34 0.45 0.53 0.62 0.75 1.01 1.04 0.78 0.64 0.54 0.56 0.59
0.55 0.52 0.54 0.57 0.66 0.73 0.72 0.93 1.18 1.22 1.34 1.09 0.92 0.95 0.92 0.97 0.91 0.70 0.69 0.87 0.98 1.03 0.97 0.95 0.98 0.91 0.78 0.60 0.59 0.53 0.32 0.29 0.41 0.48 0.53 0.76 1.04 1.00 0.78 0.58 0.46 0.48 0.45
0.43 0.40 0.39 0.41 0.44 0.53 0.74 0.98 1.20 1.25 1.29 1.33 1.36 1.22 1.20 1.16 0.96 0.79 0.76 0.80 0.87 0.95 0.89 0.99 0.99 0.84 0.73 0.60 0.55 0.42 0.29 0.32 0.46 0.47 0.58 0.76 0.97 0.94 0.82 0.65 0.49 0.46 0.43
0.46 0.44 0.38 0.30 0.31 0.39 0.53 0.75 1.03 1.10 1.16 1.24 1.24 1.04 1.13 1.13 0.95 0.89 0.97 1.00 0.97 0.95 1.06 1.10 1.06 0.99 0.82 0.64 0.59 0.54 0.46 0.37 0.46 0.53 0.68 0.62 0.85 0.96 0.86 0.75 0.59 0.51 0.46
0.54 0.61 0.59 0.43 0.37 0.39 0.45 0.50 0.64 0.74 0.85 1.13 1.21 0.95 0.93 0.95 0.99 1.02 0.93 1.07 1.13 1.12 1.12 1.11 1.01 0.95 0.92 0.80 0.78 0.76 0.67 0.51 0.51 0.55 0.70 0.56 0.64 0.85 0.92 0.84 0.74 0.61 0.53
0.37 0.49 0.57 0.55 0.54 0.52 0.45 0.40 0.40 0.46 0.59 0.74 0.76 0.72 0.75 0.78 0.88 1.05 0.98 0.97 1.04 1.22 1.27 1.20 1.09 1.09 1.06 0.88 0.83 0.89 0.79 0.68 0.66 0.66 0.76 0.64 0.44 0.47 0.66 0.81 0.82 0.72 0.62
0.27 0.32 0.42 0.50 0.56 0.58 0.59 0.58 0.48 0.47 0.54 0.56 0.56 0.62 0.69 0.69 0.82 0.99 0.95 0.85 0.83 0.99 1.16 1.27 1.29 1.22 1.08 0.96 0.88 0.88 0.79 0.74 0.71 0.83 0.84 0.77 0.57 0.36 0.43 0.62 0.73 0.73 0.71
0.26 0.25 0.31 0.36 0.43 0.53 0.62 0.69 0.66 0.62 0.58 0.52 0.49 0.47 0.50 0.52 0.61 0.80 0.87 0.78 0.78 0.94 1.14 1.29 1.37 1.40 1.25 1.18 1.14 1.00 0.87 0.79 0.75 0.83 0.87 0.88 0.83 0.62 0.54 0.48 0.53 0.60 0.68
0.25 0.23 0.24 0.28 0.33 0.40 0.51 0.58 0.58 0.57 0.54 0.52 0.52 0.41 0.39 0.41 0.53 0.73 0.91 0.94 0.94 1.03 1.14 1.19 1.36 1.40 1.42 1.31 1.21 1.04 0.92 0.88 0.78 0.73 0.85 0.90 0.92 0.84 0.77 0.53 0.40 0.41 0.52
0.25 0.24 0.24 0.26 0.27 0.31 0.36 0.43 0.48 0.46 0.44 0.50 0.49 0.47 0.51 0.58 0.65 0.84 1.06 1.15 1.26 1.27 1.29 1.42 1.68 1.65 1.48 1.41 1.32 1.10 0.90 0.87 0.84 0.80 0.78 0.87 0.97 0.93 0.82 0.69 0.54 0.34 0.36
0.19 0.18 0.19 0.24 0.26 0.25 0.24 0.29 0.34 0.35 0.44 0.51 0.59 0.64 0.69 0.72 0.79 1.00 1.21 1.44 1.56 1.43 1.41 1.58 1.81 1.94 1.74 1.58 1.55 1.38 1.16 0.95 0.87 0.86 0.81 0.89 1.00 1.02 0.95 0.93 0.77 0.62 0.47
0.06 0.09 0.13 0.15 0.18 0.17 0.18 0.23 0.32 0.39 0.45 0.58 0.74 0.85 0.87 0.85 0.90 0.95 1.15 1.35 1.42 1.45 1.47 1.55 1.72 1.99 1.91 1.72 1.76 1.99 1.76 1.44 0.98 0.78 0.85 0.92 1.04 1.05 0.96 0.85 0.84 0.78 0.68
0.04 0.04 0.07 0.12 0.15 0.15 0.23 0.41 0.68 0.92 1.01 1.02 1.04 1.19 1.28 1.24 1.19 1.16 1.19 1.32 1.40 1.52 1.53 1.56 1.59 1.76 1.87 1.81 1.84 2.23 2.05 1.80 1.61 1.09 0.83 0.91 1.04 1.11 1.05 0.99 0.94 0.90 0.79
0.04 0.04 0.05 0.10 0.15 0.19 0.35 0.68 1.07 1.40 1.48 1.49 1.61 1.65 1.71 1.63 1.50 1.47 1.47 1.56 1.50 1.48 1.44 1.45 1.46 1.59 1.84 1.89 1.83 1.77 1.72 1.71 1.93 1.62 1.11 0.95 1.00 1.02 1.06 1.00 0.99 1.02 1.03
0.11 0.12 0.15 0.21 0.34 0.51 0.65 0.83 1.13 1.32 1.44 1.58 1.74 1.88 1.99 2.11 2.08 2.00 1.92 1.77 1.59 1.50 1.50 1.52 1.53 1.58 1.67 1.73 1.71 1.66 1.66 1.59 1.43 1.52 1.44 1.20 1.03 0.94 0.98 1.03 1.04 1.06 1.15
0.24 0.27 0.31 0.41 0.51 0.58 0.70 0.84 0.98 1.07 1.23 1.43 1.58 1.75 1.88 2.00 2.03 1.97 1.84 1.61 1.44 1.37 1.43 1.54 1.56 1.59 1.57 1.60 1.57 1.47 1.47 1.46 1.37 1.44 1.36 1.35 1.35 1.03 0.89 0.91 0.97 0.98 1.00

GEFSSE_prec_meanprecacc_120.txt.gz
Total_Precipitation_Accumulation
0.67 0.48 0.80 0.76 0.63 0.54 0.48 0.47 0.50 0.51 0.46 0.41 0.37 0.35 0.32 0.30 0.29 0.28 0.29 0.27 0.29 0.26 0.27 0.28 0.30 0.36 0.36 0.36 0.43 0.50 0.56 0.44 0.42 0.40 0.34 0.34 0.39 0.35 0.38 0.51 0.88 1.21 0.65
0.39 0.39 0.77 0.75 0.60 0.51 0.44 0.43 0.47 0.47 0.46 0.43 0.39 0.36 0.30 0.27 0.26 0.25 0.24 0.24 0.27 0.25 0.25 0.25 0.29 0.34 0.37 0.37 0.46 0.54 0.53 0.49 0.50 0.51 0.47 0.51 0.48 0.40 0.39 0.45 0.81 1.08 0.69
0.36 0.38 0.58 0.74 0.66 0.61 0.54 0.48 0.44 0.46 0.46 0.41 0.37 0.37 0.31 0.25 0.25 0.25 0.23 0.22 0.23 0.27 0.26 0.25 0.30 0.34 0.40 0.48 0.51 0.52 0.48 0.51 0.55 0.64 0.87 1.28 0.91 0.57 0.50 0.46 0.60 0.64 0.61
0.39 0.40 0.49 0.76 0.74 0.71 0.63 0.56 0.54 0.53 0.50 0.43 0.38 0.35 0.31 0.27 0.27 0.28 0.25 0.24 0.24 0.26 0.29 0.30 0.31 0.35 0.41 0.48 0.51 0.49 0.45 0.49 0.56 0.63 0.93 1.34 1.24 0.88 0.70 0.64 0.70 0.58 0.58
0.38 0.42 0.59 0.82 0.77 0.77 0.71 0.67 0.67 0.62 0.57 0.49 0.43 0.41 0.38 0.35 0.30 0.30 0.29 0.28 0.28 0.29 0.31 0.33 0.34 0.38 0.44 0.44 0.41 0.40 0.42 0.53 0.65 0.59 0.82 1.11 1.45 1.17 0.81 0.83 0.88 0.75 0.64
0.43 0.44 0.60 0.77 0.72 0.74 0.72 0.72 0.75 0.66 0.59 0.53 0.47 0.45 0.46 0.42 0.38 0.37 0.37 0.41 0.39 0.40 0.38 0.40 0.41 0.44 0.45 0.46 0.42 0.42 0.52 0.59 0.56 0.71 0.85 1.10 1.47 1.22 0.93 0.92 0.92 1.00 0.79
0.50 0.44 0.48 0.63 0.64 0.70 0.68 0.64 0.72 0.70 0.67 0.56 0.49 0.46 0.46 0.44 0.45 0.45 0.49 0.51 0.52 0.52 0.49 0.49 0.48 0.45 0.46 0.51 0.47 0.47 0.58 0.57 0.64 0.82 0.83 1.07 1.15 1.10 0.96 0.92 0.99 1.18 1.06
0.61 0.51 0.44 0.53 0.60 0.65 0.65 0.70 0.83 0.83 0.74 0.60 0.50 0.50 0.50 0.52 0.50 0.51 0.52 0.52 0.58 0.64 0.63 0.57 0.55 0.47 0.47 0.53 0.51 0.52 0.62 0.64 0.63 0.71 0.68 0.90 1.13 1.16 0.93 0.90 0.98 1.15 1.22
0.88 0.74 0.59 0.57 0.61 0.72 0.79 0.83 0.95 0.98 0.90 0.73 0.59 0.59 0.59 0.54 0.50 0.49 0.54 0.56 0.58 0.62 0.64 0.61 0.59 0.54 0.53 0.54 0.54 0.57 0.68 0.70 0.67 0.64 0.56 0.87 1.17 1.09 0.90 0.83 0.88 1.02 1.16
0.93 0.88 0.80 0.74 0.75 0.82 0.88 1.02 1.12 1.22 1.32 1.07 0.78 0.69 0.65 0.55 0.50 0.52 0.53 0.56 0.60 0.69 0.68 0.66 0.66 0.61 0.63 0.59 0.54 0.54 0.61 0.57 0.56 0.54 0.61 0.78 1.08 1.11 0.89 0.79 0.79 0.79 0.88
0.68 0.72 0.77 0.80 0.86 0.87 0.82 0.89 1.11 1.29 1.47 1.20 0.83 0.85 0.77 0.55 0.56 0.60 0.60 0.72 0.76 0.81 0.82 0.81 0.82 0.80 0.78 0.69 0.62 0.57 0.47 0.34 0.46 0.54 0.63 0.77 1.05 1.08 0.85 0.71 0.59 0.61 0.64
0.55 0.52 0.54 0.57 0.66 0.73 0.72 0.93 1.18 1.22 1.34 1.09 0.92 0.95 0.92 0.97 0.91 0.70 0.69 0.88 0.98 1.03 0.97 0.96 0.99 0.91 0.79 0.61 0.60 0.54 0.32 0.29 0.42 0.49 0.54 0.79 1.08 1.06 0.85 0.65 0.53 0.52 0.50
0.43 0.40 0.39 0.41 0.44 0.53 0.74 0.98 1.20 1.25 1.29 1.33 1.36 1.22 1.20 1.16 0.96 0.79 0.76 0.80 0.87 0.95 0.89 0.99 0.99 0.84 0.73 0.60 0.55 0.42 0.30 0.33 0.47 0.48 0.59 0.79 1.02 1.00 0.88 0.72 0.57 0.52 0.48
0.46 0.44 0.38 0.30 0.31 0.39 0.53 0.75 1.03 1.10 1.16 1.24 1.24 1.04 1.13 1.13 0.95 0.89 0.97 1.00 0.97 0.95 1.06 1.10 1.06 0.99 0.82 0.64 0.60 0.55 0.46 0.37 0.46 0.54 0.69 0.65 0.91 1.02 0.91 0.82 0.66 0.60 0.54
0.54 0.61 0.59 0.43 0.37 0.39 0.45 0.50 0.64 0.74 0.85 1.13 1.21 0.95 0.93 0.95 0.99 1.02 0.93 1.07 1.13 1.12 1.12 1.11 1.01 0.95 0.92 0.80 0.78 0.76 0.67 0.52 0.52 0.56 0.71 0.59 0.68 0.92 0.99 0.92 0.82 0.69 0.63
0.37 0.49 0.57 0.55 0.54 0.52 0.45 0.40 0.40 0.46 0.59 0.74 0.76 0.72 0.75 0.78 0.88 1.05 0.98 0.97 1.04 1.22 1.27 1.20 1.09 1.09 1.06 0.88 0.84 0.90 0.79 0.69 0.66 0.67 0.77 0.65 0.46 0.51 0.74 0.88 0.89 0.81 0.72
0.27 0.33 0.42 0.50 0.56 0.58 0.59 0.58 0.48 0.47 0.54 0.56 0.56 0.62 0.69 0.69 0.82 0.99 0.95 0.85 0.83 0.99 1.16 1.27 1.29 1.22 1.08 0.96 0.88 0.88 0.79 0.74 0.72 0.84 0.84 0.78 0.59 0.38 0.47 0.67 0.79 0.83 0.81
0.26 0.25 0.31 0.36 0.43 0.53 0.62 0.69 0.66 0.62 0.58 0.52 0.49 0.47 0.50 0.52 0.61 0.80 0.87 0.78 0.78 0.94 1.14 1.29 1.37 1.40 1.26 1.19 1.14 1.00 0.87 0.80 0.76 0.84 0.88 0.88 0.84 0.64 0.56 0.51 0.56 0.66 0.78
0.25 0.23 0.24 0.28 0.33 0.40 0.51 0.58 0.58 0.57 0.54 0.52 0.52 0.41 0.39 0.41 0.53 0.73 0.91 0.94 0.94 1.03 1.14 1.19 1.36 1.41 1.42 1.32 1.21 1.05 0.93 0.88 0.80 0.75 0.86 0.91 0.92 0.85 0.78 0.54 0.43 0.44 0.58
0.25 0.24 0.24 0.26 0.27 0.31 0.36 0.43 0.48 0.46 0.44 0.50 0.49 0.47 0.51 0.58 0.65 0.84 1.06 1.15 1.26 1.27 1.29 1.42 1.68 1.65 1.49 1.43 1.34 1.11 0.91 0.88 0.86 0.83 0.80 0.89 0.98 0.94 0.83 0.70 0.55 0.36 0.39
0.19 0.18 0.19 0.24 0.27 0.25 0.24 0.29 0.34 0.35 0.44 0.51 0.59 0.64 0.69 0.72 0.79 1.00 1.21 1.44 1.56 1.43 1.41 1.58 1.81 1.95 1.76 1.60 1.57 1.40 1.18 0.96 0.89 0.89 0.85 0.92 1.02 1.04 0.97 0.95 0.79 0.63 0.49
0.06 0.09 0.13 0.15 0.18 0.18 0.18 0.23 0.32 0.39 0.45 0.58 0.74 0.85 0.87 0.85 0.90 0.95 1.15 1.35 1.42 1.45 1.47 1.56 1.72 2.00 1.92 1.73 1.77 2.00 1.77 1.45 1.01 0.82 0.90 0.96 1.07 1.07 0.98 0.87 0.87 0.80 0.70
0.04 0.04 0.07 0.12 0.16 0.16 0.23 0.41 0.68 0.92 1.01 1.02 1.04 1.19 1.28 1.24 1.19 1.16 1.19 1.32 1.40 1.52 1.53 1.56 1.59 1.77 1.88 1.82 1.85 2.24 2.06 1.81 1.63 1.12 0.87 0.95 1.06 1.14 1.08 1.01 0.97 0.94 0.85
0.04 0.05 0.06 0.11 0.16 0.20 0.36 0.68 1.07 1.40 1.48 1.49 1.61 1.65 1.71 1.63 1.50 1.47 1.47 1.56 1.50 1.48 1.45 1.46 1.46 1.60 1.85 1.89 1.84 1.78 1.73 1.72 1.94 1.64 1.13 0.98 1.03 1.04 1.08 1.02 1.03 1.07 1.08
0.11 0.13 0.15 0.21 0.34 0.51 0.66 0.83 1.13 1.32 1.44 1.58 1.74 1.88 1.99 2.11 2.08 2.00 1.92 1.77 1.59 1.51 1.50 1.53 1.53 1.59 1.67 1.74 1.72 1.67 1.67 1.61 1.45 1.53 1.46 1.21 1.05 0.96 1.00 1.05 1.07 1.08 1.18
0.25 0.28 0.32 0.41 0.51 0.58 0.70 0.84 0.98 1.07 1.23 1.43 1.58 1.75 1.88 2.00 2.03 1.97 1.84 1.61 1.44 1.37 1.43 1.55 1.56 1.59 1.58 1.61 1.58 1.48 1.47 1.47 1.38 1.45 1.37 1.36 1.36 1.04 0.91 0.92 0.99 1.00 1.01

GEFSSE_prec_meanprecacc_126.txt.gz
Total_Precipitation_Accumulation
0.70 0.54 0.94 0.91 0.77 0.69 0.63 0.60 0.63 0.66 0.59 0.52 0.49 0.44 0.39 0.36 0.35 0.34 0.33 0.30 0.33 0.31 0.31 0.31 0.33 0.39 0.39 0.38 0.45 0.53 0.58 0.46 0.43 0.42 0.35 0.35 0.39 0.36 0.39 0.52 0.89 1.23 0.68
0.41 0.43 0.88 0.89 0.73 0.64 0.58 0.57 0.62 0.62 0.60 0.55 0.50 0.47 0.38 0.31 0.31 0.30 0.29 0.28 0.31 0.30 0.29 0.28 0.31 0.37 0.41 0.40 0.49 0.58 0.56 0.51 0.52 0.52 0.49 0.52 0.49 0.41 0.40 0.45 0.82 1.11 0.73
0.37 0.40 0.63 0.85 0.78 0.71 0.65 0.59 0.58 0.59 0.59 0.51 0.46 0.46 0.39 0.30 0.29 0.30 0.28 0.27 0.27 0.31 0.29 0.29 0.33 0.37 0.43 0.51 0.53 0.54 0.51 0.52 0.55 0.64 0.88 1.31 0.93 0.58 0.52 0.47 0.61 0.66 0.64
0.41 0.43 0.53 0.85 0.84 0.80 0.73 0.66 0.65 0.63 0.59 0.53 0.46 0.43 0.37 0.32 0.31 0.33 0.29 0.28 0.28 0.30 0.33 0.34 0.34 0.38 0.43 0.50 0.53 0.50 0.46 0.51 0.56 0.64 0.94 1.36 1.27 0.90 0.72 0.67 0.72 0.60 0.62
0.40 0.46 0.63 0.90 0.85 0.85 0.79 0.78 0.79 0.72 0.67 0.59 0.51 0.48 0.44 0.40 0.34 0.33 0.31 0.30 0.31 0.33 0.34 0.36 0.37 0.41 0.45 0.46 0.43 0.41 0.43 0.55 0.67 0.59 0.82 1.13 1.49 1.20 0.85 0.87 0.92 0.77 0.68
0.44 0.46 0.63 0.84 0.79 0.81 0.81 0.83 0.84 0.73 0.66 0.59 0.52 0.51 0.50 0.46 0.40 0.38 0.38 0.42 0.40 0.41 0.40 0.41 0.42 0.46 0.48 0.47 0.43 0.42 0.53 0.61 0.58 0.72 0.86 1.12 1.51 1.26 0.98 0.96 0.95 1.03 0.84
0.51 0.45 0.50 0.69 0.72 0.77 0.75 0.70 0.77 0.74 0.70 0.60 0.52 0.49 0.49 0.46 0.46 0.46 0.49 0.51 0.52 0.52 0.49 0.49 0.49 0.47 0.48 0.52 0.48 0.47 0.59 0.59 0.65 0.84 0.85 1.09 1.17 1.14 1.01 0.96 1.01 1.21 1.09
0.62 0.52 0.46 0.57 0.66 0.69 0.69 0.73 0.85 0.84 0.76 0.61 0.51 0.51 0.51 0.52 0.51 0.51 0.52 0.52 0.58 0.64 0.63 0.57 0.55 0.48 0.48 0.54 0.52 0.53 0.63 0.66 0.65 0.72 0.69 0.91 1.15 1.20 0.97 0.94 1.01 1.17 1.25
0.89 0.75 0.61 0.59 0.63 0.74 0.80 0.84 0.96 0.99 0.91 0.73 0.59 0.59 0.59 0.54 0.50 0.50 0.54 0.56 0.58 0.62 0.64 0.62 0.60 0.55 0.53 0.54 0.55 0.58 0.69 0.71 0.68 0.67 0.57 0.90 1.19 1.12 0.94 0.87 0.91 1.05 1.18
0.93 0.88 0.80 0.74 0.75 0.82 0.88 1.02 1.12 1.22 1.32 1.07 0.79 0.70 0.65 0.55 0.50 0.52 0.54 0.56 0.60 0.69 0.69 0.67 0.67 0.62 0.64 0.60 0.56 0.55 0.62 0.58 0.57 0.57 0.64 0.80 1.10 1.12 0.94 0.83 0.81 0.82 0.91
0.68 0.72 0.77 0.80 0.86 0.87 0.82 0.89 1.12 1.29 1.47 1.20 0.83 0.85 0.77 0.55 0.56 0.60 0.60 0.72 0.77 0.81 0.82 0.82 0.83 0.81 0.79 0.71 0.64 0.59 0.48 0.34 0.46 0.56 0.66 0.78 1.07 1.11 0.89 0.76 0.62 0.64 0.68
0.55 0.52 0.54 0.57 0.66 0.73 0.72 0.93 1.18 1.22 1.34 1.09 0.92 0.95 0.92 0.97 0.91 0.70 0.69 0.88 0.98 1.03 0.98 0.96 0.99 0.92 0.80 0.63 0.62 0.55 0.33 0.30 0.43 0.51 0.57 0.81 1.10 1.09 0.89 0.70 0.56 0.56 0.56
0.43 0.40 0.39 0.41 0.44 0.53 0.74 0.98 1.20 1.25 1.29 1.33 1.36 1.22 1.20 1.16 0.96 0.79 0.76 0.80 0.87 0.95 0.90 0.99 0.99 0.84 0.73 0.61 0.57 0.43 0.30 0.33 0.47 0.50 0.61 0.81 1.04 1.04 0.93 0.77 0.61 0.55 0.53
0.46 0.44 0.38 0.30 0.31 0.39 0.53 0.75 1.03 1.10 1.16 1.24 1.24 1.04 1.13 1.13 0.95 0.89 0.97 1.00 0.97 0.95 1.07 1.11 1.06 0.99 0.83 0.65 0.60 0.56 0.46 0.38 0.47 0.56 0.71 0.67 0.93 1.06 0.97 0.85 0.70 0.63 0.57
0.54 0.61 0.59 0.43 0.37 0.39 0.45 0.50 0.64 0.74 0.85 1.13 1.21 0.95 0.93 0.95 0.99 1.02 0.93 1.07 1.13 1.13 1.13 1.11 1.01 0.95 0.92 0.80 0.78 0.76 0.68 0.52 0.53 0.57 0.73 0.61 0.71 0.96 1.05 0.96 0.86 0.73 0.66
0.38 0.49 0.57 0.55 0.54 0.52 0.45 0.40 0.40 0.46 0.59 0.74 0.76 0.72 0.75 0.78 0.88 1.05 0.98 0.97 1.04 1.22 1.28 1.21 1.10 1.10 1.06 0.88 0.84 0.90 0.80 0.70 0.68 0.69 0.80 0.67 0.49 0.54 0.79 0.93 0.94 0.86 0.76
0.28 0.33 0.42 0.50 0.56 0.58 0.59 0.58 0.48 0.47 0.54 0.56 0.56 0.62 0.69 0.69 0.82 0.99 0.95 0.86 0.83 0.99 1.16 1.28 1.30 1.23 1.08 0.97 0.89 0.88 0.80 0.75 0.74 0.87 0.87 0.81 0.62 0.42 0.51 0.72 0.84 0.88 0.87
0.26 0.25 0.31 0.36 0.43 0.53 0.62 0.69 0.66 0.62 0.58 0.52 0.49 0.47 0.50 0.52 0.61 0.80 0.88 0.79 0.78 0.94 1.14 1.30 1.39 1.41 1.27 1.20 1.16 1.01 0.89 0.82 0.79 0.87 0.91 0.92 0.89 0.69 0.59 0.53 0.59 0.70 0.82
0.26 0.23 0.24 0.28 0.33 0.40 0.51 0.58 0.58 0.57 0.54 0.52 0.52 0.41 0.39 0.41 0.53 0.73 0.91 0.94 0.95 1.04 1.15 1.20 1.37 1.42 1.45 1.34 1.23 1.06 0.95 0.91 0.83 0.78 0.90 0.94 0.97 0.89 0.80 0.55 0.44 0.46 0.61
0.25 0.24 0.24 0.26 0.27 0.31 0.36 0.43 0.48 0.46 0.44 0.50 0.49 0.47 0.51 0.58 0.65 0.84 1.06 1.15 1.26 1.28 1.30 1.44 1.70 1.68 1.51 1.46 1.36 1.14 0.94 0.90 0.89 0.87 0.84 0.93 1.01 0.96 0.85 0.72 0.58 0.38 0.41
0.19 0.18 0.19 0.24 0.27 0.25 0.24 0.29 0.34 0.35 0.44 0.51 0.59 0.64 0.69 0.72 0.79 1.00 1.21 1.44 1.57 1.44 1.42 1.59 1.83 1.97 1.78 1.62 1.60 1.44 1.22 0.99 0.93 0.93 0.89 0.96 1.05 1.06 1.00 0.97 0.83 0.67 0.52
0.06 0.09 0.13 0.15 0.18 0.18 0.18 0.23 0.32 0.39 0.45 0.58 0.74 0.85 0.87 0.85 0.90 0.95 1.15 1.35 1.42 1.46 1.48 1.56 1.73 2.02 1.94 1.75 1.80 2.05 1.82 1.50 1.05 0.85 0.94 1.00 1.10 1.10 1.01 0.89 0.89 0.83 0.73
0.04 0.04 0.07 0.12 0.16 0.16 0.23 0.41 0.68 0.92 1.01 1.02 1.04 1.19 1.28 1.24 1.19 1.16 1.19 1.32 1.40 1.53 1.54 1.57 1.61 1.79 1.90 1.84 1.87 2.27 2.10 1.85 1.66 1.16 0.90 0.98 1.10 1.18 1.12 1.04 0.99 0.96 0.89
0.04 0.05 0.06 0.11 0.16 0.20 0.36 0.68 1.07 1.40 1.48 1.49 1.61 1.65 1.71 1.63 1.50 1.47 1.48 1.56 1.50 1.49 1.46 1.47 1.47 1.61 1.88 1.93 1.86 1.79 1.75 1.74 1.96 1.67 1.17 1.02 1.07 1.08 1.11 1.05 1.06 1.10 1.12
0.11 0.13 0.15 0.21 0.34 0.51 0.66 0.83 1.13 1.32 1.44 1.58 1.74 1.88 1.99 2.11 2.08 2.00 1.92 1.77 1.59 1.51 1.51 1.54 1.54 1.60 1.69 1.77 1.74 1.69 1.69 1.63 1.47 1.57 1.51 1.26 1.09 0.99 1.03 1.09 1.11 1.12 1.21
0.25 0.28 0.32 0.41 0.51 0.58 0.70 0.84 0.98 1.07 1.23 1.43 1.58 1.75 1.88 2.00 2.03 1.97 1.84 1.61 1.44 1.38 1.44 1.55 1.57 1.60 1.59 1.63 1.60 1.50 1.50 1.50 1.41 1.49 1.41 1.40 1.39 1.06 0.94 0.96 1.02 1.04 1.05

GEFSSE_prec_meanprecacc_132.txt.gz
Total_Precipitation_Accumulation
0.84 0.59 0.97 0.97 0.84 0.76 0.70 0.69 0.71 0.77 0.71 0.61 0.59 0.55 0.49 0.43 0.40 0.37 0.35 0.31 0.34 0.33 0.34 0.34 0.35 0.41 0.42 0.40 0.47 0.54 0.59 0.47 0.44 0.42 0.36 0.35 0.40 0.37 0.41 0.55 0.94 1.28 0.71
0.46 0.45 0.91 0.93 0.79 0.71 0.65 0.65 0.72 0.73 0.71 0.65 0.60 0.57 0.47 0.37 0.35 0.35 0.32 0.31 0.32 0.31 0.31 0.31 0.32 0.39 0.43 0.43 0.51 0.59 0.57 0.51 0.52 0.53 0.51 0.55 0.51 0.43 0.41 0.47 0.85 1.15 0.76
0.38 0.41 0.65 0.88 0.82 0.78 0.72 0.67 0.66 0.67 0.68 0.60 0.55 0.54 0.48 0.38 0.35 0.34 0.32 0.30 0.29 0.33 0.31 0.31 0.34 0.39 0.46 0.54 0.55 0.55 0.51 0.53 0.56 0.66 0.95 1.41 1.00 0.60 0.53 0.48 0.63 0.69 0.68
0.43 0.46 0.55 0.87 0.87 0.85 0.77 0.72 0.71 0.69 0.66 0.58 0.52 0.49 0.44 0.38 0.36 0.36 0.33 0.31 0.30 0.31 0.34 0.35 0.35 0.40 0.45 0.52 0.54 0.51 0.46 0.51 0.57 0.68 1.04 1.48 1.37 0.94 0.74 0.69 0.74 0.62 0.66
0.43 0.48 0.65 0.92 0.89 0.89 0.84 0.85 0.88 0.80 0.73 0.64 0.55 0.52 0.50 0.46 0.38 0.35 0.33 0.31 0.32 0.33 0.35 0.36 0.38 0.42 0.47 0.48 0.45 0.42 0.44 0.56 0.69 0.62 0.89 1.25 1.62 1.28 0.87 0.88 0.94 0.80 0.72
0.46 0.47 0.63 0.85 0.82 0.84 0.86 0.88 0.89 0.77 0.70 0.62 0.54 0.53 0.54 0.50 0.44 0.40 0.40 0.42 0.40 0.42 0.41 0.42 0.42 0.47 0.48 0.48 0.44 0.43 0.54 0.62 0.62 0.75 0.91 1.21 1.63 1.34 1.00 0.97 0.96 1.06 0.90
0.53 0.46 0.51 0.72 0.77 0.81 0.79 0.74 0.81 0.78 0.73 0.61 0.54 0.52 0.51 0.48 0.48 0.48 0.51 0.52 0.52 0.52 0.50 0.51 0.50 0.47 0.48 0.53 0.49 0.49 0.60 0.60 0.68 0.86 0.88 1.16 1.26 1.19 1.03 0.97 1.03 1.25 1.14
0.63 0.53 0.48 0.61 0.70 0.72 0.71 0.76 0.86 0.85 0.77 0.62 0.52 0.52 0.51 0.52 0.51 0.52 0.53 0.53 0.58 0.64 0.63 0.58 0.57 0.49 0.49 0.55 0.52 0.54 0.64 0.67 0.67 0.75 0.72 0.96 1.20 1.24 0.99 0.95 1.03 1.21 1.29
0.89 0.75 0.61 0.60 0.65 0.75 0.81 0.85 0.96 0.99 0.91 0.73 0.59 0.59 0.59 0.54 0.50 0.50 0.54 0.56 0.58 0.62 0.64 0.62 0.61 0.56 0.54 0.55 0.55 0.59 0.70 0.72 0.71 0.70 0.61 0.94 1.23 1.15 0.95 0.88 0.93 1.08 1.22
0.93 0.88 0.80 0.74 0.75 0.82 0.88 1.02 1.12 1.22 1.32 1.07 0.79 0.70 0.65 0.55 0.50 0.52 0.54 0.57 0.60 0.69 0.69 0.67 0.68 0.64 0.65 0.61 0.57 0.56 0.62 0.59 0.59 0.59 0.68 0.83 1.13 1.15 0.95 0.85 0.83 0.84 0.94
0.68 0.72 0.77 0.80 0.86 0.87 0.82 0.89 1.12 1.29 1.47 1.20 0.84 0.85 0.77 0.55 0.56 0.60 0.60 0.72 0.77 0.81 0.82 0.82 0.83 0.82 0.80 0.71 0.65 0.59 0.49 0.36 0.47 0.59 0.71 0.82 1.11 1.14 0.90 0.77 0.63 0.65 0.70
0.55 0.52 0.54 0.57 0.66 0.73 0.72 0.93 1.18 1.22 1.35 1.09 0.92 0.95 0.92 0.97 0.91 0.70 0.69 0.88 0.98 1.04 0.98 0.96 0.99 0.92 0.80 0.63 0.63 0.55 0.35 0.33 0.44 0.52 0.59 0.83 1.14 1.11 0.90 0.71 0.58 0.57 0.57
0.43 0.40 0.39 0.41 0.44 0.53 0.74 0.98 1.20 1.25 1.29 1.33 1.36 1.22 1.20 1.16 0.96 0.79 0.76 0.80 0.87 0.95 0.90 0.99 0.99 0.84 0.74 0.62 0.58 0.44 0.31 0.36 0.50 0.52 0.62 0.82 1.07 1.06 0.94 0.78 0.63 0.57 0.56
0.46 0.44 0.38 0.30 0.31 0.39 0.53 0.75 1.03 1.10 1.16 1.24 1.24 1.04 1.13 1.13 0.95 0.89 0.97 1.00 0.97 0.95 1.07 1.11 1.07 1.01 0.84 0.65 0.61 0.57 0.47 0.39 0.49 0.58 0.72 0.69 0.95 1.09 1.00 0.87 0.73 0.66 0.59
0.54 0.61 0.59 0.43 0.37 0.39 0.45 0.50 0.64 0.74 0.85 1.13 1.21 0.95 0.93 0.95 0.99 1.02 0.93 1.07 1.13 1.13 1.13 1.11 1.02 0.96 0.94 0.81 0.78 0.77 0.69 0.54 0.54 0.58 0.75 0.63 0.73 1.00 1.09 0.99 0.89 0.76 0.68
0.38 0.50 0.57 0.55 0.54 0.52 0.45 0.40 0.40 0.46 0.59 0.74 0.76 0.72 0.75 0.78 0.88 1.05 0.98 0.97 1.05 1.23 1.28 1.21 1.10 1.10 1.07 0.90 0.85 0.91 0.81 0.71 0.70 0.72 0.82 0.69 0.50 0.57 0.83 0.97 0.98 0.89 0.78
0.28 0.33 0.43 0.50 0.56 0.58 0.59 0.58 0.48 0.47 0.54 0.56 0.56 0.62 0.69 0.69 0.82 0.99 0.95 0.86 0.83 0.99 1.17 1.29 1.31 1.24 1.09 0.98 0.91 0.90 0.81 0.77 0.76 0.90 0.90 0.84 0.65 0.43 0.53 0.74 0.87 0.91 0.89
0.26 0.25 0.31 0.36 0.43 0.53 0.62 0.69 0.66 0.62 0.58 0.52 0.49 0.47 0.50 0.52 0.61 0.80 0.88 0.79 0.78 0.95 1.15 1.32 1.41 1.44 1.30 1.23 1.19 1.04 0.90 0.85 0.81 0.90 0.93 0.95 0.93 0.72 0.60 0.54 0.61 0.73 0.85
0.26 0.24 0.24 0.29 0.33 0.40 0.51 0.58 0.58 0.57 0.54 0.52 0.52 0.41 0.39 0.41 0.53 0.73 0.91 0.95 0.95 1.05 1.17 1.22 1.40 1.46 1.50 1.39 1.25 1.09 0.98 0.95 0.86 0.80 0.93 0.97 1.00 0.94 0.82 0.55 0.44 0.47 0.63
0.25 0.24 0.24 0.26 0.27 0.31 0.36 0.43 0.48 0.46 0.44 0.50 0.49 0.47 0.51 0.58 0.65 0.84 1.06 1.15 1.27 1.29 1.33 1.48 1.74 1.73 1.58 1.52 1.40 1.18 0.99 0.95 0.93 0.91 0.90 0.96 1.06 0.99 0.88 0.75 0.60 0.39 0.42
0.19 0.18 0.19 0.24 0.27 0.25 0.24 0.29 0.34 0.35 0.44 0.51 0.59 0.64 0.69 0.72 0.79 1.00 1.21 1.45 1.58 1.46 1.46 1.63 1.88 2.03 1.84 1.67 1.66 1.53 1.31 1.06 0.98 0.99 0.94 1.01 1.09 1.09 1.04 1.02 0.89 0.72 0.54
0.06 0.09 0.13 0.15 0.18 0.18 0.18 0.23 0.32 0.39 0.45 0.58 0.74 0.85 0.87 0.85 0.90 0.95 1.15 1.36 1.43 1.47 1.50 1.59 1.78 2.08 1.99 1.78 1.87 2.16 1.93 1.60 1.13 0.90 0.99 1.04 1.14 1.14 1.05 0.94 0.95 0.88 0.79
0.04 0.04 0.07 0.12 0.16 0.16 0.23 0.41 0.68 0.92 1.01 1.02 1.04 1.19 1.28 1.24 1.19 1.16 1.19 1.34 1.42 1.54 1.55 1.59 1.64 1.85 1.97 1.89 1.91 2.34 2.18 1.94 1.75 1.23 0.96 1.02 1.15 1.23 1.17 1.10 1.04 1.00 0.93
0.04 0.05 0.06 0.11 0.16 0.20 0.36 0.68 1.07 1.40 1.48 1.49 1.61 1.66 1.71 1.63 1.50 1.48 1.48 1.57 1.52 1.50 1.47 1.49 1.50 1.65 1.93 1.98 1.90 1.83 1.79 1.79 2.04 1.73 1.22 1.07 1.11 1.13 1.17 1.11 1.13 1.15 1.17
0.11 0.13 0.15 0.21 0.34 0.51 0.66 0.83 1.13 1.32 1.44 1.58 1.74 1.88 1.99 2.11 2.08 2.00 1.93 1.78 1.61 1.52 1.53 1.56 1.56 1.63 1.71 1.81 1.80 1.74 1.74 1.67 1.52 1.63 1.57 1.32 1.15 1.05 1.09 1.16 1.19 1.21 1.28
0.25 0.28 0.32 0.41 0.51 0.58 0.70 0.84 0.98 1.07 1.23 1.43 1.58 1.75 1.88 2.01 2.03 1.97 1.84 1.62 1.45 1.39 1.45 1.56 1.58 1.62 1.61 1.66 1.64 1.57 1.57 1.55 1.45 1.53 1.49 1.48 1.47 1.13 0.98 1.01 1.09 1.13 1.13

GEFSSE_prec_meanprecacc_138.txt.gz
Total_Precipitation_Accumulation
0.93 0.64 1.06 1.04 0.87 0.79 0.73 0.72 0.74 0.82 0.77 0.65 0.64 0.60 0.52 0.45 0.41 0.39 0.36 0.32 0.35 0.34 0.35 0.35 0.37 0.43 0.44 0.42 0.50 0.57 0.62 0.51 0.47 0.47 0.39 0.37 0.43 0.40 0.43 0.57 0.97 1.30 0.74
0.51 0.49 0.99 0.99 0.82 0.73 0.66 0.67 0.75 0.77 0.75 0.68 0.64 0.60 0.50 0.39 0.37 0.36 0.33 0.31 0.33 0.32 0.33 0.32 0.33 0.41 0.46 0.46 0.55 0.63 0.60 0.54 0.56 0.58 0.54 0.56 0.53 0.45 0.43 0.51 0.87 1.17 0.79
0.40 0.43 0.69 0.93 0.86 0.80 0.74 0.68 0.68 0.70 0.72 0.63 0.57 0.57 0.52 0.42 0.38 0.36 0.33 0.31 0.30 0.34 0.32 0.32 0.35 0.41 0.48 0.56 0.57 0.58 0.54 0.56 0.60 0.71 0.99 1.45 1.02 0.62 0.54 0.50 0.64 0.71 0.71
0.44 0.47 0.57 0.91 0.91 0.88 0.80 0.75 0.73 0.71 0.68 0.61 0.55 0.51 0.48 0.41 0.38 0.39 0.34 0.32 0.31 0.31 0.34 0.35 0.36 0.41 0.46 0.53 0.55 0.52 0.48 0.53 0.61 0.72 1.08 1.51 1.40 0.97 0.76 0.71 0.76 0.64 0.68
0.43 0.49 0.67 0.95 0.91 0.91 0.86 0.87 0.89 0.81 0.76 0.66 0.56 0.53 0.51 0.48 0.41 0.38 0.35 0.33 0.33 0.34 0.35 0.37 0.38 0.42 0.48 0.49 0.45 0.43 0.45 0.58 0.72 0.65 0.92 1.28 1.64 1.33 0.91 0.90 0.96 0.82 0.74
0.47 0.47 0.64 0.88 0.84 0.86 0.87 0.89 0.90 0.78 0.71 0.63 0.55 0.54 0.55 0.53 0.46 0.42 0.42 0.44 0.41 0.42 0.41 0.42 0.43 0.47 0.49 0.48 0.45 0.44 0.55 0.64 0.64 0.77 0.94 1.24 1.65 1.40 1.05 1.01 0.98 1.08 0.93
0.54 0.46 0.52 0.75 0.79 0.83 0.81 0.76 0.81 0.79 0.73 0.62 0.55 0.54 0.53 0.49 0.49 0.49 0.53 0.52 0.52 0.53 0.50 0.51 0.51 0.48 0.49 0.53 0.49 0.49 0.61 0.63 0.70 0.89 0.91 1.17 1.28 1.24 1.06 1.00 1.06 1.28 1.16
0.63 0.53 0.50 0.66 0.74 0.75 0.74 0.78 0.87 0.86 0.78 0.63 0.54 0.54 0.53 0.54 0.53 0.52 0.53 0.53 0.59 0.64 0.64 0.58 0.57 0.49 0.49 0.55 0.53 0.55 0.66 0.70 0.69 0.78 0.74 0.97 1.24 1.27 1.01 0.98 1.05 1.23 1.31
0.89 0.75 0.62 0.61 0.67 0.76 0.82 0.85 0.96 1.00 0.92 0.74 0.60 0.59 0.59 0.55 0.50 0.50 0.54 0.57 0.58 0.62 0.64 0.62 0.62 0.57 0.54 0.55 0.56 0.60 0.71 0.74 0.73 0.73 0.62 0.95 1.27 1.19 0.97 0.90 0.94 1.09 1.23
0.94 0.88 0.80 0.74 0.75 0.82 0.89 1.03 1.12 1.22 1.32 1.07 0.79 0.70 0.65 0.55 0.50 0.52 0.54 0.57 0.61 0.69 0.69 0.67 0.68 0.64 0.65 0.61 0.57 0.57 0.63 0.61 0.62 0.62 0.71 0.87 1.17 1.19 0.98 0.86 0.84 0.85 0.94
0.68 0.72 0.77 0.80 0.86 0.87 0.82 0.89 1.12 1.29 1.47 1.20 0.84 0.85 0.77 0.55 0.56 0.60 0.60 0.72 0.78 0.82 0.83 0.83 0.84 0.82 0.80 0.72 0.66 0.61 0.50 0.38 0.50 0.61 0.74 0.86 1.15 1.18 0.94 0.80 0.64 0.66 0.70
0.55 0.52 0.54 0.57 0.66 0.73 0.72 0.93 1.18 1.22 1.35 1.09 0.92 0.95 0.92 0.97 0.91 0.70 0.69 0.88 0.99 1.04 0.99 0.97 1.00 0.93 0.80 0.63 0.64 0.56 0.36 0.35 0.47 0.55 0.61 0.87 1.17 1.15 0.93 0.74 0.59 0.58 0.59
0.43 0.40 0.39 0.41 0.44 0.53 0.74 0.98 1.20 1.25 1.29 1.33 1.37 1.23 1.20 1.16 0.96 0.79 0.76 0.80 0.87 0.95 0.90 1.00 1.00 0.85 0.75 0.62 0.58 0.45 0.33 0.39 0.53 0.54 0.64 0.86 1.12 1.09 0.96 0.81 0.64 0.59 0.58
0.46 0.44 0.38 0.30 0.31 0.39 0.53 0.75 1.03 1.10 1.16 1.24 1.24 1.04 1.13 1.14 0.95 0.89 0.97 1.00 0.97 0.95 1.07 1.11 1.07 1.01 0.84 0.65 0.61 0.58 0.50 0.43 0.52 0.59 0.74 0.72 0.99 1.13 1.02 0.90 0.75 0.68 0.62
0.54 0.61 0.59 0.43 0.37 0.39 0.45 0.50 0.64 0.74 0.85 1.13 1.21 0.95 0.93 0.95 0.99 1.02 0.93 1.07 1.13 1.13 1.13 1.12 1.02 0.97 0.94 0.81 0.79 0.79 0.72 0.57 0.56 0.59 0.76 0.66 0.77 1.04 1.13 1.02 0.92 0.80 0.71
0.38 0.50 0.57 0.55 0.54 0.52 0.45 0.40 0.40 0.46 0.59 0.74 0.76 0.72 0.75 0.78 0.88 1.05 0.99 0.97 1.05 1.23 1.28 1.22 1.11 1.11 1.08 0.91 0.87 0.93 0.84 0.75 0.72 0.73 0.83 0.71 0.53 0.60 0.87 1.02 1.02 0.93 0.82
0.28 0.34 0.43 0.50 0.56 0.58 0.60 0.58 0.48 0.47 0.54 0.56 0.56 0.62 0.69 0.69 0.82 0.99 0.95 0.86 0.84 0.99 1.17 1.30 1.32 1.25 1.11 1.00 0.93 0.94 0.85 0.81 0.79 0.91 0.91 0.84 0.66 0.45 0.57 0.79 0.93 0.95 0.93
0.27 0.26 0.32 0.36 0.43 0.53 0.62 0.69 0.66 0.62 0.58 0.52 0.49 0.47 0.50 0.52 0.61 0.80 0.88 0.79 0.79 0.95 1.16 1.33 1.42 1.45 1.31 1.24 1.21 1.09 0.95 0.89 0.85 0.93 0.96 0.96 0.94 0.73 0.62 0.57 0.64 0.77 0.89
0.26 0.24 0.24 0.29 0.33 0.40 0.51 0.58 0.58 0.57 0.54 0.52 0.52 0.41 0.39 0.41 0.53 0.73 0.91 0.95 0.96 1.06 1.17 1.22 1.40 1.46 1.50 1.40 1.27 1.14 1.03 0.99 0.91 0.85 0.96 0.99 1.01 0.95 0.83 0.56 0.46 0.49 0.66
0.25 0.24 0.24 0.26 0.27 0.31 0.36 0.43 0.48 0.46 0.44 0.50 0.49 0.47 0.51 0.58 0.65 0.84 1.06 1.15 1.27 1.29 1.33 1.48 1.75 1.74 1.58 1.53 1.42 1.22 1.03 1.00 0.99 0.96 0.94 1.00 1.08 1.01 0.89 0.75 0.61 0.40 0.44
0.19 0.18 0.19 0.24 0.27 0.25 0.24 0.29 0.34 0.35 0.44 0.51 0.59 0.64 0.69 0.72 0.80 1.01 1.22 1.45 1.58 1.46 1.46 1.64 1.88 2.03 1.85 1.67 1.67 1.56 1.36 1.15 1.06 1.05 0.99 1.07 1.15 1.13 1.06 1.04 0.90 0.73 0.55
0.06 0.09 0.13 0.15 0.18 0.18 0.18 0.23 0.32 0.39 0.45 0.58 0.74 0.85 0.87 0.85 0.90 0.96 1.16 1.36 1.44 1.47 1.50 1.59 1.78 2.09 2.00 1.79 1.87 2.17 1.94 1.65 1.21 0.98 1.07 1.12 1.21 1.20 1.10 0.99 0.98 0.90 0.80
0.04 0.04 0.07 0.12 0.16 0.16 0.23 0.41 0.68 0.92 1.01 1.02 1.04 1.19 1.28 1.24 1.19 1.17 1.20 1.34 1.42 1.54 1.56 1.59 1.64 1.85 1.97 1.89 1.91 2.34 2.19 1.95 1.79 1.31 1.03 1.09 1.21 1.29 1.25 1.18 1.10 1.04 0.95
0.05 0.05 0.06 0.11 0.16 0.20 0.36 0.68 1.07 1.40 1.48 1.49 1.61 1.66 1.71 1.63 1.50 1.48 1.49 1.57 1.52 1.50 1.48 1.49 1.50 1.65 1.93 1.99 1.91 1.84 1.79 1.79 2.06 1.77 1.26 1.12 1.17 1.19 1.24 1.19 1.20 1.19 1.19
0.11 0.13 0.15 0.21 0.34 0.51 0.66 0.83 1.13 1.32 1.44 1.58 1.74 1.88 1.99 2.11 2.08 2.00 1.93 1.79 1.61 1.52 1.54 1.57 1.57 1.63 1.72 1.82 1.81 1.75 1.74 1.67 1.52 1.64 1.60 1.36 1.20 1.10 1.16 1.22 1.25 1.26 1.33
0.25 0.28 0.32 0.41 0.51 0.58 0.70 0.84 0.98 1.07 1.23 1.43 1.58 1.75 1.88 2.01 2.04 1.98 1.85 1.63 1.45 1.40 1.46 1.58 1.60 1.63 1.62 1.67 1.65 1.58 1.58 1.56 1.46 1.54 1.49 1.50 1.50 1.16 1.03 1.06 1.14 1.18 1.17

GEFSSE_prec_meanprecacc_144.txt.gz
Total_Precipitation_Accumulation
0.96 0.72 1.21 1.19 1.00 0.88 0.80 0.77 0.81 0.90 0.85 0.75 0.73 0.67 0.57 0.49 0.45 0.42 0.38 0.35 0.38 0.38 0.38 0.37 0.40 0.46 0.47 0.45 0.54 0.61 0.64 0.52 0.49 0.49 0.41 0.40 0.47 0.43 0.46 0.60 0.99 1.33 0.78
0.54 0.56 1.14 1.14 0.94 0.80 0.73 0.74 0.83 0.88 0.87 0.78 0.72 0.67 0.56 0.45 0.43 0.40 0.36 0.33 0.35 0.34 0.35 0.35 0.36 0.44 0.49 0.49 0.59 0.67 0.63 0.57 0.59 0.61 0.57 0.59 0.55 0.47 0.45 0.54 0.90 1.20 0.82
0.43 0.49 0.81 1.07 0.96 0.89 0.83 0.76 0.75 0.79 0.81 0.71 0.65 0.63 0.58 0.47 0.41 0.38 0.35 0.33 0.31 0.36 0.34 0.35 0.38 0.44 0.51 0.58 0.60 0.61 0.57 0.59 0.64 0.75 1.03 1.47 1.03 0.64 0.57 0.53 0.68 0.75 0.74
0.46 0.50 0.63 1.01 0.99 0.95 0.87 0.82 0.81 0.78 0.75 0.68 0.61 0.56 0.52 0.46 0.42 0.42 0.37 0.36 0.33 0.33 0.36 0.37 0.37 0.43 0.48 0.54 0.57 0.55 0.50 0.56 0.65 0.76 1.11 1.53 1.41 0.99 0.79 0.74 0.80 0.67 0.72
0.45 0.50 0.71 1.05 0.99 0.98 0.94 0.95 0.98 0.88 0.82 0.72 0.61 0.59 0.55 0.53 0.48 0.44 0.41 0.39 0.37 0.37 0.37 0.38 0.38 0.44 0.50 0.50 0.48 0.47 0.49 0.61 0.75 0.67 0.94 1.28 1.65 1.36 0.95 0.93 0.99 0.85 0.78
0.47 0.48 0.68 0.96 0.92 0.93 0.95 0.98 0.98 0.84 0.76 0.67 0.59 0.59 0.60 0.57 0.51 0.48 0.48 0.47 0.44 0.45 0.43 0.44 0.43 0.48 0.51 0.50 0.48 0.49 0.61 0.69 0.66 0.78 0.96 1.25 1.66 1.43 1.09 1.04 1.00 1.10 0.95
0.55 0.47 0.56 0.82 0.87 0.91 0.89 0.81 0.86 0.83 0.78 0.68 0.61 0.59 0.57 0.54 0.54 0.53 0.57 0.54 0.54 0.54 0.51 0.52 0.51 0.49 0.50 0.55 0.52 0.55 0.67 0.66 0.71 0.90 0.92 1.18 1.30 1.28 1.10 1.03 1.08 1.30 1.19
0.64 0.54 0.52 0.72 0.82 0.82 0.82 0.82 0.90 0.89 0.81 0.68 0.59 0.59 0.58 0.58 0.56 0.55 0.55 0.54 0.59 0.65 0.64 0.58 0.58 0.51 0.51 0.57 0.56 0.59 0.71 0.72 0.70 0.79 0.74 0.98 1.30 1.33 1.04 1.01 1.08 1.26 1.33
0.90 0.76 0.63 0.65 0.72 0.80 0.85 0.88 0.98 1.01 0.95 0.77 0.62 0.61 0.61 0.56 0.51 0.50 0.55 0.57 0.59 0.62 0.65 0.63 0.63 0.58 0.55 0.57 0.58 0.63 0.75 0.76 0.75 0.74 0.63 0.96 1.32 1.24 0.99 0.91 0.95 1.12 1.25
0.95 0.90 0.81 0.75 0.76 0.84 0.90 1.03 1.13 1.22 1.33 1.08 0.79 0.70 0.66 0.55 0.50 0.52 0.54 0.58 0.62 0.70 0.69 0.68 0.69 0.65 0.66 0.62 0.60 0.60 0.66 0.62 0.64 0.63 0.73 0.89 1.21 1.22 0.99 0.87 0.85 0.87 0.96
0.69 0.73 0.77 0.80 0.86 0.87 0.82 0.89 1.12 1.30 1.47 1.21 0.84 0.85 0.77 0.55 0.56 0.60 0.60 0.73 0.79 0.83 0.84 0.84 0.85 0.84 0.82 0.73 0.70 0.64 0.52 0.39 0.52 0.64 0.77 0.91 1.20 1.20 0.95 0.81 0.66 0.67 0.72
0.55 0.52 0.54 0.57 0.66 0.73 0.72 0.93 1.18 1.22 1.35 1.09 0.92 0.96 0.92 0.97 0.91 0.70 0.69 0.88 1.00 1.07 1.00 0.98 1.02 0.95 0.82 0.64 0.65 0.57 0.37 0.36 0.50 0.58 0.65 0.93 1.23 1.18 0.94 0.75 0.60 0.60 0.61
0.43 0.40 0.39 0.41 0.44 0.53 0.74 0.98 1.20 1.25 1.29 1.33 1.37 1.23 1.20 1.16 0.96 0.79 0.76 0.80 0.87 0.96 0.91 1.00 1.01 0.85 0.75 0.63 0.59 0.46 0.34 0.40 0.56 0.57 0.69 0.93 1.17 1.14 0.98 0.83 0.66 0.61 0.60
0.46 0.44 0.38 0.30 0.31 0.39 0.53 0.75 1.03 1.10 1.16 1.24 1.24 1.04 1.13 1.14 0.95 0.89 0.97 1.00 0.97 0.95 1.07 1.12 1.08 1.02 0.84 0.66 0.62 0.58 0.51 0.44 0.52 0.60 0.76 0.76 1.06 1.20 1.06 0.93 0.78 0.71 0.65
0.54 0.61 0.59 0.43 0.37 0.39 0.45 0.50 0.64 0.74 0.85 1.13 1.21 0.95 0.93 0.95 0.99 1.02 0.93 1.07 1.13 1.13 1.13 1.12 1.02 0.97 0.94 0.82 0.80 0.79 0.72 0.57 0.57 0.59 0.77 0.69 0.82 1.12 1.20 1.08 0.97 0.85 0.75
0.38 0.50 0.57 0.55 0.54 0.52 0.45 0.40 0.40 0.46 0.59 0.74 0.76 0.72 0.75 0.78 0.88 1.05 0.99 0.97 1.05 1.23 1.28 1.22 1.11 1.12 1.09 0.91 0.88 0.94 0.85 0.76 0.72 0.73 0.84 0.72 0.56 0.65 0.94 1.10 1.10 1.02 0.86
0.28 0.34 0.43 0.50 0.56 0.58 0.60 0.58 0.48 0.47 0.54 0.56 0.56 0.62 0.69 0.69 0.82 0.99 0.95 0.86 0.84 0.99 1.17 1.30 1.32 1.26 1.12 1.01 0.95 0.96 0.86 0.82 0.81 0.92 0.91 0.85 0.67 0.49 0.63 0.86 1.02 1.06 1.01
0.27 0.26 0.32 0.36 0.43 0.53 0.62 0.69 0.66 0.62 0.58 0.52 0.49 0.47 0.50 0.52 0.61 0.80 0.88 0.79 0.79 0.95 1.16 1.33 1.42 1.45 1.31 1.25 1.22 1.11 0.96 0.90 0.86 0.94 0.96 0.97 0.95 0.76 0.65 0.60 0.71 0.86 0.98
0.26 0.24 0.25 0.29 0.33 0.40 0.51 0.58 0.58 0.57 0.54 0.52 0.52 0.41 0.39 0.41 0.53 0.73 0.91 0.96 0.96 1.06 1.17 1.22 1.41 1.47 1.51 1.41 1.28 1.16 1.05 1.01 0.93 0.87 0.98 1.00 1.02 0.97 0.85 0.58 0.49 0.55 0.72
0.25 0.25 0.24 0.26 0.27 0.31 0.36 0.43 0.48 0.46 0.44 0.50 0.49 0.47 0.51 0.58 0.65 0.84 1.06 1.16 1.27 1.29 1.33 1.48 1.75 1.74 1.60 1.54 1.44 1.24 1.06 1.04 1.02 0.99 0.97 1.02 1.10 1.02 0.90 0.76 0.62 0.42 0.46
0.19 0.18 0.19 0.24 0.27 0.25 0.24 0.29 0.34 0.35 0.44 0.51 0.59 0.64 0.69 0.72 0.80 1.01 1.22 1.45 1.58 1.46 1.46 1.65 1.88 2.03 1.87 1.69 1.69 1.58 1.39 1.18 1.10 1.08 1.03 1.09 1.17 1.15 1.08 1.04 0.91 0.74 0.56
0.06 0.09 0.13 0.15 0.18 0.18 0.18 0.23 0.32 0.39 0.45 0.58 0.74 0.85 0.87 0.85 0.90 0.96 1.16 1.36 1.44 1.47 1.50 1.60 1.78 2.09 2.00 1.80 1.88 2.18 1.96 1.68 1.24 1.01 1.11 1.16 1.25 1.23 1.13 1.01 1.00 0.91 0.81
0.04 0.04 0.07 0.12 0.16 0.16 0.23 0.41 0.68 0.92 1.01 1.02 1.04 1.19 1.28 1.24 1.19 1.17 1.20 1.34 1.42 1.54 1.56 1.59 1.65 1.85 1.97 1.90 1.92 2.35 2.21 1.97 1.80 1.34 1.08 1.14 1.27 1.34 1.31 1.23 1.12 1.06 0.96
0.05 0.05 0.06 0.11 0.16 0.20 0.36 0.68 1.07 1.40 1.48 1.49 1.61 1.66 1.71 1.63 1.50 1.48 1.49 1.57 1.52 1.50 1.48 1.49 1.50 1.65 1.94 1.99 1.91 1.84 1.81 1.82 2.08 1.79 1.30 1.16 1.21 1.22 1.30 1.25 1.24 1.22 1.21
0.12 0.13 0.15 0.21 0.34 0.51 0.66 0.83 1.13 1.32 1.44 1.58 1.74 1.88 1.99 2.11 2.08 2.00 1.93 1.79 1.61 1.52 1.54 1.57 1.57 1.63 1.72 1.82 1.81 1.75 1.75 1.68 1.54 1.66 1.62 1.39 1.22 1.12 1.19 1.27 1.29 1.29 1.35
0.26 0.28 0.32 0.41 0.51 0.58 0.70 0.84 0.98 1.07 1.23 1.43 1.58 1.75 1.88 2.01 2.04 1.98 1.85 1.63 1.46 1.40 1.46 1.58 1.60 1.63 1.62 1.67 1.65 1.58 1.58 1.56 1.46 1.55 1.51 1.52 1.52 1.17 1.05 1.09 1.18 1.21 1.20

GEFSSE_prec_meanprecacc_150.txt.gz
Total_Precipitation_Accumulation
0.99 0.77 1.32 1.34 1.21 1.05 0.96 0.92 0.95 1.05 1.01 0.90 0.90 0.81 0.70 0.60 0.54 0.48 0.43 0.39 0.42 0.41 0.41 0.41 0.43 0.48 0.49 0.48 0.56 0.63 0.66 0.54 0.54 0.54 0.45 0.43 0.51 0.47 0.49 0.63 1.04 1.38 0.84
0.57 0.61 1.24 1.29 1.11 0.97 0.89 0.90 1.00 1.04 1.04 0.95 0.87 0.79 0.67 0.55 0.53 0.48 0.40 0.35 0.37 0.37 0.37 0.37 0.38 0.46 0.51 0.51 0.61 0.69 0.65 0.59 0.63 0.66 0.62 0.62 0.59 0.51 0.47 0.56 0.93 1.24 0.86
0.46 0.54 0.90 1.20 1.08 1.01 0.97 0.90 0.89 0.92 0.93 0.82 0.76 0.76 0.70 0.58 0.51 0.47 0.40 0.35 0.34 0.39 0.36 0.36 0.40 0.47 0.54 0.60 0.62 0.62 0.59 0.61 0.67 0.80 1.08 1.52 1.08 0.68 0.62 0.57 0.73 0.79 0.77
0.48 0.52 0.69 1.13 1.10 1.04 0.98 0.93 0.92 0.88 0.85 0.77 0.73 0.69 0.63 0.57 0.52 0.50 0.43 0.40 0.37 0.37 0.39 0.38 0.39 0.45 0.51 0.55 0.58 0.57 0.52 0.59 0.67 0.80 1.16 1.58 1.45 1.03 0.83 0.78 0.85 0.72 0.77
0.48 0.53 0.76 1.16 1.10 1.08 1.05 1.07 1.09 0.97 0.91 0.80 0.69 0.68 0.64 0.62 0.57 0.52 0.47 0.42 0.41 0.42 0.42 0.41 0.40 0.45 0.51 0.52 0.50 0.49 0.51 0.62 0.76 0.70 0.97 1.32 1.70 1.40 0.97 0.96 1.03 0.88 0.84
0.50 0.52 0.74 1.05 1.05 1.06 1.09 1.09 1.09 0.96 0.86 0.78 0.68 0.67 0.67 0.64 0.59 0.54 0.52 0.49 0.47 0.48 0.45 0.45 0.45 0.49 0.53 0.53 0.51 0.52 0.63 0.70 0.67 0.80 0.99 1.29 1.71 1.47 1.12 1.06 1.02 1.12 0.99
0.57 0.50 0.61 0.91 0.97 1.03 1.01 0.90 0.95 0.92 0.86 0.75 0.68 0.65 0.62 0.59 0.58 0.58 0.61 0.58 0.57 0.56 0.52 0.53 0.52 0.50 0.52 0.57 0.56 0.59 0.69 0.67 0.72 0.92 0.95 1.22 1.34 1.32 1.14 1.06 1.11 1.32 1.22
0.68 0.57 0.55 0.79 0.91 0.92 0.91 0.90 0.98 0.94 0.85 0.72 0.64 0.64 0.62 0.61 0.58 0.56 0.57 0.58 0.62 0.66 0.65 0.59 0.59 0.51 0.52 0.60 0.61 0.64 0.73 0.73 0.72 0.80 0.77 1.01 1.34 1.36 1.07 1.05 1.12 1.29 1.37
0.94 0.79 0.66 0.69 0.78 0.89 0.94 0.97 1.05 1.06 0.99 0.83 0.67 0.65 0.64 0.59 0.53 0.51 0.56 0.59 0.61 0.63 0.65 0.64 0.64 0.59 0.56 0.59 0.63 0.68 0.78 0.78 0.78 0.77 0.65 0.99 1.38 1.28 1.03 0.94 0.99 1.15 1.27
0.98 0.92 0.83 0.78 0.79 0.87 0.93 1.07 1.16 1.25 1.36 1.12 0.81 0.72 0.67 0.57 0.51 0.53 0.54 0.59 0.64 0.71 0.70 0.69 0.70 0.67 0.67 0.64 0.63 0.63 0.69 0.65 0.68 0.67 0.76 0.92 1.27 1.26 1.02 0.90 0.87 0.88 0.98
0.70 0.74 0.78 0.81 0.87 0.87 0.82 0.89 1.12 1.30 1.48 1.21 0.84 0.85 0.78 0.56 0.56 0.60 0.60 0.73 0.81 0.85 0.85 0.85 0.87 0.86 0.83 0.75 0.72 0.67 0.55 0.42 0.56 0.68 0.80 0.94 1.25 1.24 0.98 0.83 0.67 0.69 0.73
0.55 0.52 0.54 0.57 0.66 0.73 0.72 0.93 1.18 1.22 1.35 1.10 0.92 0.96 0.92 0.97 0.91 0.70 0.69 0.88 1.01 1.08 1.01 0.99 1.03 0.96 0.82 0.65 0.66 0.59 0.39 0.38 0.52 0.61 0.69 0.98 1.29 1.22 0.97 0.77 0.62 0.61 0.62
0.43 0.40 0.39 0.41 0.44 0.53 0.74 0.98 1.20 1.25 1.29 1.33 1.37 1.23 1.20 1.16 0.96 0.79 0.76 0.81 0.88 0.97 0.92 1.01 1.02 0.86 0.75 0.63 0.60 0.47 0.36 0.44 0.60 0.61 0.74 0.99 1.25 1.20 1.02 0.87 0.69 0.63 0.62
0.46 0.44 0.38 0.30 0.31 0.39 0.53 0.75 1.03 1.10 1.16 1.24 1.24 1.04 1.13 1.14 0.95 0.89 0.97 1.00 0.97 0.95 1.09 1.13 1.09 1.02 0.85 0.67 0.63 0.60 0.52 0.47 0.58 0.68 0.83 0.84 1.15 1.29 1.11 0.97 0.82 0.73 0.68
0.54 0.61 0.59 0.43 0.37 0.39 0.45 0.50 0.64 0.74 0.85 1.13 1.21 0.95 0.93 0.95 0.99 1.02 0.93 1.07 1.13 1.13 1.14 1.13 1.03 0.97 0.95 0.83 0.81 0.81 0.74 0.59 0.59 0.64 0.82 0.74 0.89 1.21 1.27 1.13 1.02 0.89 0.80
0.38 0.50 0.57 0.55 0.54 0.52 0.45 0.40 0.40 0.46 0.59 0.74 0.76 0.72 0.75 0.78 0.88 1.05 0.99 0.98 1.05 1.23 1.29 1.22 1.12 1.12 1.10 0.94 0.90 0.96 0.88 0.78 0.75 0.75 0.87 0.75 0.58 0.70 1.02 1.18 1.18 1.10 0.95
0.28 0.34 0.43 0.50 0.56 0.58 0.60 0.58 0.48 0.47 0.54 0.56 0.56 0.62 0.69 0.69 0.82 0.99 0.95 0.86 0.84 1.00 1.18 1.31 1.33 1.27 1.13 1.03 0.98 0.98 0.89 0.85 0.83 0.94 0.94 0.89 0.71 0.52 0.67 0.92 1.10 1.17 1.12
0.27 0.26 0.32 0.36 0.43 0.53 0.62 0.69 0.66 0.62 0.58 0.52 0.49 0.47 0.50 0.52 0.61 0.81 0.88 0.79 0.80 0.96 1.17 1.35 1.45 1.47 1.33 1.28 1.26 1.14 0.99 0.94 0.91 0.97 1.00 1.01 1.00 0.80 0.68 0.63 0.76 0.97 1.10
0.26 0.24 0.25 0.29 0.33 0.40 0.51 0.58 0.58 0.57 0.54 0.52 0.52 0.41 0.39 0.41 0.53 0.74 0.91 0.96 0.96 1.06 1.17 1.23 1.42 1.49 1.55 1.45 1.32 1.20 1.08 1.05 0.98 0.91 1.02 1.04 1.06 1.01 0.88 0.60 0.51 0.60 0.78
0.26 0.25 0.24 0.26 0.27 0.31 0.36 0.43 0.48 0.46 0.44 0.50 0.49 0.47 0.51 0.58 0.65 0.84 1.07 1.16 1.27 1.30 1.34 1.49 1.76 1.77 1.64 1.59 1.46 1.27 1.10 1.07 1.07 1.04 1.01 1.05 1.13 1.04 0.92 0.77 0.64 0.44 0.49
0.20 0.18 0.19 0.24 0.27 0.25 0.24 0.29 0.34 0.35 0.44 0.51 0.59 0.64 0.69 0.72 0.80 1.01 1.22 1.45 1.58 1.47 1.47 1.65 1.91 2.06 1.90 1.72 1.73 1.62 1.44 1.22 1.15 1.13 1.07 1.14 1.20 1.18 1.09 1.05 0.92 0.76 0.60
0.07 0.09 0.13 0.15 0.18 0.18 0.18 0.23 0.32 0.39 0.45 0.58 0.74 0.85 0.87 0.85 0.90 0.96 1.16 1.36 1.44 1.48 1.51 1.61 1.80 2.11 2.02 1.82 1.92 2.22 2.02 1.73 1.29 1.06 1.16 1.22 1.29 1.26 1.15 1.04 1.02 0.93 0.84
0.04 0.04 0.07 0.12 0.16 0.16 0.23 0.41 0.68 0.92 1.01 1.02 1.05 1.19 1.29 1.24 1.19 1.17 1.20 1.34 1.42 1.54 1.57 1.60 1.65 1.88 2.00 1.92 1.94 2.39 2.25 2.02 1.86 1.40 1.12 1.18 1.31 1.38 1.33 1.26 1.16 1.07 0.98
0.05 0.05 0.06 0.11 0.16 0.20 0.36 0.68 1.07 1.40 1.49 1.49 1.61 1.66 1.71 1.63 1.50 1.48 1.49 1.57 1.52 1.50 1.48 1.49 1.50 1.66 1.96 2.02 1.93 1.86 1.83 1.85 2.12 1.86 1.35 1.20 1.24 1.26 1.34 1.29 1.28 1.26 1.24
0.12 0.13 0.15 0.21 0.34 0.51 0.66 0.83 1.13 1.32 1.44 1.58 1.74 1.88 1.99 2.11 2.08 2.00 1.93 1.79 1.61 1.52 1.54 1.57 1.57 1.64 1.73 1.84 1.83 1.76 1.76 1.70 1.56 1.71 1.67 1.43 1.25 1.14 1.22 1.31 1.33 1.33 1.39
0.26 0.29 0.32 0.41 0.51 0.58 0.70 0.84 0.98 1.07 1.23 1.43 1.58 1.75 1.89 2.01 2.04 1.98 1.85 1.63 1.46 1.40 1.46 1.58 1.60 1.63 1.62 1.68 1.66 1.59 1.59 1.57 1.47 1.60 1.55 1.56 1.55 1.20 1.08 1.13 1.21 1.25 1.24

GEFSSE_prec_meanprecacc_156.txt.gz
Total_Precipitation_Accumulation
1.10 0.83 1.35 1.39 1.27 1.12 1.04 1.01 1.06 1.15 1.11 1.00 1.02 0.94 0.83 0.72 0.66 0.56 0.51 0.47 0.48 0.45 0.44 0.43 0.45 0.50 0.51 0.49 0.58 0.64 0.67 0.57 0.56 0.57 0.48 0.47 0.55 0.52 0.53 0.68 1.13 1.52 0.94
0.64 0.65 1.27 1.34 1.18 1.05 0.96 0.98 1.09 1.13 1.14 1.06 0.99 0.90 0.77 0.65 0.61 0.55 0.49 0.43 0.44 0.43 0.41 0.39 0.40 0.48 0.53 0.53 0.62 0.70 0.67 0.62 0.66 0.70 0.66 0.68 0.63 0.57 0.53 0.62 1.03 1.35 0.95
0.49 0.58 0.92 1.24 1.15 1.08 1.02 0.97 0.98 1.02 1.08 0.94 0.86 0.84 0.77 0.66 0.59 0.54 0.47 0.42 0.39 0.44 0.40 0.39 0.42 0.48 0.55 0.61 0.63 0.64 0.60 0.64 0.70 0.84 1.18 1.66 1.16 0.72 0.66 0.62 0.79 0.83 0.81
0.51 0.56 0.71 1.16 1.17 1.10 1.04 1.02 1.00 0.98 0.98 0.88 0.81 0.76 0.70 0.64 0.60 0.56 0.47 0.44 0.40 0.39 0.41 0.42 0.41 0.46 0.51 0.56 0.59 0.58 0.54 0.61 0.69 0.86 1.30 1.74 1.58 1.09 0.88 0.84 0.89 0.75 0.79
0.51 0.56 0.78 1.20 1.18 1.16 1.14 1.15 1.17 1.06 0.98 0.87 0.75 0.74 0.70 0.68 0.61 0.56 0.51 0.45 0.43 0.44 0.43 0.42 0.42 0.47 0.53 0.53 0.51 0.51 0.54 0.65 0.80 0.76 1.07 1.46 1.82 1.47 1.02 1.00 1.05 0.90 0.86
0.56 0.57 0.77 1.08 1.12 1.13 1.19 1.19 1.17 1.03 0.93 0.86 0.74 0.72 0.74 0.71 0.64 0.59 0.56 0.51 0.48 0.49 0.46 0.47 0.46 0.51 0.54 0.55 0.53 0.55 0.66 0.73 0.73 0.86 1.10 1.40 1.82 1.55 1.18 1.08 1.04 1.14 1.00
0.61 0.54 0.65 0.95 1.04 1.10 1.10 0.98 1.00 0.98 0.92 0.81 0.72 0.68 0.66 0.63 0.61 0.60 0.63 0.59 0.58 0.58 0.55 0.55 0.54 0.52 0.53 0.58 0.58 0.61 0.71 0.71 0.76 0.98 1.04 1.31 1.41 1.37 1.18 1.09 1.14 1.35 1.24
0.71 0.59 0.58 0.83 0.97 0.97 0.97 0.95 1.02 0.99 0.90 0.76 0.67 0.67 0.66 0.65 0.60 0.58 0.57 0.59 0.63 0.67 0.66 0.61 0.60 0.53 0.54 0.62 0.63 0.66 0.75 0.75 0.74 0.85 0.83 1.09 1.40 1.41 1.10 1.06 1.15 1.32 1.40
0.98 0.83 0.70 0.72 0.82 0.92 1.00 1.02 1.10 1.11 1.03 0.86 0.71 0.69 0.68 0.61 0.54 0.52 0.57 0.60 0.62 0.64 0.66 0.65 0.65 0.60 0.58 0.64 0.66 0.69 0.80 0.80 0.83 0.81 0.69 1.05 1.44 1.33 1.06 0.96 1.01 1.17 1.31
1.01 0.96 0.86 0.81 0.82 0.90 0.98 1.12 1.20 1.29 1.39 1.14 0.84 0.74 0.69 0.58 0.52 0.54 0.55 0.60 0.64 0.72 0.71 0.69 0.71 0.67 0.70 0.69 0.66 0.66 0.70 0.69 0.73 0.71 0.81 0.96 1.33 1.31 1.05 0.92 0.89 0.91 1.01
0.73 0.76 0.80 0.84 0.90 0.88 0.84 0.90 1.14 1.33 1.50 1.22 0.85 0.86 0.79 0.56 0.56 0.61 0.61 0.73 0.82 0.86 0.85 0.86 0.88 0.87 0.85 0.77 0.74 0.69 0.57 0.45 0.58 0.72 0.83 0.97 1.30 1.28 1.01 0.85 0.69 0.71 0.75
0.58 0.53 0.54 0.57 0.67 0.73 0.72 0.93 1.18 1.23 1.35 1.10 0.92 0.96 0.92 0.97 0.91 0.70 0.69 0.88 1.02 1.09 1.02 1.00 1.04 0.97 0.84 0.67 0.68 0.62 0.42 0.41 0.53 0.64 0.71 1.01 1.32 1.26 1.00 0.80 0.64 0.63 0.64
0.43 0.41 0.39 0.41 0.44 0.54 0.74 0.98 1.20 1.25 1.29 1.33 1.37 1.23 1.20 1.16 0.96 0.79 0.76 0.81 0.88 0.98 0.93 1.02 1.03 0.87 0.78 0.65 0.61 0.49 0.40 0.47 0.63 0.64 0.75 1.01 1.29 1.25 1.07 0.90 0.71 0.65 0.65
0.46 0.44 0.38 0.30 0.31 0.39 0.53 0.75 1.03 1.10 1.16 1.24 1.24 1.04 1.13 1.14 0.95 0.89 0.98 1.01 0.98 0.96 1.10 1.13 1.10 1.04 0.86 0.67 0.63 0.61 0.54 0.49 0.61 0.73 0.86 0.87 1.19 1.34 1.16 1.00 0.84 0.76 0.72
0.54 0.62 0.59 0.43 0.37 0.39 0.45 0.50 0.64 0.74 0.85 1.13 1.21 0.95 0.93 0.95 0.99 1.02 0.94 1.08 1.14 1.14 1.14 1.13 1.04 0.98 0.96 0.83 0.82 0.83 0.76 0.61 0.63 0.68 0.85 0.78 0.94 1.27 1.33 1.16 1.06 0.93 0.85
0.38 0.50 0.57 0.55 0.54 0.52 0.45 0.40 0.40 0.46 0.59 0.74 0.76 0.72 0.75 0.78 0.88 1.05 0.99 0.99 1.06 1.24 1.29 1.22 1.12 1.13 1.11 0.95 0.91 0.98 0.90 0.81 0.78 0.80 0.92 0.79 0.62 0.75 1.07 1.23 1.24 1.15 1.01
0.28 0.34 0.43 0.50 0.56 0.58 0.60 0.58 0.48 0.47 0.54 0.56 0.56 0.62 0.69 0.69 0.82 0.99 0.95 0.87 0.85 1.01 1.19 1.32 1.34 1.29 1.14 1.04 1.00 1.00 0.91 0.88 0.86 0.98 1.00 0.95 0.75 0.55 0.70 0.95 1.15 1.24 1.20
0.27 0.26 0.32 0.36 0.44 0.53 0.62 0.69 0.66 0.62 0.58 0.52 0.49 0.47 0.50 0.52 0.61 0.81 0.88 0.80 0.80 0.97 1.18 1.36 1.47 1.50 1.37 1.31 1.30 1.17 1.02 0.98 0.95 1.03 1.06 1.08 1.06 0.83 0.70 0.65 0.78 1.00 1.14
0.27 0.24 0.25 0.29 0.33 0.40 0.51 0.58 0.58 0.57 0.54 0.52 0.52 0.41 0.39 0.41 0.53 0.74 0.92 0.96 0.97 1.07 1.18 1.23 1.44 1.53 1.59 1.49 1.36 1.23 1.12 1.09 1.03 0.99 1.13 1.12 1.12 1.07 0.92 0.62 0.53 0.62 0.80
0.26 0.25 0.25 0.27 0.28 0.31 0.36 0.43 0.48 0.46 0.44 0.50 0.49 0.47 0.51 0.58 0.65 0.84 1.07 1.16 1.28 1.31 1.35 1.50 1.79 1.80 1.68 1.64 1.50 1.30 1.13 1.12 1.13 1.13 1.11 1.13 1.20 1.11 0.99 0.84 0.68 0.45 0.50
0.20 0.18 0.19 0.24 0.27 0.25 0.24 0.29 0.34 0.35 0.44 0.51 0.59 0.64 0.69 0.72 0.80 1.01 1.23 1.46 1.60 1.48 1.48 1.67 1.94 2.10 1.94 1.77 1.79 1.68 1.49 1.27 1.21 1.19 1.15 1.21 1.26 1.23 1.15 1.11 0.98 0.81 0.64
0.07 0.09 0.13 0.15 0.18 0.18 0.18 0.23 0.32 0.39 0.45 0.58 0.74 0.85 0.87 0.85 0.90 0.96 1.16 1.37 1.45 1.49 1.52 1.62 1.84 2.17 2.06 1.85 1.97 2.29 2.08 1.79 1.34 1.10 1.23 1.29 1.35 1.31 1.20 1.09 1.07 1.00 0.91
0.04 0.04 0.07 0.12 0.16 0.16 0.23 0.41 0.68 0.93 1.01 1.03 1.05 1.19 1.29 1.24 1.19 1.17 1.20 1.34 1.42 1.55 1.58 1.61 1.67 1.93 2.06 1.96 1.97 2.44 2.33 2.09 1.93 1.45 1.17 1.23 1.36 1.43 1.39 1.31 1.20 1.12 1.02
0.05 0.05 0.06 0.11 0.16 0.20 0.36 0.68 1.07 1.40 1.49 1.50 1.62 1.66 1.71 1.63 1.50 1.48 1.49 1.57 1.52 1.50 1.49 1.51 1.52 1.68 2.01 2.07 1.98 1.89 1.86 1.90 2.18 1.90 1.39 1.24 1.28 1.30 1.38 1.32 1.32 1.31 1.29
0.12 0.14 0.15 0.22 0.34 0.51 0.66 0.83 1.13 1.32 1.44 1.59 1.75 1.88 1.99 2.11 2.08 2.00 1.93 1.79 1.61 1.53 1.54 1.57 1.57 1.65 1.76 1.89 1.88 1.81 1.80 1.74 1.61 1.76 1.71 1.47 1.29 1.19 1.26 1.34 1.37 1.38 1.45
0.27 0.29 0.32 0.41 0.51 0.58 0.70 0.84 0.98 1.07 1.24 1.44 1.59 1.75 1.90 2.01 2.04 1.98 1.85 1.63 1.46 1.40 1.46 1.58 1.60 1.63 1.63 1.71 1.70 1.63 1.64 1.62 1.51 1.64 1.58 1.59 1.59 1.25 1.12 1.17 1.26 1.31 1.30

GEFSSE_prec_meanprecacc_162.txt.gz
Total_Precipitation_Accumulation
1.18 0.88 1.44 1.47 1.32 1.14 1.06 1.04 1.11 1.18 1.14 1.04 1.05 0.99 0.88 0.76 0.68 0.58 0.52 0.49 0.50 0.47 0.46 0.45 0.47 0.52 0.52 0.50 0.59 0.65 0.69 0.59 0.59 0.60 0.52 0.50 0.59 0.57 0.59 0.74 1.19 1.58 1.01
0.67 0.68 1.35 1.41 1.23 1.08 0.98 1.01 1.13 1.16 1.17 1.10 1.04 0.94 0.80 0.68 0.63 0.56 0.50 0.45 0.45 0.45 0.45 0.43 0.44 0.51 0.56 0.54 0.63 0.71 0.69 0.64 0.68 0.74 0.71 0.72 0.67 0.63 0.62 0.70 1.08 1.39 1.00
0.53 0.60 0.98 1.33 1.22 1.12 1.05 1.00 1.00 1.04 1.10 0.97 0.90 0.87 0.80 0.69 0.62 0.55 0.49 0.44 0.40 0.46 0.42 0.41 0.44 0.51 0.57 0.64 0.65 0.65 0.62 0.66 0.73 0.88 1.22 1.68 1.19 0.78 0.73 0.68 0.85 0.89 0.85
0.55 0.59 0.75 1.23 1.24 1.15 1.08 1.05 1.03 1.01 1.03 0.92 0.85 0.79 0.72 0.66 0.62 0.57 0.49 0.46 0.41 0.40 0.42 0.43 0.43 0.48 0.52 0.57 0.61 0.60 0.56 0.63 0.74 0.91 1.32 1.77 1.61 1.15 0.96 0.90 0.93 0.78 0.82
0.54 0.59 0.81 1.24 1.24 1.20 1.17 1.18 1.21 1.09 1.02 0.92 0.79 0.76 0.72 0.70 0.64 0.58 0.53 0.47 0.43 0.44 0.43 0.43 0.43 0.48 0.54 0.54 0.52 0.53 0.55 0.69 0.85 0.80 1.09 1.47 1.85 1.52 1.09 1.05 1.09 0.93 0.89
0.58 0.59 0.80 1.11 1.17 1.17 1.21 1.22 1.19 1.05 0.95 0.89 0.78 0.77 0.78 0.77 0.69 0.63 0.58 0.53 0.49 0.50 0.47 0.48 0.47 0.53 0.56 0.56 0.54 0.58 0.69 0.77 0.76 0.87 1.12 1.42 1.84 1.59 1.23 1.13 1.08 1.17 1.04
0.62 0.55 0.67 1.00 1.08 1.15 1.13 1.01 1.02 1.00 0.95 0.85 0.77 0.72 0.70 0.68 0.66 0.64 0.66 0.61 0.59 0.59 0.55 0.56 0.55 0.53 0.55 0.59 0.60 0.65 0.75 0.74 0.78 1.00 1.06 1.33 1.43 1.40 1.21 1.13 1.18 1.37 1.27
0.73 0.60 0.60 0.88 1.02 1.03 1.03 1.00 1.06 1.02 0.94 0.80 0.70 0.70 0.70 0.70 0.65 0.61 0.59 0.59 0.63 0.68 0.66 0.61 0.61 0.54 0.55 0.63 0.66 0.72 0.82 0.79 0.76 0.88 0.85 1.11 1.43 1.44 1.12 1.08 1.17 1.35 1.44
1.00 0.85 0.72 0.75 0.86 0.96 1.04 1.07 1.15 1.15 1.06 0.89 0.73 0.72 0.72 0.63 0.56 0.53 0.57 0.60 0.62 0.64 0.66 0.65 0.65 0.60 0.60 0.67 0.71 0.77 0.85 0.83 0.86 0.85 0.72 1.07 1.48 1.36 1.08 0.99 1.04 1.20 1.33
1.03 0.98 0.89 0.83 0.83 0.91 0.99 1.15 1.23 1.31 1.41 1.16 0.85 0.75 0.71 0.59 0.53 0.55 0.56 0.60 0.65 0.73 0.71 0.70 0.72 0.69 0.73 0.73 0.72 0.72 0.74 0.71 0.77 0.75 0.83 0.99 1.38 1.34 1.07 0.94 0.91 0.93 1.03
0.74 0.77 0.82 0.85 0.90 0.89 0.84 0.93 1.16 1.35 1.51 1.23 0.86 0.87 0.79 0.57 0.56 0.61 0.61 0.74 0.83 0.88 0.87 0.87 0.89 0.90 0.88 0.80 0.77 0.74 0.61 0.48 0.62 0.75 0.86 1.04 1.36 1.32 1.04 0.88 0.71 0.73 0.77
0.60 0.55 0.55 0.58 0.67 0.73 0.73 0.93 1.19 1.23 1.35 1.10 0.92 0.96 0.92 0.97 0.91 0.70 0.70 0.89 1.03 1.11 1.04 1.01 1.05 0.99 0.85 0.68 0.70 0.66 0.47 0.45 0.57 0.66 0.75 1.08 1.38 1.30 1.03 0.82 0.66 0.66 0.67
0.45 0.42 0.40 0.41 0.45 0.54 0.74 0.98 1.20 1.25 1.29 1.33 1.37 1.23 1.20 1.16 0.96 0.79 0.76 0.81 0.89 0.98 0.93 1.02 1.03 0.88 0.79 0.66 0.62 0.52 0.45 0.53 0.67 0.66 0.79 1.07 1.35 1.30 1.11 0.94 0.75 0.69 0.69
0.47 0.45 0.39 0.30 0.31 0.39 0.53 0.75 1.03 1.11 1.16 1.24 1.24 1.04 1.13 1.14 0.95 0.89 0.98 1.01 0.98 0.97 1.10 1.14 1.11 1.05 0.88 0.69 0.65 0.64 0.60 0.55 0.65 0.75 0.89 0.93 1.27 1.43 1.23 1.06 0.89 0.80 0.76
0.54 0.62 0.60 0.44 0.37 0.39 0.45 0.50 0.64 0.74 0.85 1.13 1.21 0.95 0.93 0.95 0.99 1.02 0.94 1.08 1.15 1.15 1.15 1.14 1.05 0.99 0.97 0.85 0.84 0.87 0.82 0.67 0.67 0.72 0.87 0.84 1.04 1.37 1.42 1.24 1.12 0.97 0.88
0.38 0.50 0.58 0.55 0.54 0.52 0.45 0.40 0.40 0.46 0.59 0.74 0.76 0.72 0.75 0.78 0.88 1.05 1.00 0.99 1.07 1.25 1.30 1.24 1.13 1.15 1.12 0.96 0.96 1.02 0.94 0.85 0.83 0.83 0.94 0.82 0.67 0.82 1.14 1.31 1.32 1.22 1.06
0.29 0.34 0.44 0.51 0.56 0.58 0.60 0.58 0.48 0.47 0.54 0.56 0.56 0.62 0.69 0.69 0.82 0.99 0.95 0.87 0.86 1.02 1.21 1.33 1.35 1.30 1.15 1.06 1.04 1.05 0.96 0.93 0.91 1.03 1.04 0.98 0.77 0.58 0.75 1.01 1.23 1.31 1.26
0.28 0.27 0.32 0.36 0.44 0.53 0.62 0.69 0.66 0.62 0.58 0.52 0.49 0.47 0.50 0.52 0.61 0.81 0.88 0.80 0.81 0.98 1.19 1.38 1.48 1.52 1.38 1.32 1.33 1.23 1.07 1.02 1.00 1.09 1.11 1.12 1.08 0.84 0.72 0.69 0.82 1.04 1.18
0.28 0.25 0.25 0.29 0.33 0.40 0.51 0.58 0.58 0.57 0.54 0.52 0.52 0.41 0.39 0.41 0.53 0.74 0.92 0.97 0.98 1.08 1.20 1.25 1.44 1.54 1.61 1.50 1.38 1.27 1.16 1.15 1.09 1.05 1.20 1.17 1.14 1.08 0.93 0.64 0.55 0.64 0.83
0.27 0.25 0.25 0.27 0.28 0.31 0.36 0.43 0.48 0.46 0.44 0.50 0.49 0.47 0.51 0.58 0.65 0.84 1.07 1.17 1.28 1.31 1.36 1.52 1.80 1.81 1.69 1.65 1.52 1.32 1.16 1.16 1.18 1.23 1.23 1.19 1.24 1.14 1.01 0.84 0.69 0.46 0.52
0.21 0.19 0.19 0.24 0.27 0.25 0.24 0.29 0.34 0.35 0.44 0.51 0.59 0.64 0.69 0.72 0.80 1.01 1.23 1.46 1.60 1.48 1.48 1.67 1.95 2.12 1.95 1.79 1.80 1.70 1.53 1.32 1.27 1.28 1.26 1.29 1.32 1.26 1.17 1.12 0.99 0.82 0.65
0.07 0.10 0.13 0.15 0.18 0.18 0.18 0.23 0.32 0.39 0.45 0.58 0.74 0.85 0.87 0.85 0.91 0.96 1.16 1.37 1.45 1.50 1.53 1.63 1.84 2.18 2.08 1.86 1.97 2.30 2.10 1.83 1.43 1.20 1.31 1.36 1.40 1.35 1.23 1.11 1.09 1.01 0.92
0.05 0.05 0.08 0.12 0.16 0.16 0.23 0.41 0.68 0.93 1.01 1.03 1.05 1.19 1.29 1.24 1.19 1.17 1.20 1.34 1.42 1.55 1.59 1.62 1.68 1.94 2.07 1.96 1.98 2.45 2.34 2.11 1.97 1.52 1.23 1.29 1.41 1.48 1.43 1.35 1.25 1.15 1.03
0.06 0.05 0.06 0.11 0.16 0.20 0.36 0.69 1.07 1.40 1.49 1.50 1.62 1.66 1.72 1.64 1.50 1.48 1.49 1.57 1.53 1.51 1.50 1.52 1.53 1.70 2.02 2.09 2.00 1.91 1.87 1.91 2.19 1.92 1.42 1.28 1.33 1.35 1.43 1.36 1.38 1.36 1.32
0.13 0.14 0.15 0.22 0.34 0.51 0.66 0.83 1.13 1.33 1.44 1.59 1.75 1.89 2.00 2.11 2.09 2.01 1.93 1.79 1.61 1.53 1.55 1.59 1.58 1.66 1.77 1.91 1.89 1.82 1.81 1.75 1.61 1.76 1.72 1.50 1.33 1.23 1.31 1.37 1.41 1.42 1.47
0.27 0.29 0.32 0.42 0.51 0.59 0.70 0.84 0.98 1.07 1.24 1.44 1.59 1.76 1.90 2.02 2.04 1.98 1.85 1.64 1.46 1.40 1.47 1.59 1.62 1.65 1.65 1.73 1.71 1.64 1.65 1.62 1.52 1.65 1.59 1.61 1.61 1.27 1.16 1.20 1.29 1.33 1.32

GEFSSE_prec_meanprecacc_168.txt.gz
Total_Precipitation_Accumulation
1.21 0.93 1.55 1.62 1.45 1.25 1.14 1.11 1.20 1.25 1.19 1.09 1.10 1.03 0.91 0.79 0.71 0.62 0.55 0.53 0.54 0.51 0.50 0.48 0.49 0.54 0.54 0.52 0.60 0.68 0.71 0.62 0.61 0.64 0.56 0.55 0.64 0.63 0.64 0.81 1.24 1.62 1.05
0.69 0.72 1.47 1.58 1.36 1.20 1.07 1.09 1.25 1.27 1.24 1.17 1.10 0.98 0.84 0.72 0.66 0.61 0.55 0.49 0.49 0.48 0.48 0.47 0.46 0.54 0.59 0.57 0.64 0.73 0.70 0.66 0.70 0.77 0.75 0.75 0.70 0.66 0.67 0.77 1.12 1.43 1.05
0.56 0.64 1.09 1.48 1.34 1.23 1.14 1.10 1.11 1.12 1.15 1.01 0.96 0.94 0.84 0.73 0.66 0.60 0.53 0.47 0.44 0.48 0.45 0.43 0.45 0.54 0.61 0.66 0.67 0.66 0.63 0.68 0.75 0.89 1.23 1.69 1.20 0.82 0.78 0.73 0.89 0.94 0.90
0.60 0.62 0.83 1.35 1.38 1.27 1.17 1.15 1.11 1.07 1.09 0.97 0.91 0.86 0.77 0.71 0.66 0.62 0.55 0.50 0.44 0.42 0.44 0.44 0.44 0.49 0.55 0.59 0.63 0.62 0.59 0.65 0.76 0.92 1.32 1.77 1.61 1.17 0.99 0.95 0.99 0.85 0.88
0.61 0.64 0.89 1.36 1.34 1.31 1.28 1.28 1.28 1.15 1.09 0.98 0.84 0.83 0.79 0.75 0.69 0.63 0.58 0.51 0.46 0.47 0.45 0.45 0.44 0.49 0.57 0.57 0.54 0.55 0.59 0.72 0.87 0.80 1.09 1.48 1.85 1.55 1.13 1.12 1.16 0.99 0.94
0.64 0.65 0.88 1.21 1.26 1.25 1.29 1.30 1.26 1.10 1.00 0.94 0.83 0.81 0.83 0.81 0.74 0.69 0.63 0.57 0.52 0.53 0.49 0.49 0.49 0.54 0.58 0.59 0.56 0.60 0.73 0.81 0.77 0.87 1.12 1.42 1.84 1.63 1.27 1.18 1.13 1.22 1.10
0.65 0.61 0.78 1.12 1.18 1.23 1.18 1.06 1.07 1.04 0.99 0.88 0.79 0.75 0.75 0.75 0.72 0.68 0.70 0.65 0.61 0.61 0.57 0.57 0.56 0.54 0.55 0.60 0.62 0.69 0.79 0.78 0.79 1.00 1.07 1.34 1.45 1.43 1.25 1.17 1.22 1.42 1.31
0.77 0.64 0.67 1.00 1.12 1.11 1.09 1.06 1.12 1.08 0.98 0.83 0.73 0.73 0.73 0.74 0.71 0.65 0.64 0.63 0.65 0.69 0.68 0.63 0.62 0.55 0.57 0.65 0.69 0.76 0.86 0.81 0.77 0.89 0.87 1.13 1.46 1.47 1.16 1.13 1.20 1.39 1.49
1.10 0.90 0.77 0.86 1.00 1.05 1.11 1.12 1.20 1.22 1.10 0.92 0.77 0.75 0.75 0.66 0.59 0.56 0.60 0.62 0.64 0.65 0.67 0.66 0.66 0.61 0.61 0.70 0.75 0.82 0.90 0.85 0.88 0.86 0.73 1.09 1.52 1.40 1.13 1.02 1.06 1.23 1.36
1.12 1.04 0.93 0.89 0.94 0.97 1.04 1.22 1.33 1.43 1.47 1.21 0.91 0.82 0.75 0.62 0.55 0.58 0.59 0.62 0.67 0.74 0.72 0.70 0.72 0.70 0.75 0.76 0.77 0.79 0.79 0.72 0.78 0.76 0.84 1.03 1.45 1.38 1.10 0.96 0.93 0.95 1.05
0.78 0.81 0.85 0.89 0.96 0.91 0.90 1.05 1.29 1.46 1.57 1.27 0.89 0.91 0.82 0.57 0.57 0.63 0.64 0.77 0.85 0.90 0.89 0.89 0.91 0.92 0.91 0.83 0.83 0.86 0.68 0.51 0.64 0.76 0.89 1.10 1.44 1.38 1.08 0.91 0.75 0.77 0.80
0.61 0.56 0.56 0.59 0.69 0.75 0.75 0.98 1.24 1.29 1.39 1.11 0.93 0.96 0.92 0.97 0.91 0.71 0.70 0.90 1.05 1.12 1.04 1.03 1.08 1.01 0.87 0.70 0.71 0.70 0.52 0.52 0.61 0.69 0.79 1.16 1.47 1.36 1.09 0.88 0.70 0.69 0.70
0.47 0.43 0.41 0.43 0.46 0.55 0.75 1.00 1.21 1.27 1.30 1.33 1.37 1.23 1.20 1.16 0.96 0.79 0.76 0.81 0.89 0.98 0.93 1.02 1.04 0.89 0.79 0.67 0.63 0.53 0.48 0.60 0.73 0.69 0.83 1.16 1.44 1.36 1.18 1.01 0.80 0.73 0.73
0.48 0.46 0.39 0.30 0.32 0.39 0.54 0.76 1.03 1.11 1.16 1.24 1.24 1.04 1.13 1.14 0.95 0.89 0.98 1.01 0.98 0.97 1.10 1.15 1.11 1.06 0.88 0.70 0.66 0.66 0.64 0.61 0.71 0.79 0.94 1.02 1.36 1.51 1.32 1.17 0.98 0.87 0.82
0.56 0.64 0.60 0.44 0.38 0.40 0.45 0.51 0.64 0.74 0.85 1.13 1.21 0.95 0.93 0.95 0.99 1.02 0.94 1.08 1.15 1.15 1.15 1.15 1.05 0.99 0.97 0.85 0.86 0.89 0.86 0.72 0.72 0.77 0.93 0.90 1.11 1.48 1.57 1.38 1.21 1.04 0.94
0.41 0.52 0.59 0.56 0.55 0.52 0.45 0.40 0.40 0.46 0.59 0.74 0.76 0.72 0.75 0.78 0.88 1.05 1.00 0.99 1.07 1.25 1.31 1.24 1.13 1.15 1.13 0.98 0.98 1.05 0.99 0.89 0.87 0.87 0.97 0.84 0.71 0.90 1.27 1.45 1.43 1.31 1.13
0.32 0.36 0.44 0.51 0.56 0.58 0.60 0.58 0.48 0.47 0.54 0.56 0.56 0.62 0.69 0.69 0.82 0.99 0.95 0.87 0.86 1.03 1.21 1.33 1.35 1.31 1.16 1.07 1.07 1.08 0.99 0.97 0.96 1.05 1.06 0.99 0.79 0.62 0.81 1.10 1.32 1.38 1.33
0.31 0.29 0.34 0.37 0.44 0.53 0.62 0.69 0.66 0.62 0.58 0.52 0.49 0.47 0.50 0.52 0.61 0.81 0.88 0.80 0.81 0.98 1.20 1.38 1.49 1.53 1.39 1.34 1.35 1.25 1.10 1.06 1.04 1.13 1.14 1.14 1.10 0.86 0.74 0.73 0.88 1.09 1.25
0.31 0.28 0.26 0.29 0.34 0.41 0.51 0.58 0.58 0.57 0.54 0.52 0.52 0.41 0.39 0.41 0.53 0.74 0.92 0.97 0.98 1.09 1.21 1.26 1.46 1.55 1.63 1.52 1.40 1.30 1.22 1.20 1.14 1.09 1.23 1.20 1.17 1.10 0.95 0.66 0.58 0.67 0.87
0.30 0.28 0.26 0.28 0.28 0.32 0.36 0.43 0.48 0.46 0.44 0.50 0.49 0.47 0.51 0.58 0.65 0.84 1.08 1.17 1.29 1.31 1.37 1.54 1.82 1.82 1.71 1.67 1.54 1.36 1.21 1.20 1.22 1.27 1.28 1.23 1.26 1.16 1.03 0.86 0.72 0.50 0.55
0.23 0.21 0.21 0.25 0.27 0.26 0.24 0.29 0.34 0.35 0.44 0.51 0.59 0.64 0.69 0.72 0.80 1.02 1.23 1.47 1.60 1.49 1.50 1.71 1.98 2.14 1.97 1.80 1.81 1.72 1.56 1.37 1.32 1.33 1.33 1.35 1.36 1.29 1.19 1.13 1.01 0.84 0.66
0.08 0.11 0.15 0.16 0.18 0.18 0.18 0.23 0.32 0.39 0.45 0.58 0.74 0.85 0.87 0.85 0.91 0.96 1.16 1.37 1.45 1.50 1.54 1.65 1.88 2.22 2.10 1.87 1.98 2.32 2.12 1.87 1.48 1.23 1.37 1.43 1.46 1.39 1.27 1.14 1.11 1.03 0.92
0.06 0.06 0.10 0.13 0.16 0.16 0.23 0.41 0.68 0.93 1.01 1.03 1.05 1.19 1.29 1.25 1.19 1.17 1.20 1.34 1.42 1.56 1.60 1.64 1.71 1.99 2.09 1.97 1.98 2.46 2.36 2.14 1.99 1.54 1.28 1.35 1.45 1.51 1.48 1.37 1.25 1.16 1.05
0.07 0.07 0.08 0.12 0.17 0.20 0.36 0.69 1.07 1.40 1.49 1.50 1.62 1.66 1.72 1.64 1.50 1.48 1.49 1.57 1.53 1.51 1.51 1.54 1.54 1.73 2.04 2.09 2.00 1.91 1.89 1.93 2.21 1.94 1.45 1.31 1.35 1.37 1.47 1.38 1.39 1.37 1.34
0.13 0.15 0.16 0.22 0.35 0.51 0.66 0.83 1.13 1.33 1.44 1.59 1.75 1.89 2.00 2.11 2.09 2.01 1.93 1.79 1.61 1.53 1.56 1.60 1.60 1.69 1.80 1.92 1.90 1.83 1.84 1.77 1.62 1.77 1.73 1.52 1.35 1.25 1.34 1.39 1.42 1.43 1.49
0.28 0.30 0.33 0.42 0.51 0.59 0.70 0.84 0.98 1.07 1.24 1.44 1.59 1.76 1.90 2.02 2.04 1.98 1.85 1.64 1.46 1.40 1.47 1.60 1.63 1.68 1.68 1.74 1.72 1.65 1.66 1.63 1.52 1.65 1.61 1.63 1.62 1.29 1.18 1.22 1.30 1.34 1.34